[[{"header":{"parameterUnit":"m.s-1","parameterCategory":1,"la1":30.6,"la2":29.2853,"lo1":-89.7004,"lo2":-87.6739,"dy":0.0162,"dx":0.0183,"nx":112,"ny":82,"refTime":"2025-11-04T12:00:00:Z","depth":0,"parameterNumber":2,"parameterNumberName":"U-component_of_WINDS"},"data":[0.0,0.0,0.0,0.0,0.0,0.0,0.0,0.0,0.0,0.0,0.0,0.0,0.0,0.0,0.0,0.0,0.0,0.0,0.0,0.0,0.0,0.0,0.0,0.0,0.0,0.0,0.0,0.0,0.0,0.0,0.0,0.0,0.0,0.0,0.0,0.0,0.0,0.0,0.0,0.0,0.0,0.0,0.0,0.0,0.0,0.0,0.0,0.0,0.0,0.0,0.0,0.0,0.0,0.0,0.0,0.0,0.0,0.0,0.0,0.0,0.0,0.0,0.0,0.0,0.0,0.0,0.0,0.0,0.0,0.0,0.0,0.0,0.0,0.0,0.0,0.0,0.0,0.0,0.0,0.0,0.0,0.0,0.0,0.0,0.0,0.0,0.0,0.0,0.0,0.0,0.7638,0.8529,0.9022,0.9223,0.9047,0.8936,0.8488,0.7619,0.0,0.0,0.0,0.0,0.0,0.0,0.0,0.0,0.0,0.0,0.0,0.0,0.0,0.0,0.0,0.0,0.0,0.0,0.0,0.0,0.0,0.0,0.0,0.0,0.0,0.0,0.0,0.0,0.0,0.0,0.0,0.0,0.0,0.0,0.0,0.0,0.0,0.0,0.0,0.0,0.0,0.0,0.0,0.0,0.0,0.0,0.0,0.0,0.0,0.0,0.0,0.0,0.0,0.0,0.0,0.0,0.0,0.0,0.0,0.0,0.0,0.0,0.0,0.0,0.0,0.0,0.0,0.0,0.0,0.0,0.0,0.0,0.0,0.0,0.0,0.0,0.0,0.0,0.0,0.0,0.0,0.0,0.0,0.0,0.0,0.0,0.0,0.0,0.0,0.0,0.0,0.0,0.0,0.0,0.0,0.0,0.0,0.0,0.0,0.0,0.0,0.0,0.0,0.0,0.7786,0.9051,0.9255,0.9149,0.8789,0.8753,0.8585,0.8268,0.0,0.0,0.0,0.0,0.0,0.0,0.0,0.0,0.0,0.0,0.0,0.0,0.0,0.0,0.0,0.0,0.0,0.0,0.0,0.0,0.0,0.0,0.0,0.0,0.0,0.0,0.0,0.0,0.0,0.0,0.0,0.0,0.0,0.0,0.0,0.0,0.0,0.0,0.0,0.0,0.0,0.0,0.0,0.0,0.0,0.0,0.0,0.0,0.0,0.0,0.0,0.0,0.0,0.0,0.0,0.0,0.0,0.0,0.0,0.0,0.0,0.0,0.0,0.0,0.0,0.0,0.0,0.0,0.0,0.0,0.0,0.0,0.0,0.0,0.0,0.0,0.0,0.0,0.0,0.0,0.0,0.0,0.0,0.0,0.0,0.0,0.0,0.0,0.0,0.0,0.0,0.0,0.0,0.0,0.0,0.0,0.0,0.0,0.0,0.0,0.0,0.0,0.0,0.7887,0.821,0.9197,0.9228,0.9078,0.8835,0.8753,0.861,0.8422,0.7082,0.0,0.0,0.0,0.0,0.0,0.0,0.0,0.0,0.0,0.0,0.0,0.0,0.0,0.0,0.0,0.0,0.0,0.0,0.0,0.0,0.0,0.0,0.0,0.0,0.0,0.0,0.0,0.0,0.0,0.0,0.0,0.0,0.0,0.0,0.0,0.0,0.0,0.0,0.0,0.0,0.0,0.0,0.0,0.0,0.0,0.0,0.0,0.0,0.0,0.0,0.0,0.0,0.0,0.0,0.0,0.0,0.0,0.0,0.0,0.0,0.0,0.0,0.0,0.0,0.0,0.0,0.0,0.0,0.0,0.0,0.0,0.0,0.0,0.0,0.0,0.0,0.0,0.0,0.0,0.0,0.0,0.0,0.0,0.0,0.0,0.0,0.0,0.0,0.0,0.0,0.0,0.0,0.0,0.0,0.0,0.0,0.0,0.0,0.0,0.0,0.0,0.0,0.8425,0.8771,0.9246,0.9174,0.9043,0.8858,0.8712,0.8542,0.8348,0.6944,0.0,0.0,0.0,0.0,0.0,0.0,0.0,0.0,0.0,0.0,0.0,0.0,0.0,0.0,0.0,0.0,0.0,0.0,0.0,0.0,0.0,0.0,0.0,0.0,0.0,0.0,0.0,0.0,0.0,0.0,0.0,0.0,0.0,0.0,0.0,0.0,0.0,0.0,0.0,0.0,0.0,0.0,0.0,0.0,0.0,0.0,0.0,0.0,0.0,0.0,0.0,0.0,0.0,0.0,0.0,0.0,0.0,0.0,0.0,0.0,0.0,0.0,0.0,0.0,0.0,0.0,0.0,0.0,0.0,0.0,0.0,0.0,0.0,0.0,0.0,0.0,0.0,0.0,0.0,0.0,0.0,0.0,0.0,0.0,0.0,0.0,0.0,0.0,0.0,0.0,0.0,0.0,0.0,0.0,0.0,0.0,0.0,0.0,0.0,0.0,0.0,0.0,0.8566,0.9385,0.9304,0.9174,0.9001,0.8741,0.8536,0.8341,0.8138,0.6742,0.0,0.0,0.0,0.0,0.0,0.0,0.0,0.0,0.0,0.0,0.0,0.0,0.0,0.0,0.0,0.0,0.0,0.0,0.0,0.0,0.0,0.0,0.0,0.0,0.0,0.0,0.0,0.0,0.0,0.0,0.0,0.0,0.0,0.0,0.0,0.0,0.0,0.0,0.0,0.0,0.0,0.0,0.0,0.0,0.0,0.0,0.0,0.0,0.0,0.0,0.0,0.0,0.0,0.0,0.0,0.0,0.0,0.0,0.0,0.0,0.0,0.0,0.0,0.0,0.0,0.0,0.0,0.0,0.0,0.0,0.0,0.0,0.0,0.0,0.0,0.0,0.0,0.0,0.0,0.0,0.0,0.0,0.0,0.0,0.0,0.0,0.0,0.0,0.0,0.0,0.0,0.0,0.0,0.0,0.0,0.0,0.0,0.0,0.0,0.0,0.0,0.0,0.8341,0.8771,0.9126,0.9047,0.8936,0.884,0.8557,0.8367,0.8286,0.0,0.0,0.0,0.0,0.0,0.0,0.0,0.0,0.0,0.0,0.0,0.0,0.0,0.0,0.0,0.0,0.0,0.0,0.0,0.0,0.0,0.0,0.0,0.0,0.0,0.0,0.0,0.0,0.0,0.0,0.0,0.0,0.0,0.0,0.0,0.0,0.0,0.0,0.0,0.0,0.0,0.0,0.0,0.0,0.0,0.0,0.0,0.0,0.0,0.0,0.0,0.0,0.0,0.0,0.0,0.0,0.0,0.0,0.0,0.0,0.0,0.0,0.0,0.0,0.0,0.0,0.0,0.0,0.0,0.0,0.0,0.0,0.0,0.0,0.0,0.0,0.0,0.0,0.0,0.0,0.0,0.0,0.0,0.0,0.0,0.0,0.0,0.0,0.0,0.0,0.0,0.0,0.0,0.0,0.0,0.0,0.0,0.0,0.0,0.0,0.0,0.0,0.8123,0.8363,0.8595,0.9046,0.8984,0.8897,0.8897,0.8594,0.8409,0.8409,0.0,0.0,0.0,0.0,0.0,0.0,0.0,0.0,0.0,0.0,0.0,0.0,0.0,0.0,0.0,0.0,0.0,0.0,0.0,0.0,0.0,0.0,0.0,0.0,0.0,0.0,0.0,0.0,0.0,0.0,0.0,0.0,0.0,0.0,0.0,0.0,0.0,0.0,0.0,0.0,0.0,0.0,0.0,0.0,0.0,0.0,0.0,0.0,0.0,0.0,0.0,0.0,0.0,0.0,0.0,0.0,0.0,0.0,0.0,0.0,0.0,0.0,0.0,0.0,0.0,0.0,0.0,0.0,0.0,0.0,0.0,0.0,0.0,0.0,0.0,0.0,0.0,0.0,0.0,0.0,0.0,0.0,0.0,0.0,0.0,0.0,0.0,0.0,0.0,0.0,0.0,0.0,0.0,0.0,0.0,0.0,0.0,0.0,0.0,0.0,0.0,0.0,0.8206,0.877,0.9093,0.9093,0.8984,0.8897,0.8897,0.8594,0.8409,0.0,0.0,0.0,0.0,0.0,0.0,0.0,0.0,0.0,0.0,0.0,0.0,0.0,0.0,0.0,0.0,0.0,0.0,0.0,0.0,0.0,0.0,0.0,0.0,0.0,0.0,0.0,0.0,0.0,0.0,0.0,0.0,0.0,0.0,0.0,0.0,0.0,0.0,0.0,0.0,0.0,0.0,0.0,0.0,0.0,0.0,0.0,0.0,0.0,0.0,0.0,0.0,0.0,0.0,0.0,0.0,0.0,0.0,0.0,0.0,0.0,0.0,0.0,0.0,0.0,0.0,0.0,0.0,0.0,0.0,0.0,0.0,0.0,0.0,0.0,0.0,0.0,0.0,0.0,0.0,0.0,0.0,0.0,0.0,0.0,0.0,0.0,0.0,0.0,0.0,0.0,0.0,0.0,0.0,0.0,0.0,0.0,0.0,0.0,0.0,0.0,0.0,0.0,0.8837,0.9071,0.9057,0.8974,0.8925,0.8897,0.8897,0.8594,0.8409,0.8409,0.0,0.0,0.0,0.0,0.0,0.0,0.0,0.0,0.0,0.0,0.0,0.0,0.0,0.0,0.0,0.0,0.0,0.0,0.0,0.0,0.0,0.0,0.0,0.0,0.0,0.0,0.0,0.0,0.0,0.0,0.0,0.0,0.0,0.0,0.0,0.0,0.0,0.0,0.0,0.0,0.0,0.0,0.0,0.0,0.0,0.0,0.0,0.0,0.0,0.0,0.0,0.0,0.0,0.0,0.0,0.0,0.0,0.0,0.0,0.0,0.0,0.0,0.0,0.0,0.0,0.0,0.0,0.0,0.0,0.0,0.0,0.0,0.0,0.0,0.0,0.0,0.0,0.0,0.0,0.0,0.0,0.0,0.0,0.0,0.0,0.0,0.0,0.0,0.0,0.0,0.0,0.0,0.0,0.0,0.0,0.0,0.0,0.0,0.0,0.0,0.0,0.0,0.9095,0.9129,0.8995,0.8908,0.8858,0.8823,0.8823,0.8485,0.8176,0.7941,0.0,0.0,0.0,0.0,0.0,0.0,0.0,0.0,0.0,0.0,0.0,0.0,0.0,0.0,0.0,0.0,0.0,0.0,0.0,0.0,0.0,0.0,0.0,0.0,0.0,0.0,0.0,0.0,0.0,0.0,0.0,0.0,0.0,0.0,0.0,0.0,0.0,0.0,0.0,0.0,0.0,0.0,0.0,0.0,0.0,0.0,0.0,0.0,0.0,0.0,0.0,0.0,0.0,0.0,0.0,0.0,0.0,0.0,0.0,0.0,0.0,0.0,0.0,0.0,0.0,0.0,0.0,0.0,0.0,0.0,0.0,0.0,0.0,0.0,0.0,0.0,0.0,0.0,0.0,0.0,0.0,0.0,0.0,0.0,0.0,0.0,0.0,0.0,0.0,0.0,0.0,0.0,0.0,0.0,0.0,0.0,0.0,0.0,0.0,0.0,0.0,0.0,0.9085,0.9057,0.8897,0.8897,0.8789,0.8717,0.8699,0.8351,0.788,0.7322,0.0,0.0,0.0,0.0,0.0,0.0,0.0,0.0,0.0,0.0,0.0,0.0,0.0,0.0,0.0,0.0,0.0,0.0,0.0,0.0,0.0,0.0,0.0,0.0,0.0,0.0,0.0,0.0,0.0,0.0,0.0,0.0,0.0,0.0,0.0,0.0,0.0,0.0,0.0,0.0,0.0,0.0,0.0,0.0,0.0,0.0,0.0,0.0,0.0,0.0,0.0,0.0,0.0,0.0,0.0,0.0,0.0,0.0,0.0,0.0,0.7655,0.8691,0.0,0.0,0.0,0.0,0.0,0.0,0.0,0.0,0.0,0.0,0.0,0.0,0.0,0.0,0.0,0.0,0.0,0.0,0.0,0.0,0.0,0.0,0.0,0.0,0.0,0.0,0.0,0.0,0.0,0.0,0.0,0.0,0.0,0.0,0.0,0.0,0.0,0.0,0.0,0.0,0.9076,0.9057,0.8897,0.8897,0.8869,0.8818,0.8711,0.8469,0.821,0.7929,0.6648,0.0,0.0,0.0,0.0,0.0,0.0,0.0,0.0,0.0,0.0,0.0,0.0,0.0,0.0,0.0,0.0,0.0,0.0,0.0,0.0,0.0,0.0,0.0,0.0,0.0,0.0,0.0,0.0,0.0,0.0,0.0,0.0,0.0,0.0,0.0,0.0,0.0,0.0,0.0,0.0,0.0,0.0,0.0,0.0,0.0,0.0,0.0,0.0,0.0,0.0,0.0,0.0,0.0,0.0,0.0,0.0,0.0,0.0,0.0,0.9009,0.9702,0.0,0.0,0.0,0.0,0.0,0.0,0.0,0.0,0.0,0.0,0.0,0.0,0.0,0.0,0.0,0.0,0.0,0.0,0.0,0.0,0.0,0.0,0.0,0.0,0.0,0.0,0.0,0.0,0.0,0.0,0.0,0.0,0.0,0.0,0.0,0.0,0.0,0.0,0.0,0.0,0.9044,0.9033,0.8897,0.8897,0.876,0.863,0.8561,0.8318,0.7969,0.7544,0.6806,0.0,0.0,0.0,0.0,0.0,0.0,0.0,0.0,0.0,0.0,0.0,0.0,0.0,0.0,0.0,0.0,0.0,0.0,0.0,0.0,0.0,0.0,0.0,0.0,0.0,0.0,0.0,0.0,0.0,0.0,0.0,0.0,0.0,0.0,0.0,0.0,0.0,0.0,0.0,0.0,0.0,0.0,0.0,0.0,0.0,0.0,0.0,0.0,0.0,0.0,0.0,0.0,0.0,1.1806,1.0543,1.0543,1.0543,1.0543,1.0543,1.0543,1.0543,1.0488,0.9937,0.0,0.0,0.0,0.0,0.0,0.0,0.0,0.0,0.0,0.0,0.0,0.0,0.0,0.0,0.0,0.0,0.0,0.0,0.0,0.0,0.0,0.0,0.0,0.0,1.1056,1.0764,0.972,0.0,0.0,0.0,0.0,0.0,0.0,0.0,0.0,0.0,0.0,0.0,0.91,0.9145,0.9072,0.8991,0.8784,0.8563,0.837,0.8087,0.7687,0.7107,0.6966,0.6463,0.0,0.0,0.0,0.0,0.0,0.0,0.0,0.0,0.0,0.0,0.0,0.0,0.0,0.0,0.0,0.0,0.0,0.0,0.0,0.0,0.0,0.0,0.0,0.0,0.0,0.0,0.0,0.0,0.0,0.0,0.0,0.0,0.7482,0.889,0.0,0.0,0.0,0.0,0.0,0.0,0.0,0.0,0.0,0.0,0.0,0.0,0.0,1.0094,1.0094,1.2639,1.4121,1.4493,1.4071,1.387,1.387,1.387,1.387,1.387,1.387,0.0,1.3649,1.0851,0.0,0.0,0.0,0.0,0.0,0.0,0.0,0.0,0.0,0.0,0.0,0.0,0.0,0.0,0.0,0.0,0.0,0.0,0.0,0.0,0.0,0.0,1.2067,1.1078,1.0831,1.0737,1.0341,0.9759,0.927,0.9061,0.8045,0.7114,0.0,0.0,0.0,0.0,0.0,0.0,0.9536,0.9796,0.9711,0.9368,0.9511,0.9224,0.8225,0.8104,0.7977,0.7786,0.7227,0.7077,0.7495,0.6532,0.0,0.0,0.0,0.0,0.0,0.0,0.0,0.0,0.0,0.0,0.0,0.0,0.0,0.0,0.0,0.0,0.0,0.0,0.0,0.0,0.0,0.0,0.0,0.0,0.0,0.0,0.0,0.0,0.0,0.6806,0.8002,0.8717,0.9335,0.9129,0.0,0.0,0.0,0.0,0.0,0.0,0.0,0.0,0.0,1.2516,1.2572,1.2572,1.2572,1.3845,1.4622,1.4881,1.4635,1.4493,1.4493,1.4493,1.4493,1.4493,1.4493,1.4493,1.4383,1.2976,1.1328,0.9702,0.0,0.0,0.0,0.0,0.9702,0.9955,1.1769,1.3319,1.4493,1.4493,0.0,0.0,0.0,0.0,0.0,0.0,0.0,1.3663,0.0,0.0,1.364,1.3291,1.3214,1.313,1.283,1.1822,1.0815,1.0253,1.0075,0.9588,0.8352,0.8386,0.0,0.0,0.0,0.9055,1.0013,1.0181,1.0169,0.9986,0.9962,0.9616,0.874,0.859,0.8364,0.7936,0.7623,0.7428,0.7338,0.7137,0.6801,0.0,0.0,0.0,0.0,0.0,0.0,0.0,0.0,0.0,0.0,0.0,0.0,0.0,0.0,0.0,0.0,0.0,0.0,0.0,0.0,0.0,0.0,0.0,0.0,0.0,0.0,0.0,0.0,0.7629,0.8508,0.8518,0.9463,0.9992,0.0,0.0,0.0,0.0,0.0,0.0,1.4365,1.2223,1.2021,1.442,1.4493,1.4493,1.4493,1.4493,1.4673,1.5015,1.4663,1.4493,1.4493,1.4493,1.4493,1.4493,1.4493,1.4493,1.4493,1.4493,1.3086,1.0925,1.0925,1.0925,1.0925,1.0925,1.0925,1.1273,1.3668,1.5044,1.5594,1.4769,1.4493,1.4493,1.4493,0.0,0.0,0.0,0.0,1.5046,1.5046,1.4651,1.435,1.4636,1.4669,1.4556,1.4304,1.3457,1.246,1.1499,1.1621,1.1376,0.9721,0.9803,0.0,0.9103,0.9361,0.9883,1.0505,1.0634,1.06,1.0419,1.0307,0.9927,0.9118,0.8956,0.8624,0.7988,0.8004,0.7738,0.7109,0.7617,0.7428,0.6437,0.0,0.0,0.0,0.0,0.0,0.0,0.0,0.0,0.0,0.0,0.0,0.0,0.0,0.0,0.0,0.0,0.0,0.0,0.0,0.0,0.0,0.0,0.0,0.0,0.0,0.0,0.0,0.0,0.0,0.9629,1.058,0.0,0.0,0.0,0.0,0.9702,1.2535,1.4328,1.4493,1.4347,1.4328,1.4493,1.4493,1.4493,1.4493,1.4493,1.4505,1.4539,1.4505,1.4493,1.4493,1.4493,1.4493,1.4493,1.4493,1.4493,1.4493,1.4493,1.4402,1.4255,1.4255,1.4255,1.4255,1.4255,1.4255,1.4273,1.4438,1.65,1.8544,1.5484,1.4493,1.4493,1.4493,1.4383,0.0,0.0,1.337,1.3515,1.3515,1.3292,1.3198,1.3571,1.3472,1.3291,1.3273,1.3355,1.3259,1.2559,1.1385,1.0479,1.0359,0.0,1.0359,1.0311,1.0335,1.052,1.1002,1.1289,1.1178,1.0461,1.0564,1.0201,0.9006,0.8906,0.8666,0.813,0.8273,0.8138,0.7583,0.7775,0.7869,0.7809,0.6541,0.0,0.0,0.0,0.0,0.0,0.0,0.0,0.0,0.0,0.0,0.0,0.0,0.0,0.0,0.0,0.0,0.0,0.0,0.0,0.0,0.0,0.0,0.0,0.0,0.0,0.0,0.0,0.0,1.1113,1.1586,0.0,1.1273,1.1237,1.1677,1.2719,1.3851,1.4493,1.4493,1.4493,1.4493,1.4493,1.4493,1.4493,1.4493,1.4493,1.4493,1.4493,1.4493,1.4493,1.4476,1.4012,1.3789,1.3789,1.3789,1.3789,1.3789,1.3789,1.4074,1.4642,1.6077,1.6618,1.6618,1.6618,1.7023,1.7582,1.7582,1.8342,1.9113,1.795,1.7582,1.7582,1.7582,1.7147,1.6579,1.6312,1.486,1.3396,1.3396,1.3901,1.4396,1.4336,1.3941,1.3612,1.3748,1.3357,1.3018,1.3121,1.2665,1.2013,1.1172,1.0941,1.0691,1.0269,1.0137,1.0294,1.0893,1.1042,1.1013,1.0751,1.079,1.0475,0.9618,0.9542,0.9141,0.8163,0.8166,0.7949,0.7376,0.7583,0.7709,0.7709,0.6819,0.6349,0.0,0.0,0.0,0.0,0.0,0.0,0.0,0.0,0.0,0.0,0.0,0.0,0.0,0.0,0.0,0.0,0.0,0.0,0.0,0.0,0.0,0.0,0.0,0.0,0.0,1.0393,1.1217,1.2008,1.2572,1.2701,1.215,1.259,1.3356,1.442,1.4493,1.4493,1.4493,1.4493,1.4493,1.4493,1.4493,1.4493,1.4493,1.4493,1.4493,1.4493,1.4493,1.4493,1.4476,1.3991,1.363,1.3396,1.3396,1.3396,1.3396,1.3396,1.3692,1.4263,1.574,1.6323,1.6441,1.7428,1.7748,1.7674,1.7674,1.8397,1.9297,1.9297,1.9063,1.8789,1.8789,1.8336,1.7597,1.661,1.4781,1.3156,1.32,1.3712,1.4154,1.4061,1.3809,1.3625,1.3714,1.3409,1.3119,1.314,1.308,1.2767,1.1915,1.1654,1.1432,1.0991,1.0689,1.0672,1.1109,1.1009,1.0861,1.0739,1.0727,1.0505,0.9947,0.9897,0.9404,0.8236,0.8232,0.791,0.7131,0.7332,0.7462,0.7462,0.6829,0.6391,0.6167,0.0,0.0,0.0,0.0,0.0,0.0,0.0,0.0,0.0,0.0,0.0,0.0,0.0,0.0,0.0,0.0,0.0,0.0,0.0,0.0,0.0,0.0,0.0,0.981,1.182,1.3023,1.226,1.3539,1.3888,1.2333,1.3594,1.4493,1.4493,1.4493,1.4499,1.4522,1.4505,1.4493,1.4493,1.4493,1.4493,1.4493,1.4493,1.4493,1.4493,1.4493,1.4493,1.4493,1.4493,1.4094,1.3396,1.3396,1.3396,1.3396,1.3396,1.3396,1.3396,1.3396,1.3396,1.3752,1.661,1.6326,1.4493,1.4493,1.6536,1.915,1.9127,1.8465,1.7665,1.7665,1.7665,1.7067,1.42,1.3033,1.2658,1.282,1.2536,1.2271,1.2584,1.2889,1.3092,1.2983,1.3398,1.3517,1.256,1.2434,1.247,1.247,1.247,1.247,1.247,1.2034,0.0,1.1706,1.1223,1.0767,1.0435,1.0385,1.0248,0.9906,0.988,0.9416,0.8341,0.8463,0.8064,0.6948,0.7099,0.7191,0.7183,0.6605,0.5963,0.53,0.0,0.0,0.0,0.0,0.0,0.0,0.0,0.0,0.0,0.0,0.0,0.0,0.0,0.0,0.0,0.0,0.0,0.0,0.0,0.0,0.0,1.164,1.2981,1.2395,1.2886,1.3427,1.3796,1.4237,1.4328,1.3888,1.4237,1.4493,1.4493,1.4493,1.4642,1.4992,1.4683,1.4493,1.4493,1.4493,1.4493,1.4493,1.4493,1.4493,1.4493,1.4493,1.4493,1.4493,1.4493,1.4094,1.3396,1.3396,1.3396,1.3396,1.3396,1.3396,1.3396,1.3396,1.3396,1.3498,1.4302,1.4553,1.4493,1.4493,1.508,1.5726,1.5208,1.4839,1.4606,1.4606,1.4606,1.4437,1.3633,1.3286,1.3007,1.2291,1.219,1.2215,1.2016,1.1754,1.1558,1.1668,1.1636,1.1636,1.1794,1.1827,1.1846,1.1846,1.1846,1.1846,1.1846,1.1717,1.1627,1.1627,1.1126,1.0726,1.0619,1.0276,0.9906,0.9567,0.9528,0.898,0.7657,0.781,0.7681,0.7068,0.7143,0.71,0.6913,0.6465,0.5864,0.0,0.0,0.0,0.0,0.0,0.0,0.0,0.0,0.0,0.0,0.0,0.0,0.0,0.0,0.0,0.0,0.0,0.0,0.0,0.0,0.0,0.0,1.2716,1.4186,1.3743,1.3745,1.3985,1.4438,1.4493,1.4493,1.4493,1.4493,1.4493,1.4493,1.4493,1.4624,1.4881,1.4661,1.4493,1.4493,1.4493,1.4493,1.4493,1.4187,1.4187,1.4506,1.418,1.4193,1.4493,1.4493,1.4094,1.3396,1.3396,1.3396,1.3396,1.3396,1.4133,0.0,0.0,0.0,0.0,0.0,1.3669,1.4039,1.4039,1.4039,1.397,1.3544,1.3396,1.3633,1.4877,1.486,1.4411,1.4411,1.3601,1.2591,1.1961,1.2044,1.2164,1.1626,1.1422,1.1282,1.1041,1.1051,1.1111,1.1211,1.1224,0.0,1.1224,1.1425,1.1603,1.1603,1.1603,1.1603,1.1603,1.1286,1.1071,1.1071,1.0797,1.0371,0.9795,0.973,0.0,0.0,0.0,0.7623,0.716,0.7178,0.0,0.0,0.0,0.0,0.0,0.0,0.0,0.0,0.6035,0.6358,0.0,0.0,0.0,0.0,0.0,0.0,0.0,0.0,0.0,0.0,0.0,0.0,0.0,0.0,0.0,0.0,1.3257,1.4136,1.4214,1.4387,1.4493,1.4493,1.4493,1.4493,1.4493,1.4493,1.4493,1.4493,1.4493,1.4493,1.4493,1.4493,0.0,0.0,0.0,1.4493,1.4493,1.3759,1.3738,1.4362,1.3715,1.3736,1.4387,1.4726,1.4531,1.3904,1.3904,1.3904,1.3904,1.3904,1.5443,1.7512,1.4742,1.5341,1.7479,1.486,1.3904,1.3904,1.3904,0.0,0.0,1.3904,1.3904,1.4359,1.6836,1.6747,1.5799,1.5799,1.4092,1.2239,1.2239,1.2402,1.2352,1.1575,1.1696,1.1769,1.0891,1.1109,1.1324,1.0733,1.0606,1.0606,1.0564,1.1053,1.1482,1.1575,1.1558,1.1558,1.1588,1.154,1.1472,1.1442,0.0,0.0,1.0132,1.0053,0.9461,0.8055,0.7969,0.7739,0.7239,0.724,0.7229,0.7193,0.7139,0.7107,0.7107,0.7107,0.7162,0.7231,0.6839,0.7117,0.0,0.0,0.0,0.0,0.0,0.0,0.0,0.0,0.0,0.0,0.0,0.0,0.0,0.0,0.0,1.3428,1.3906,1.4175,1.4405,1.4476,1.4493,1.4493,1.4493,1.4493,1.4493,1.4493,1.4493,1.4493,1.4493,1.4493,1.4493,1.4493,1.4493,1.4493,1.4493,1.4493,1.4493,1.3759,1.3462,1.3606,1.3479,0.0,1.3693,1.6085,1.7089,1.6948,1.6948,1.6948,1.6948,1.6948,1.7293,1.7631,1.5866,1.6255,1.7732,1.7157,1.6948,1.6948,1.6948,1.6948,1.6948,1.6948,1.6948,1.6848,1.6341,1.6011,0.0,1.5799,1.5424,1.5034,1.5034,1.4559,1.3808,1.2736,1.2237,1.1769,1.0891,1.0795,1.072,1.0169,1.0056,0.9964,0.9699,1.0105,1.0729,1.1482,1.132,1.1229,1.1558,1.1186,1.0769,1.0498,1.0069,0.9643,0.9189,0.915,0.8761,0.7828,0.7703,0.7584,0.7364,0.7464,0.7397,0.712,0.6741,0.6563,0.6563,0.6563,0.6888,0.7517,0.7223,0.7181,0.0,0.0,0.0,0.0,0.0,0.0,0.0,0.0,0.0,0.0,0.0,1.0228,1.0843,0.0,1.2457,1.3574,1.3827,1.3948,1.4072,1.432,1.4493,1.4493,1.4493,1.4493,1.4493,1.4493,1.4493,1.4493,1.4493,1.4493,1.4493,1.4493,1.4493,1.4493,1.4493,1.4319,1.3956,1.5053,1.5595,1.5595,1.5595,1.5595,1.5646,1.7124,1.78,1.78,1.78,1.78,1.7789,1.7549,1.7455,1.7361,1.6533,1.6858,1.78,1.78,1.7589,1.7301,1.7301,1.7301,1.7301,1.7301,1.7064,1.6683,1.6011,1.5799,1.5799,1.5799,1.5799,1.5799,1.5799,1.5149,1.4139,1.2731,1.2114,1.1588,1.0614,1.0402,1.0264,0.9801,0.9694,0.957,0.9162,0.9183,0.9463,1.0104,1.0264,1.0444,1.0856,1.071,1.0606,1.0606,1.0206,0.9686,0.9054,0.8567,0.8119,0.772,0.7675,0.7615,0.756,0.7615,0.756,0.7398,0.7174,0.7057,0.7057,0.7057,0.7259,0.7646,0.7517,0.7561,0.0,0.0,0.0,0.0,0.0,0.0,0.0,0.9167,0.971,1.059,1.095,1.1236,1.1712,1.2197,1.2727,1.3369,1.3565,1.3663,1.3721,1.4116,1.4405,1.4482,1.4493,1.4493,1.4493,1.4493,1.4441,1.4301,1.435,1.4381,1.4381,1.4678,1.4829,1.4829,1.4747,1.458,1.426,1.661,1.78,1.78,1.78,1.78,1.78,1.78,1.78,1.7789,1.7658,1.7612,1.7577,1.7199,1.7039,1.7027,1.685,1.713,1.7612,1.7647,1.7325,1.6841,1.6659,1.6607,1.6607,1.6607,1.6246,1.5799,1.5799,1.5799,1.5799,1.5799,1.5799,1.5799,1.5799,1.5119,1.4085,1.2729,1.2119,1.159,1.0612,1.0321,1.0128,0.9699,0.9626,0.9474,0.9031,0.8656,0.8503,0.8759,0.911,0.9513,0.9985,1.0187,1.0367,1.0554,1.0325,0.9841,0.9024,0.8274,0.7837,0.7837,0.7744,0.7695,0.7695,0.7695,0.7695,0.7695,0.7695,0.7695,0.7695,0.7695,0.7695,0.7695,0.7695,0.7875,0.9213,0.9267,0.9056,0.9148,0.92,0.9773,0.0,1.1846,1.174,1.2677,1.3078,1.3169,1.2877,1.3083,1.3352,1.3615,1.3551,1.3543,1.3842,1.3934,1.411,1.4458,1.4493,1.4493,1.4493,1.4493,1.4237,1.3576,1.3801,1.3969,1.3969,1.5266,1.6013,1.6013,1.5652,1.6067,1.7304,1.7631,1.78,1.78,1.78,1.78,1.78,1.78,1.78,1.7777,1.7179,1.6917,1.6904,1.6853,1.6841,1.6828,1.6802,1.6853,1.693,1.7113,1.7138,1.6964,1.6191,1.5912,1.5912,1.5912,1.587,1.5799,1.5799,1.5799,1.5799,1.5799,1.5799,1.5799,1.5799,1.4968,1.409,1.3899,1.312,1.2253,1.1647,1.1149,1.067,1.0134,1.0019,0.9912,0.9573,0.913,0.8831,0.88,0.8594,0.8708,0.9397,0.9512,0.9398,0.9082,0.9012,0.8854,0.8513,0.8377,0.8326,0.8326,0.7924,0.7695,0.7695,0.7695,0.7695,0.7695,0.7695,0.7695,0.7695,0.7695,0.7695,0.7695,0.7695,0.7725,0.9726,1.0008,1.012,1.045,1.0979,1.1641,1.2571,1.2735,1.2822,1.333,1.3689,1.3759,1.3316,1.3329,1.3438,1.3519,1.3454,1.3455,1.3598,1.398,1.4791,1.6256,1.4905,1.3942,1.4129,1.4149,1.4011,1.3711,1.4433,1.4813,1.4655,1.5819,1.6482,1.6482,1.6334,1.6751,1.7783,1.78,1.78,1.78,1.78,1.78,1.78,1.78,1.7356,1.6617,1.634,1.6351,1.656,1.6541,1.6349,1.6112,1.6188,1.605,1.5908,1.6654,1.6799,1.6578,1.6219,1.5955,1.5799,1.5799,1.5799,1.5799,1.5799,1.5799,1.5799,1.5799,1.5799,1.5726,1.5374,1.469,1.3989,1.3604,1.2782,1.1954,1.1404,1.089,1.0388,0.99,0.9801,0.9685,0.9305,0.9097,0.8955,0.8921,0.8359,0.8148,0.869,0.8551,0.834,0.818,0.8166,0.8119,0.7994,0.7998,0.7998,0.7998,0.7817,0.7695,0.7695,0.7695,0.7695,0.7695,0.7695,0.7695,0.7695,0.7695,0.7695,0.7695,0.7695,0.7583,0.9776,1.0232,1.08,1.1456,1.2297,1.2963,1.305,1.3329,1.3557,1.3595,1.3852,1.393,1.3481,1.3396,1.3396,1.3396,1.3396,1.3396,1.3396,1.3855,1.5099,1.7504,1.5917,1.4511,1.4197,1.3981,1.3943,1.4158,1.4916,1.5357,1.5314,1.6193,1.6693,1.6693,1.689,1.7261,1.7783,1.78,1.78,1.78,1.7612,1.7514,1.7531,1.732,1.6722,1.5799,1.5799,1.5839,1.5891,1.5936,1.5709,1.5316,1.5404,1.5225,1.5029,1.585,1.6159,1.6163,1.6163,1.5911,1.561,1.561,1.5536,1.5463,1.558,1.561,1.5624,1.5755,1.5799,1.5668,1.5104,1.458,1.4022,1.3276,1.2437,1.1664,1.1113,1.063,1.0205,0.9854,0.9786,0.9698,0.9414,0.9258,0.9162,0.9162,0.8538,0.8213,0.8609,0.8298,0.7985,0.788,0.7768,0.7695,0.7695,0.7695,0.7695,0.7695,0.7695,0.7695,0.7695,0.7695,0.7695,0.7695,0.7695,0.7695,0.7695,0.7695,0.7695,0.7695,0.7583,0.7373,0.9595,1.0228,1.1216,1.2221,1.2883,1.3373,1.3702,1.3974,1.4058,1.368,1.3802,1.3889,1.3472,1.3396,1.3396,1.3396,1.3396,1.3396,1.3396,1.3421,1.4515,1.7445,1.7715,1.6931,1.5056,1.4158,1.4034,1.4813,1.4847,1.5053,1.5557,1.6292,1.6692,1.6692,1.7382,1.7777,1.78,1.78,1.78,1.7789,1.7142,1.6828,1.6802,1.615,1.5842,1.5799,1.5799,1.5329,1.4596,1.4968,1.4907,1.4533,1.4549,1.4533,1.4517,1.4564,1.509,1.5813,1.5813,1.5507,1.5119,1.5119,1.486,1.4611,1.5013,1.5119,1.521,1.5668,1.5799,1.5682,1.521,1.4783,1.4251,1.3327,1.2437,1.1664,1.1113,1.063,1.0293,1.0283,1.0283,1.0273,1.0263,0.9874,0.9573,0.9573,0.9231,0.91,0.9507,0.9161,0.8713,0.8318,0.7932,0.7695,0.7695,0.7695,0.7695,0.7695,0.7695,0.7695,0.7695,0.7695,0.7695,0.7695,0.7695,0.7695,0.7695,0.7695,0.7695,0.7695,0.7305,0.7118,1.065,1.1474,1.2151,1.2809,1.3405,1.3833,1.3795,1.4038,1.428,1.4322,1.4265,1.4044,1.3506,1.3396,1.3396,1.3396,1.3396,1.3396,1.3396,1.3396,1.434,1.6836,1.6387,1.5651,1.5091,1.4553,1.434,1.4614,1.5069,1.5622,1.6292,1.6814,1.7096,1.7096,1.7121,1.7142,1.7142,1.7142,1.7142,1.713,1.6732,1.6389,1.6122,1.5898,1.5799,1.5799,1.5799,1.5624,1.5314,1.469,1.4358,1.4246,1.4438,1.4342,1.4133,1.4406,1.469,1.4937,1.4937,1.483,1.4705,1.4705,1.4611,1.4533,1.4658,1.4705,1.4737,1.4891,1.4937,1.483,1.4406,1.4198,1.3871,1.2916,1.2241,1.1664,1.1113,1.063,1.0303,1.0303,1.0303,1.0303,1.0303,1.0175,1.0059,1.0059,0.9463,0.9055,0.919,0.9067,0.8918,0.8778,0.8639,0.8457,0.8184,0.8164,0.8037,0.7715,0.7695,0.7695,0.7695,0.7695,0.7695,0.7695,0.7695,0.7695,0.7695,0.7695,0.7695,0.7695,0.729,0.6961,1.1258,1.1898,1.2266,1.2895,1.344,1.3719,1.3357,1.3782,1.4183,1.3862,1.4041,1.4094,1.3514,1.3396,1.3396,1.3396,1.3396,1.3583,1.4116,1.3578,1.4058,1.66,1.5767,1.5116,1.5452,1.5263,1.5047,1.49,1.5578,1.6264,1.6875,1.7166,1.7248,1.7126,1.6917,1.6802,1.6802,1.6802,1.6738,1.662,1.6443,1.616,1.5799,1.5799,1.5799,1.5799,1.5799,1.5448,1.483,1.4422,1.3924,1.3458,1.3848,1.3745,1.3472,1.4098,1.433,1.4366,1.4459,1.4406,1.4294,1.4294,1.4165,1.4068,1.423,1.4294,1.4326,1.4454,1.4376,1.4141,1.3716,1.3496,1.314,1.2187,1.1726,1.1375,1.0859,1.0505,1.0303,1.0303,1.0303,1.0303,1.0303,1.0303,1.0303,1.0303,0.9833,0.9404,0.9231,0.9211,0.9153,0.9023,0.9004,0.8896,0.8639,0.862,0.8486,0.8188,0.8032,0.7944,0.7944,0.7798,0.7695,0.7695,0.7695,0.7695,0.7695,0.7554,0.7486,0.7471,0.6925,0.6585,1.1387,1.1562,1.1616,1.2498,1.2975,1.3055,1.2435,1.3223,1.3733,1.2515,1.3188,1.3876,1.3446,1.3388,1.3371,1.3303,1.3354,1.3921,1.5358,1.3919,1.3783,1.6723,1.5939,1.5424,1.6084,1.6207,1.6061,1.5637,1.6268,1.6869,1.7271,1.7243,1.706,1.6763,1.6696,1.667,1.667,1.667,1.6512,1.6203,1.6203,1.6066,1.5799,1.5799,1.5755,1.5668,1.5668,1.4737,1.3267,1.4084,1.3529,1.223,1.2827,1.2826,1.2644,1.3611,1.4009,1.4138,1.4382,1.423,1.396,1.3927,1.3591,1.3325,1.373,1.3847,1.3934,1.4287,1.4071,1.362,1.3145,1.2699,1.214,1.1223,1.0981,1.0829,1.0351,1.0244,1.0225,1.0225,1.0244,1.0264,1.0303,1.0303,1.0303,1.0303,1.0303,1.0137,0.9698,0.9631,0.9494,0.9111,0.9072,0.9062,0.9043,0.9043,0.9023,0.9004,0.8649,0.8424,0.8424,0.7993,0.7749,0.7734,0.7734,0.7719,0.769,0.7295,0.7113,0.7098,0.6315,0.6067,1.1428,1.1582,1.1563,1.1601,1.1857,1.2142,1.2261,1.2358,1.2533,1.2945,1.219,1.1771,1.2831,1.3234,1.3067,1.2066,1.2757,1.3794,1.4919,1.4461,1.465,1.6378,1.6181,1.5798,1.5486,1.6189,1.6378,1.5723,1.6082,1.6607,1.7275,1.6496,1.5984,1.5902,1.5375,1.5092,1.5092,1.5092,1.5046,1.4969,1.4969,1.5255,1.5799,1.5799,1.5089,1.3868,1.3868,1.3615,1.3215,1.3442,1.282,1.1788,1.2187,1.2571,1.2892,1.3159,1.3579,1.4028,1.4102,1.4337,1.4569,1.4123,1.3886,1.3732,1.3341,1.3232,1.319,1.2977,1.2852,1.2659,1.2232,1.2043,1.1788,1.114,1.0695,1.0292,0.9814,0.9399,0.9099,0.9099,0.9439,0.9834,1.0235,1.0303,1.0303,1.0303,1.0303,1.0263,1.0146,1.0117,1.0078,0.999,0.998,0.9824,0.9484,0.9455,0.9318,0.9023,0.8906,0.8848,0.8848,0.874,0.8475,0.8083,0.8075,0.7865,0.7484,0.7373,0.7322,0.7313,0.6806,0.6371,1.1563,1.1603,1.1446,1.079,1.1071,1.1424,1.1164,1.149,1.1782,1.1561,1.0967,1.0722,1.1447,1.2,1.2155,1.157,1.2463,1.3652,1.4866,1.4622,1.4936,1.6599,1.6212,1.5838,1.5902,1.6305,1.6475,1.6189,1.6358,1.6569,1.686,1.6054,1.5534,1.5389,1.4817,1.4501,1.4501,1.4501,1.4501,1.4501,1.4501,1.4752,1.524,1.5624,1.4845,1.3248,1.4231,1.4052,1.3103,1.3646,1.3043,1.1824,1.2268,1.256,1.2742,1.3184,1.3606,1.4,1.4219,1.4533,1.4723,1.418,1.3997,1.3865,1.3187,1.3001,1.2935,1.2742,1.2401,1.1994,1.152,1.1098,1.0667,1.0118,0.9767,0.9471,0.9211,0.8918,0.8695,0.8695,0.9139,0.9597,0.9902,1.0137,1.0303,1.0303,1.0303,1.0215,0.9981,0.9942,0.9942,0.9942,0.9736,0.9486,0.922,0.9412,0.9451,0.9225,0.9019,0.8915,0.8915,0.8519,0.8158,0.7859,0.785,0.7709,0.7406,0.7219,0.7129,0.7129,0.6451,0.6019,1.1754,1.1603,1.1364,1.037,1.0676,1.0952,1.0051,1.078,1.1184,0.9534,0.9763,1.0114,0.9695,1.0353,1.1064,1.141,1.2322,1.3474,1.4856,1.4545,1.4909,1.6858,1.6107,1.5767,1.6583,1.6394,1.6326,1.6565,1.6578,1.6459,1.6215,1.5678,1.5183,1.4769,1.436,1.4138,1.4138,1.4138,1.4138,1.4138,1.42,1.4278,1.4358,1.5119,1.4711,1.3523,1.5447,1.5104,1.32,1.4095,1.3544,1.2178,1.2709,1.2682,1.2481,1.3369,1.377,1.395,1.4416,1.4629,1.4609,1.4126,1.3909,1.3723,1.3041,1.2776,1.269,1.2648,1.2038,1.1328,1.0806,1.0043,0.9279,0.8817,0.8643,0.8594,0.8594,0.8533,0.8492,0.8582,0.8958,0.9339,0.9478,0.9883,1.0225,1.0283,1.0244,1.002,0.9558,0.9498,0.9478,0.9399,0.8978,0.8695,0.8695,0.9119,0.9399,0.9399,0.9019,0.8786,0.8786,0.8,0.7551,0.7478,0.7459,0.7423,0.7342,0.693,0.6719,0.67,0.575,0.5373,1.1754,1.1603,1.1553,1.1351,1.1254,1.1176,1.1096,1.0688,1.0117,0.9365,0.906,0.8771,0.8266,0.9531,1.0672,1.0688,1.1996,1.3293,1.4163,1.4474,1.4931,1.5871,1.6072,1.6095,1.5982,1.5912,1.574,1.5419,1.5404,1.5492,1.5721,1.4744,1.3812,1.298,1.2508,1.2277,1.2277,1.2277,1.2277,1.2277,1.2649,1.3057,1.3425,1.3581,1.3992,1.4632,1.5009,1.4878,1.434,1.3549,1.303,1.2744,1.2866,1.2856,1.2833,1.2982,1.3369,1.3827,1.3935,1.4283,1.4607,1.4029,1.346,1.2879,1.2225,1.1613,1.1104,1.0776,1.0375,0.9945,0.9537,0.9127,0.8817,0.8716,0.8357,0.8036,0.8036,0.7648,0.744,0.7946,0.8118,0.8459,0.9339,0.9578,0.9784,1.0235,0.9922,0.9597,0.9518,0.9498,0.9339,0.8878,0.8756,0.8695,0.8695,0.8777,0.8837,0.8837,0.8758,0.8725,0.8725,0.8567,0.8274,0.782,0.7807,0.7577,0.7073,0.6564,0.6315,0.6294,0.5613,0.5058,1.189,1.1789,1.1952,1.1678,1.1507,1.1203,1.0392,0.9852,0.9217,0.8082,0.7778,0.7662,0.7513,0.8587,0.9698,1.0254,1.142,1.2691,1.3922,1.4724,1.5364,1.5903,1.632,1.6421,1.608,1.5898,1.561,1.5134,1.4907,1.4862,1.5017,1.4049,1.3191,1.2526,1.2029,1.1792,1.1792,1.1792,1.1792,1.1792,1.2029,1.2508,1.3198,1.3198,1.3466,1.3942,1.4353,1.425,1.3752,1.3491,1.3176,1.2905,1.2905,1.2905,1.2905,1.2905,1.3079,1.3324,1.3324,1.3515,1.3729,1.342,1.3078,1.2677,1.2003,1.1341,1.0755,1.0557,0.9971,0.9252,0.8724,0.8026,0.7446,0.7398,0.7419,0.7426,0.7426,0.6979,0.6668,0.6964,0.7252,0.7592,0.8105,0.8699,0.9179,0.9419,0.9239,0.8978,0.8695,0.8663,0.8561,0.8316,0.8,0.7807,0.7807,0.8103,0.8275,0.8275,0.8275,0.8275,0.8275,0.7979,0.7558,0.7027,0.7006,0.6725,0.6118,0.5846,0.5739,0.5723,0.5108,0.4674,1.2109,1.219,1.2624,1.2195,1.1827,1.123,0.9753,0.9171,0.8485,0.6921,0.6757,0.6969,0.717,0.7954,0.8956,1.01,1.1029,1.2146,1.3731,1.4725,1.5443,1.5806,1.6287,1.6474,1.6219,1.5955,1.558,1.5013,1.4408,1.4071,1.4071,1.3175,1.2448,1.2025,1.1653,1.1412,1.1319,1.1412,1.1479,1.1479,1.159,1.2,1.2738,1.2855,1.2943,1.3075,1.3707,1.3652,1.3128,1.3589,1.3443,1.2905,1.2905,1.2905,1.2905,1.2905,1.2905,1.2905,1.2905,1.2905,1.2905,1.2905,1.2662,1.2278,1.1756,1.1015,1.0338,1.0177,0.9454,0.855,0.7859,0.6917,0.6147,0.6194,0.6428,0.6677,0.681,0.6386,0.6007,0.6007,0.6346,0.6714,0.6966,0.775,0.8423,0.8655,0.8602,0.8329,0.778,0.7614,0.7489,0.7356,0.7126,0.7,0.7,0.7426,0.7663,0.7538,0.7538,0.7468,0.7356,0.6888,0.6444,0.6007,0.6007,0.5766,0.5303,0.5173,0.5108,0.5087,0.4504,0.422,1.2415,1.2839,1.3743,1.3707,1.2649,1.1391,1.0647,0.938,0.8035,0.6837,0.6757,0.6969,0.717,0.811,0.9234,1.0375,1.1155,1.2045,1.3295,1.396,1.4425,1.4713,1.5419,1.5885,1.5856,1.5827,1.5448,1.4627,1.3378,1.2679,1.2679,1.1752,1.095,1.0426,1.0428,1.0196,0.9707,1.0186,1.0438,1.0448,1.0867,1.1132,1.1215,1.1719,1.2396,1.3178,1.3253,1.3445,1.3732,1.3779,1.3443,1.2905,1.2905,1.2905,1.2905,1.2905,1.2905,1.2905,1.2905,1.2905,1.2905,1.2905,1.2024,1.0965,1.0914,0.9987,0.885,0.817,0.7737,0.7298,0.6569,0.5974,0.5677,0.6108,0.583,0.561,0.6157,0.5809,0.5394,0.5394,0.5432,0.5792,0.682,0.7092,0.7515,0.8545,0.8275,0.7759,0.7161,0.6656,0.6151,0.5604,0.6422,0.7,0.7,0.7042,0.6873,0.6392,0.6349,0.6109,0.5561,0.5497,0.5432,0.5394,0.5394,0.5351,0.5303,0.4757,0.4474,0.4478,0.3924,0.3667,1.3098,1.3322,1.3689,1.3857,1.292,1.165,1.0457,0.9206,0.7974,0.6837,0.6668,0.6782,0.698,0.7491,0.8286,0.9553,1.0071,1.0724,1.1853,1.3002,1.3763,1.3912,1.5004,1.5772,1.5812,1.5799,1.5433,1.4564,1.3002,1.1916,1.156,1.0883,1.0273,0.9739,0.948,0.9239,0.9019,0.9239,0.9498,0.9824,1.0001,1.0244,1.0532,1.1065,1.1412,1.1595,1.1916,1.204,1.1994,1.1994,1.2086,1.2236,1.2236,1.2501,1.2905,1.2905,1.2905,1.2905,1.2905,1.2905,1.2905,1.2905,1.2221,1.1341,1.0914,0.9566,0.8076,0.7777,0.6663,0.5465,0.5098,0.474,0.4642,0.5264,0.5521,0.5656,0.5916,0.5474,0.5046,0.4947,0.4947,0.5036,0.5373,0.6048,0.6677,0.7119,0.7294,0.7147,0.6592,0.6322,0.5959,0.5373,0.5712,0.5969,0.5969,0.5969,0.5889,0.568,0.5653,0.5545,0.5308,0.5303,0.513,0.4761,0.4761,0.4591,0.4272,0.403,0.3924,0.3921,0.3707,0.3398,1.3431,1.3752,1.4022,1.4201,1.3227,1.1864,1.0585,0.9251,0.7974,0.6837,0.6599,0.6668,0.6866,0.7064,0.7636,0.0,0.9554,1.0216,1.129,1.2689,1.3637,1.3818,1.4853,1.5632,1.5781,1.5668,1.5285,1.4564,1.2926,1.159,1.0699,1.0079,0.9512,0.8976,0.8788,0.8622,0.8459,0.8614,0.8878,0.9259,0.9259,0.9441,0.9777,1.0224,1.0369,1.0302,1.0777,1.0916,0.0,1.0788,1.1091,1.1516,1.1715,1.2129,1.2608,1.2822,1.2905,1.2905,1.2905,1.2905,1.2905,1.2905,1.2393,1.1665,1.099,0.95,0.7865,0.724,0.5462,0.3714,0.3594,0.3576,0.3755,0.4416,0.4919,0.5311,0.5507,0.507,0.46,0.4522,0.4499,0.4506,0.4534,0.5438,0.6119,0.6091,0.6573,0.6661,0.5913,0.5787,0.5545,0.4983,0.4888,0.4983,0.527,0.5347,0.5264,0.5048,0.5043,0.4961,0.4814,0.4792,0.4591,0.418,0.4154,0.3987,0.3604,0.342,0.3328,0.3328,0.3151,0.2835,1.3262,1.4113,1.5074,1.5089,1.3634,1.2018,1.1342,0.9696,0.7974,0.6837,0.6599,0.6668,0.6866,0.7064,0.7636,0.8979,0.9984,1.0992,1.2132,1.3269,1.4139,1.4549,1.4943,1.5358,1.5767,1.5389,1.4937,1.4533,1.3192,1.1716,1.0185,0.9215,0.848,0.7933,0.8419,0.8439,0.7912,0.8439,0.8695,0.8704,0.8704,0.8716,0.8732,0.8996,0.9327,0.9734,1.0049,1.0434,0.0,1.0788,1.0788,1.0889,1.1541,1.1789,1.1888,1.2642,1.2905,1.2905,1.2905,1.2905,1.2905,1.2905,1.2393,1.1665,1.099,0.9802,0.8246,0.6116,0.3923,0.2187,0.2063,0.2574,0.3229,0.3711,0.391,0.4193,0.4783,0.4437,0.4019,0.4019,0.4016,0.4189,0.4804,0.5512,0.5965,0.5814,0.6366,0.6342,0.507,0.4788,0.453,0.4073,0.3904,0.423,0.5215,0.542,0.5183,0.4465,0.4413,0.418,0.3644,0.3622,0.3626,0.3604,0.3604,0.3604,0.3604,0.3012,0.2719,0.2694,0.2095,0.1808,1.1869,1.2434,1.2778,1.2506,1.1558,1.0467,0.9614,0.8516,0.7478,0.6749,0.6599,0.6616,0.6685,0.6966,0.7681,0.9167,1.0078,1.0897,1.1778,1.3739,1.4949,1.4501,1.5509,1.6112,1.5829,1.5389,1.4922,1.4533,1.3204,1.1902,1.0699,0.9414,0.8267,0.7314,0.7461,0.7461,0.7294,0.7461,0.7752,0.8152,0.8152,0.8152,0.8167,0.8821,0.8856,0.8513,0.921,0.949,0.9439,0.9439,0.9718,1.0141,1.0338,1.099,1.1839,1.2055,1.2476,1.2905,1.2905,1.2905,1.2905,1.2905,1.2749,1.2329,1.1174,0.9471,0.7302,0.4139,0.2753,0.2086,0.1517,0.1567,0.2027,0.3243,0.3562,0.3779,0.4478,0.4481,0.4294,0.4169,0.4123,0.4167,0.426,0.4833,0.5222,0.5198,0.5722,0.5819,0.5005,0.4857,0.4625,0.4065,0.4045,0.4164,0.4387,0.4445,0.4335,0.4004,0.3993,0.3881,0.3607,0.3604,0.3604,0.3604,0.3604,0.3604,0.3604,0.299,0.2495,0.2073,0.1474,0.1185,1.0674,1.1333,1.1626,1.1384,1.0649,0.9792,0.9002,0.8093,0.7244,0.6712,0.6599,0.6625,0.6689,0.6975,0.7565,0.8678,0.9842,1.0881,1.1712,1.4003,1.5537,1.5332,1.628,1.6667,1.5873,1.5389,1.4922,1.4533,1.3204,1.1872,1.0661,0.9394,0.8185,0.7042,0.7,0.7,0.7,0.7,0.7196,0.7551,0.7551,0.7551,0.7594,0.8304,0.8381,0.7949,0.8724,0.8959,0.0,0.8804,0.9035,0.9458,0.9987,1.0695,1.1491,1.203,1.2501,1.2905,1.2905,1.2905,1.2905,1.2905,1.2544,1.1841,1.0416,0.8515,0.6223,0.344,0.2426,0.2037,0.1284,0.1312,0.1675,0.2371,0.2732,0.3148,0.3901,0.3818,0.3685,0.3827,0.3624,0.3519,0.373,0.4304,0.4712,0.475,0.5281,0.5349,0.4459,0.4255,0.4092,0.3761,0.3772,0.3886,0.4166,0.4112,0.4014,0.3887,0.3877,0.3839,0.3748,0.3744,0.3744,0.3744,0.3744,0.3605,0.3324,0.2453,0.1707,0.1101,0.0726,0.0563,0.0,1.0577,1.1249,1.1227,1.0506,0.9675,0.9173,0.8192,0.0,0.6725,0.6633,0.6732,0.7013,0.7191,0.7484,0.8034,0.9624,1.1116,1.205,1.4215,1.5993,1.6799,1.7184,1.6972,1.5902,1.5389,1.4922,1.4533,1.3204,1.1753,1.0299,0.9255,0.8218,0.7147,0.7042,0.7,0.7,0.7,0.7,0.7,0.6958,0.6958,0.702,0.7586,0.7845,0.7905,0.8544,0.8798,0.8778,0.8798,0.8804,0.8936,1.0167,1.0695,1.0889,1.2255,1.2774,1.2832,1.2881,1.2905,1.2881,1.2847,1.1866,1.0475,0.9122,0.7276,0.5341,0.3889,0.2924,0.2174,0.1312,0.1619,0.1952,0.1257,0.1619,0.2315,0.3065,0.2732,0.2482,0.3093,0.2702,0.2508,0.3206,0.3831,0.4268,0.4319,0.4862,0.48,0.3483,0.3148,0.3072,0.3194,0.3121,0.3399,0.434,0.4287,0.4173,0.4021,0.4011,0.4004,0.3994,0.3994,0.3969,0.392,0.387,0.349,0.2761,0.151,0.0581,0.0,0.0,0.0,0.7096,0.0,0.8897,0.8594,0.8183,0.782,0.0,0.7453,0.716,0.6879,0.6955,0.7384,0.8461,0.8451,0.8951,1.1059,1.2111,1.2983,1.3929,1.567,1.7023,1.7583,1.7455,1.6915,1.5902,1.5389,1.4922,1.4533,1.3204,1.2105,1.1435,0.9679,0.8574,0.8308,0.7454,0.7,0.7,0.7,0.7,0.7,0.6583,0.6605,0.6999,0.7199,0.7391,0.7645,0.845,0.8684,0.8516,0.8717,0.8804,0.8831,0.9133,0.9588,1.0141,1.0973,1.1633,1.2138,1.2691,1.2905,1.2798,1.2236,1.1149,0.9876,0.8973,0.8,0.6752,0.473,0.4018,0.3465,0.159,0.1229,0.1312,0.1146,0.1229,0.1563,0.2286,0.2815,0.2982,0.2538,0.2815,0.2982,0.2565,0.2617,0.2728,0.2732,0.2866,0.2866,0.2536,0.2437,0.2434,0.2452,0.2437,0.2737,0.3594,0.4124,0.4351,0.4153,0.414,0.4115,0.4001,0.3994,0.3742,0.3166,0.2613,0.2012,0.1359,0.1058,0.0581,0.0,0.0,0.0,0.6427,0.7187,0.7959,0.7748,0.7589,0.7479,0.7479,0.7183,0.6898,0.6791,0.6914,0.7406,0.8539,0.8895,0.9598,1.1417,1.2586,1.387,1.563,1.7391,1.8343,1.7961,1.7717,1.71,1.5916,1.521,1.4737,1.4517,1.3017,1.1911,1.1417,0.9914,0.8837,0.8337,0.7739,0.728,0.7,0.7,0.7,0.7,0.6704,0.6732,0.6999,0.7202,0.7364,0.7524,0.813,0.839,0.8409,0.8569,0.8691,0.8831,0.9133,0.9491,0.9891,1.0534,1.1216,1.1864,1.2261,1.2393,1.227,1.1566,1.0644,0.9607,0.8567,0.7978,0.731,0.5444,0.4898,0.4402,0.2173,0.1619,0.1424,0.0755,0.0588,0.0811,0.1535,0.1786,0.1814,0.1703,0.1786,0.1814,0.1703,0.1703,0.1814,0.2147,0.2202,0.2091,0.173,0.1703,0.1703,0.1703,0.1703,0.2009,0.2788,0.3204,0.3539,0.3779,0.4129,0.3984,0.3195,0.3507,0.3324,0.2586,0.1849,0.1321,0.098,0.0663,0.0318,0.0,0.0,0.0,0.6664,0.726,0.7844,0.7697,0.7784,0.7896,0.7814,0.7355,0.6965,0.6983,0.7144,0.7581,0.8575,0.9356,1.0176,1.1172,1.2614,1.4458,1.6885,1.8543,1.9066,1.7864,1.7692,1.717,1.5915,1.5013,1.4501,1.4501,1.2817,1.1586,1.1068,1.005,0.9079,0.8172,0.7974,0.7663,0.7147,0.7042,0.7,0.7,0.6915,0.6873,0.6886,0.7218,0.7356,0.7392,0.7795,0.0,0.8402,0.8449,0.8584,0.8857,0.9413,0.964,0.9744,1.0389,1.1065,1.169,1.1898,1.1823,1.1566,1.099,1.021,0.9268,0.8064,0.7616,0.7262,0.5891,0.5515,0.4988,0.2783,0.2202,0.184,0.0364,0.0,0.0168,0.0811,0.0532,0.0308,0.0838,0.0532,0.0336,0.0838,0.0923,0.1146,0.1758,0.187,0.1647,0.1006,0.0923,0.0923,0.0923,0.0923,0.1229,0.1981,0.2037,0.2286,0.2926,0.3707,0.3566,0.2259,0.2704,0.2676,0.2035,0.1312,0.0923,0.0923,0.0308,0.0,0.0,0.0,-0.0056,0.6942,0.761,0.8037,0.7236,0.7765,0.8355,0.7908,0.8188,0.858,0.8695,0.8883,0.9466,1.0973,1.1368,1.1955,1.3497,1.4668,1.5755,1.6734,1.7123,1.7204,1.6988,1.6725,1.6354,1.5842,1.5013,1.4501,1.4501,1.2817,1.1756,1.1671,1.0302,0.9419,0.9259,0.8378,0.785,0.7767,0.7252,0.7,0.7,0.6541,0.6328,0.634,0.6599,0.6742,0.6795,0.0,0.8362,0.8415,0.8637,0.8764,0.8804,0.891,0.8956,0.9035,0.9718,1.0389,1.1116,1.2329,1.194,1.0939,1.0838,0.9526,0.7984,0.7777,0.7262,0.6583,0.5733,0.5515,0.4988,0.2783,0.2202,0.184,0.0364,0.0,0.0028,0.014,0.056,0.0783,0.028,0.0588,0.0755,0.0252,0.0168,0.0196,0.0308,0.0336,0.0308,0.0196,0.0168,0.0168,0.0168,0.0168,0.0476,0.1202,0.1256,0.1312,0.1424,0.2148,0.2454,0.2202,0.1703,0.1396,0.1284,0.0532,0.0168,0.0168,0.0056,0.0,0.0,0.0,-0.0336,0.6791,0.7417,0.8014,0.7996,0.8652,0.924,0.8995,0.9205,0.9455,0.9514,0.9899,1.0539,1.1658,1.2417,1.3377,1.4869,1.6134,1.6834,1.6567,1.7187,1.7374,1.6628,1.638,1.6163,1.5842,1.521,1.4737,1.4517,1.3017,1.2031,1.1811,1.0601,0.9804,0.9498,0.8736,0.8193,0.7899,0.7301,0.7,0.7,0.6747,0.6477,0.6206,0.6622,0.6481,0.5947,0.0,0.7459,0.7702,0.7904,0.8319,0.8804,0.8804,0.8804,0.8883,0.9562,0.9987,1.0466,1.1832,1.14,1.0261,1.023,0.9077,0.7557,0.674,0.6276,0.5873,0.5164,0.5218,0.4988,0.2783,0.2202,0.184,0.0364,0.0,0.0,0.0,0.028,0.0392,0.0056,0.028,0.0392,0.0056,0.0,0.0,0.0,0.0,0.0,0.0,0.0,0.0,0.0,0.0364,0.056,0.0504,0.0867,0.1256,0.1675,0.1257,0.1202,0.1591,0.0895,0.0504,0.0504,0.0168,0.0,0.0,0.0,-0.0196,-0.0588,-0.0588,-0.0978,0.6762,0.7274,0.797,0.8652,0.9262,0.9765,1.0161,1.011,1.0046,1.0325,1.0794,1.1374,1.2088,1.3266,1.4565,1.5827,1.6941,1.738,1.663,1.7329,1.7539,1.6537,1.6355,1.6163,1.5842,1.5448,1.5015,1.4549,1.3306,1.2348,1.1829,1.0954,1.0235,0.9705,0.9039,0.85,0.8098,0.7356,0.7,0.7,0.6873,0.6513,0.6002,0.6407,0.6089,0.5235,0.5944,0.6591,0.72,0.7309,0.7914,0.8804,0.8804,0.8699,0.8613,0.9287,0.954,0.9747,1.1107,1.0686,0.9533,0.9496,0.8436,0.6988,0.5842,0.5515,0.5351,0.4677,0.4976,0.5042,0.3005,0.2343,0.187,0.056,0.0,-0.0224,-0.0028,-0.014,-0.0196,-0.0028,0.0,0.0,0.0,0.0,0.0,0.0,0.0,0.0,0.0,0.0,0.0,0.0,0.0504,0.0615,0.0056,0.0532,0.109,0.1647,0.0615,0.0252,0.0811,0.0308,0.0,0.0,0.0,-0.0084,-0.0252,-0.0252,-0.0727,-0.1616,-0.1616,-0.2114,0.7206,0.7566,0.793,0.848,0.8791,0.9371,1.0936,1.0703,1.0496,1.1616,1.1895,1.2165,1.2962,1.4255,1.5539,1.6559,1.6811,1.6953,1.7199,1.6782,1.6537,1.674,1.6488,1.6163,1.5842,1.5666,1.5272,1.455,1.3607,1.2676,1.1847,1.1263,1.0725,1.0264,0.9239,0.8675,0.8643,0.7544,0.7,0.7,0.6498,0.5937,0.5373,0.5411,0.5237,0.4965,0.5512,0.6404,0.7483,0.7476,0.8011,0.8804,0.8804,0.8374,0.7851,0.8534,0.8783,0.8966,1.0399,0.9956,0.8783,0.8783,0.7351,0.5651,0.5538,0.5515,0.5351,0.4677,0.4976,0.5156,0.3702,0.276,0.2009,0.1202,-0.0028,-0.0838,-0.014,-0.0532,-0.0811,-0.014,0.0,0.0,0.0,0.0,0.0,0.0,0.0,0.0,0.0,0.0,0.0,0.0,0.0056,0.0056,0.0,0.0056,0.0112,0.0168,0.0056,0.0028,0.0084,0.0028,0.0,0.0,0.0,-0.0336,-0.1034,-0.1034,-0.1754,-0.3154,-0.3154,-0.3917,0.684,0.7592,0.8512,0.9377,0.9956,1.0482,1.1071,1.1553,1.2128,1.3006,1.3382,1.3811,1.4657,1.5258,1.575,1.6119,1.6528,1.6776,1.6683,1.6825,1.6888,1.6815,1.6686,1.6554,1.6434,1.6186,1.5807,1.5227,1.4153,1.3264,1.2636,1.1583,1.0924,1.0745,0.9726,0.9039,0.8695,0.7946,0.7196,0.6498,0.6307,0.5873,0.5303,0.5303,0.485,0.4134,0.4782,0.5434,0.6057,0.6598,0.7067,0.7423,0.7423,0.7262,0.7047,0.7299,0.74,0.7528,0.8482,0.8199,0.7395,0.7399,0.6521,0.5433,0.5003,0.4869,0.4814,0.457,0.468,0.4646,0.3649,0.2815,0.2009,0.1284,-0.0028,-0.1034,-0.0755,-0.1257,-0.1703,-0.1424,-0.1006,-0.0671,-0.0671,-0.0308,0.0,0.0,0.0,0.0,0.0,0.0,0.0,0.0,0.0,0.0364,0.1284,0.0532,0.0,0.0,0.0,0.0,0.0,0.0,0.0,0.0,-0.0448,-0.0811,-0.109,-0.2029,-0.2991,-0.4009,-0.4467,-0.521,0.6853,0.7711,0.8809,0.973,1.0506,1.1126,1.1469,1.231,1.3204,1.3939,1.4406,1.4907,1.5609,1.5769,1.587,1.6081,1.6501,1.6763,1.663,1.701,1.7211,1.6989,1.6968,1.693,1.6815,1.6594,1.6227,1.5634,1.4623,1.3743,1.3128,1.208,1.1327,1.1008,1.0167,0.939,0.8695,0.816,0.7321,0.62,0.6007,0.561,0.5,0.4831,0.4338,0.3629,0.4134,0.4632,0.5153,0.5736,0.6245,0.6588,0.634,0.6253,0.6253,0.6253,0.6253,0.6362,0.7042,0.6832,0.6253,0.6261,0.5774,0.5109,0.4653,0.4653,0.4759,0.457,0.4708,0.4756,0.3956,0.3148,0.2371,0.1619,0.0307,-0.0809,-0.1062,-0.1675,-0.2202,-0.2202,-0.1786,-0.1369,-0.1146,-0.0671,-0.028,-0.0028,0.0,0.0,0.0,0.0,0.0,0.0,0.0,0.042,0.1424,0.0588,0.0,0.0,0.0,0.0,0.0,0.0,-0.0112,-0.0336,-0.0838,-0.134,-0.1842,-0.3049,-0.4146,-0.5113,-0.5788,-0.6531,0.7406,0.7996,0.8728,0.9269,1.0069,1.1039,1.2239,1.2871,1.3444,1.433,1.483,1.5211,1.5534,1.5709,1.6025,1.6686,1.6789,1.693,1.726,1.7308,1.7292,1.7292,1.7292,1.7175,1.6841,1.6802,1.6467,1.5662,1.4911,1.4092,1.3162,1.2725,1.2036,1.1027,1.0494,0.9718,0.8716,0.8172,0.7321,0.6179,0.5588,0.4978,0.4391,0.3836,0.3604,0.3604,0.3604,0.4157,0.5091,0.5095,0.5677,0.6507,0.5787,0.5487,0.5487,0.5487,0.5487,0.5597,0.634,0.6091,0.5487,0.5487,0.503,0.4491,0.4491,0.4976,0.5351,0.4677,0.5167,0.5678,0.4732,0.3901,0.3121,0.2369,0.1086,-0.0195,-0.0949,-0.1675,-0.2202,-0.2232,-0.2232,-0.1981,-0.1257,-0.1118,-0.0866,-0.0112,0.0,0.0,0.0,0.0,0.0,0.0,0.0,0.0,0.0,0.0,0.0,0.0,0.0,0.0,0.0,0.0,-0.0336,-0.109,-0.1118,-0.187,-0.34,-0.4103,-0.5171,-0.6615,-0.716,-0.7916,0.7406,0.8165,0.9136,0.9904,1.1216,1.2546,1.3431,1.3501,1.3709,1.4706,1.527,1.5609,1.5725,1.5769,1.587,1.6052,1.6488,1.6841,1.6926,1.7344,1.7658,1.7658,1.7658,1.7612,1.7502,1.708,1.6696,1.6454,1.5227,1.4376,1.4092,1.3084,1.221,1.1579,1.1046,1.0099,0.8716,0.8541,0.7481,0.5567,0.5394,0.4978,0.4391,0.3836,0.3604,0.3604,0.3604,0.3883,0.4353,0.458,0.5131,0.5764,0.5058,0.4787,0.4787,0.4787,0.4787,0.4814,0.5034,0.4979,0.4787,0.4787,0.4653,0.4491,0.4491,0.4653,0.4759,0.4543,0.4708,0.4842,0.457,0.4322,0.3818,0.2508,0.1086,-0.0251,-0.1174,-0.2096,-0.2959,-0.368,-0.3818,-0.3566,-0.2788,-0.1953,-0.1314,-0.1091,-0.0448,0.0,0.0,0.0,0.0,0.0,0.0,0.0,0.0,0.0,0.0,0.0,0.0,0.0,0.0,0.0,-0.0448,-0.137,-0.2066,-0.298,-0.4103,-0.5339,-0.6438,-0.7396,-0.8076,-0.854,0.8277,0.9053,0.9969,1.0945,1.1984,1.3021,1.403,1.4339,1.46,1.5242,1.5595,1.5799,1.5799,1.5799,1.5799,1.5799,1.6353,1.6802,1.6802,1.7372,1.78,1.78,1.78,1.78,1.78,1.7191,1.6802,1.6802,1.5506,1.4737,1.4737,1.3676,1.2824,1.2324,1.1678,1.0676,0.9312,0.8889,0.766,0.561,0.5405,0.487,0.4071,0.3751,0.3604,0.3588,0.3402,0.3447,0.3664,0.3959,0.4481,0.5058,0.4653,0.4491,0.4491,0.4491,0.4491,0.4491,0.4491,0.4491,0.4491,0.4491,0.4491,0.4491,0.4491,0.4491,0.4491,0.4491,0.4491,0.4491,0.4491,0.4491,0.4267,0.3345,0.1975,0.0557,-0.0643,-0.137,-0.2345,-0.4156,-0.4491,-0.4349,-0.3873,-0.3178,-0.2289,-0.1091,-0.0392,0.0,0.0,0.0,0.0,0.0,0.0,0.0,0.0,0.0,-0.0504,-0.1703,-0.1786,-0.1786,-0.1786,-0.1202,-0.1146,-0.176,-0.2952,-0.4027,-0.5004,-0.6494,-0.7466,-0.7903,-0.8687,-0.9078,0.9554,1.0219,1.0908,1.2037,1.2414,1.2868,1.4237,1.5195,1.5799,1.5799,1.5799,1.5799,1.5799,1.5799,1.5799,1.5799,1.6342,1.6763,1.6789,1.7349,1.7777,1.78,1.78,1.78,1.78,1.7216,1.6828,1.6802,1.5766,1.512,1.5104,1.4342,1.3646,1.3111,1.2301,1.1327,1.0215,0.9233,0.7893,0.6183,0.5594,0.4727,0.3667,0.3622,0.3578,0.3484,0.3016,0.2888,0.3009,0.3199,0.368,0.4294,0.4294,0.4294,0.4294,0.4377,0.4405,0.4405,0.4487,0.4491,0.4491,0.4491,0.4491,0.4491,0.4491,0.4491,0.4491,0.4491,0.4491,0.4491,0.4491,0.4491,0.4491,0.4491,0.3428,0.198,0.0336,0.0,-0.0811,-0.3566,-0.4322,-0.4491,-0.4491,-0.4491,-0.3483,-0.0448,0.0,0.0,0.0,0.0,0.0,0.0,0.0,0.0,0.0,-0.0252,-0.1591,-0.4322,-0.4491,-0.4491,-0.4491,-0.3148,-0.2397,-0.2397,-0.3904,-0.5156,-0.6091,-0.7538,-0.8259,-0.8349,-0.9071,-0.9506,0.9089,0.9667,1.0357,1.1487,1.2605,1.3695,1.4734,1.5404,1.5799,1.5799,1.5799,1.5799,1.5799,1.5799,1.5799,1.5799,1.6136,1.6501,1.6763,1.715,1.7514,1.7777,1.78,1.78,1.78,1.7432,1.7076,1.6815,1.5988,1.5375,1.5105,1.4342,1.3646,1.3111,1.2602,1.1667,1.0215,0.9571,0.8436,0.6792,0.5786,0.4913,0.422,0.3796,0.335,0.2868,0.2406,0.2213,0.2251,0.2387,0.2565,0.2704,0.2704,0.2704,0.276,0.34,0.3624,0.3707,0.4294,0.4491,0.4491,0.4491,0.4491,0.4491,0.4491,0.4491,0.4491,0.4491,0.4491,0.4491,0.4491,0.4491,0.4491,0.4491,0.4236,0.3262,0.0588,0.0,-0.0196,-0.0839,-0.2871,-0.4491,-0.4491,-0.4491,-0.3483,-0.0448,0.0,0.0,0.0,0.0,0.0,0.0,0.0,0.0,0.0,-0.2176,-0.3818,-0.446,-0.4491,-0.4491,-0.4491,-0.4181,-0.4015,-0.4015,-0.5854,-0.7034,-0.7463,-0.8167,-0.8823,-0.9378,-0.9396,-0.9579,0.9177,0.988,1.0662,1.2296,1.3199,1.3949,1.4885,1.5463,1.5799,1.5799,1.5799,1.5799,1.5799,1.5799,1.5799,1.5799,1.6219,1.6594,1.6776,1.724,1.7595,1.7789,1.78,1.78,1.78,1.7502,1.7236,1.7052,1.6345,1.5865,1.5681,1.4908,1.4251,1.3789,1.3132,1.2206,1.0969,1.0186,0.897,0.737,0.6216,0.5098,0.4008,0.3435,0.2677,0.1835,0.1575,0.131,0.1059,0.1117,0.1343,0.1668,0.1668,0.1893,0.2259,0.2676,0.3065,0.3456,0.379,0.4181,0.4491,0.4491,0.4491,0.4491,0.4491,0.4491,0.4491,0.4491,0.4491,0.4491,0.4491,0.4491,0.4491,0.4491,0.4491,0.407,0.2482,0.1006,0.0,0.0,-0.2426,-0.4491,-0.4491,-0.4491,-0.3483,-0.0448,0.0,0.0,0.0,0.0,0.0,0.0,0.0,0.0,0.0,-0.276,-0.4491,-0.4491,-0.4491,-0.4621,-0.4911,-0.599,-0.6551,-0.6551,-0.7594,-0.8466,-0.9185,-0.9254,-0.9459,-0.9856,-0.9943,-1.009,0.909,1.0005,1.1074,1.3171,1.3695,1.3936,1.4831,1.5433,1.5799,1.5799,1.5799,1.5799,1.5799,1.5799,1.5799,1.5799,1.6299,1.6738,1.6789,1.7337,1.7743,1.7789,1.78,1.7822,1.785,1.7584,1.7392,1.7375,1.6809,1.6448,1.638,1.5623,1.503,1.4693,1.3743,1.281,1.1909,1.0845,0.9524,0.7939,0.6598,0.5019,0.3265,0.2765,0.2006,0.1031,0.0724,0.0291,-0.0201,-0.0313,0.0,0.0555,0.0666,0.1084,0.1672,0.1924,0.2426,0.3037,0.3178,0.368,0.4267,0.4436,0.4491,0.446,0.4181,0.4294,0.4491,0.4491,0.4491,0.4491,0.4491,0.4491,0.4491,0.4491,0.4491,0.4491,0.4491,0.2538,0.0615,0.0112,-0.2426,-0.4491,-0.4491,-0.4491,-0.3652,-0.1146,-0.0336,0.0,0.0,0.0,0.0,0.0,-0.0476,-0.0783,-0.0783,-0.3159,-0.4644,-0.4644,-0.4644,-0.5135,-0.6252,-0.8118,-0.9112,-0.9112,-0.9112,-0.9586,-1.0593,-1.0265,-1.011,-1.0117,-1.0439,-1.0593,0.7668,0.884,1.0481,1.2373,1.3287,1.3897,1.4667,1.5352,1.5799,1.5799,1.5799,1.5799,1.5799,1.5799,1.5799,1.5799,1.6122,1.6461,1.6751,1.7126,1.7479,1.7777,1.78,1.7883,1.8114,1.7905,1.771,1.7653,1.7347,1.7039,1.6751,1.5975,1.552,1.5447,1.4383,1.3327,1.2319,1.1318,1.0051,0.8545,0.6419,0.4222,0.203,0.1964,0.183,0.1588,0.0023,-0.0778,-0.0985,-0.1518,-0.1732,-0.1699,-0.1059,-0.0753,-0.0502,0.0782,0.1312,0.1563,0.2653,0.31,0.335,0.4211,0.4491,0.4239,0.2899,0.3428,0.4491,0.4491,0.4491,0.4491,0.4491,0.4491,0.4491,0.4491,0.4491,0.4491,0.4491,0.4181,0.3121,0.0504,-0.2426,-0.4491,-0.4491,-0.4491,-0.4349,-0.3959,-0.1675,0.0,0.0,0.0,0.0,0.0,-0.2343,-0.3901,-0.3901,-0.4755,-0.5272,-0.5272,-0.5272,-0.6658,-0.9773,-1.0214,-1.0358,-1.0358,-1.0358,-1.0432,-1.0593,-1.0539,-1.0512,-1.0512,-1.0566,-1.0593,0.8055,0.8889,0.9969,1.2157,1.2706,1.3064,1.4468,1.5035,1.535,1.5724,1.5595,1.5477,1.5755,1.5799,1.5799,1.5799,1.6232,1.6633,1.6776,1.7252,1.7618,1.7789,1.78,1.7856,1.796,1.8014,1.8018,1.7984,1.7842,1.7625,1.7318,1.6801,1.6318,1.5958,1.5228,1.4144,1.2687,1.2064,1.0384,0.7678,0.5716,0.3916,0.2273,0.1607,0.0916,0.0268,-0.0206,-0.0859,-0.1588,-0.1538,-0.1518,-0.1563,-0.1229,-0.0838,-0.0392,0.0252,0.0839,0.1398,0.1956,0.2903,0.3907,0.4349,0.4491,0.4377,0.3707,0.2788,0.1981,0.1981,0.1981,0.2371,0.407,0.4491,0.4491,0.4491,0.4491,0.4491,0.4491,0.4491,0.3597,0.0588,-0.2426,-0.4491,-0.4491,-0.4491,-0.4491,-0.4491,-0.1925,0.0,0.0,0.0,0.0,0.0,-0.2704,-0.4627,-0.4969,-0.5242,-0.5395,-0.5395,-0.5395,-0.6957,-1.046,-1.0593,-1.0593,-1.0593,-1.0593,-1.1507,-1.3287,-1.3287,-1.2358,-1.0593,-1.0593,-1.0593,0.8107,0.8595,0.9119,1.1357,1.184,1.2187,1.3708,1.4299,1.4654,1.5168,1.5108,1.5089,1.5551,1.5624,1.5653,1.5784,1.6301,1.6699,1.6789,1.7301,1.7704,1.7789,1.78,1.7839,1.7992,1.8114,1.8259,1.8391,1.8298,1.8142,1.795,1.7546,1.7128,1.6709,1.6078,1.4993,1.3363,1.2353,1.0259,0.7114,0.5572,0.4148,0.2868,0.1828,0.0625,-0.0648,-0.0359,-0.0822,-0.1737,-0.1461,-0.134,-0.1369,-0.1174,-0.0811,-0.0364,-0.0084,0.0476,0.1119,0.1119,0.2094,0.3345,0.3345,0.3876,0.4349,0.3594,0.1786,0.0,0.0,0.0,0.0532,0.276,0.3345,0.3539,0.4322,0.4491,0.4491,0.4491,0.3901,0.2704,0.0448,-0.1814,-0.3345,-0.3345,-0.3987,-0.4491,-0.4491,-0.2593,-0.1146,-0.1146,-0.1146,-0.1189,-0.1346,-0.3399,-0.4904,-0.5354,-0.621,-0.6338,-0.5458,-0.5395,-0.6957,-1.046,-1.0593,-1.0593,-1.0593,-1.0593,-1.1779,-1.4165,-1.4982,-1.4165,-1.181,-1.0989,-1.0593,0.6832,0.7211,0.7621,0.9339,1.0602,1.1535,1.1955,1.2927,1.378,1.3808,1.4193,1.4658,1.5058,1.5134,1.527,1.5741,1.6109,1.645,1.6751,1.7101,1.7439,1.7749,1.78,1.8003,1.8508,1.8341,1.841,1.8923,1.8725,1.8566,1.8556,1.7992,1.7775,1.7987,1.6819,1.5669,1.4613,1.1748,0.9456,0.7747,0.6571,0.5112,0.3434,0.2868,0.1646,-0.0067,-0.0626,-0.0961,-0.1185,-0.1736,-0.202,-0.2063,-0.1369,-0.1229,-0.1314,-0.0364,0.0028,0.0084,0.0084,0.014,0.0224,0.0224,0.2176,0.3959,0.109,0.0112,0.0,0.0,0.0,0.0028,0.0196,0.0224,0.0951,0.3818,0.4491,0.4491,0.4491,0.2259,0.0196,0.0028,-0.014,-0.0224,-0.0224,-0.2593,-0.4491,-0.4491,-0.4377,-0.4267,-0.4267,-0.4267,-0.4474,-0.5055,-0.5245,-0.5361,-0.5392,-0.8415,-0.893,-0.5624,-0.5395,-0.6957,-1.046,-1.0593,-1.0593,-1.0593,-1.0593,-1.0681,-1.087,-1.3927,-1.5323,-1.5079,-1.202,-1.0593,0.6571,0.6967,0.7376,0.854,0.9795,1.096,1.1737,1.2775,1.3603,1.3677,1.3932,1.4124,1.4187,1.4682,1.524,1.5726,1.6081,1.6326,1.6461,1.6952,1.7344,1.7451,1.7822,1.8125,1.832,1.8566,1.8789,1.8993,1.9024,1.8999,1.8852,1.8652,1.8502,1.8417,1.7774,1.6542,1.4717,1.1949,0.979,0.823,0.7183,0.5562,0.35,0.3303,0.2465,0.1114,0.0513,-0.0208,-0.0923,-0.0364,-0.0127,-0.0027,0.0648,0.0712,0.0475,0.0839,0.056,0.0,0.0,0.0,0.0,0.0,0.0727,0.1396,0.0336,0.0,0.0,0.0,0.0,0.0,0.0,0.0,0.028,0.1369,0.3095,0.4491,0.4491,0.212,0.0,0.0,0.0,0.0,0.0,-0.0895,-0.2259,-0.4211,-0.4822,-0.5071,-0.5071,-0.5071,-0.5153,-0.5371,-0.5395,-0.5395,-0.5395,-0.6535,-0.767,-0.8672,-0.6634,-0.6957,-1.046,-1.0593,-1.0593,-1.0593,-1.0593,-1.1624,-1.3687,-1.4835,-1.541,-1.5381,-1.4234,-1.2565,0.6127,0.6424,0.6878,0.8175,0.8899,0.9688,1.116,1.1911,1.2367,1.2641,1.2924,1.3169,1.334,1.3867,1.4572,1.5433,1.5883,1.6163,1.6287,1.6786,1.7077,1.6943,1.7597,1.799,1.7844,1.8462,1.8905,1.8984,1.919,1.9235,1.9119,1.9035,1.8887,1.8604,1.8113,1.6964,1.5092,1.2851,1.0825,0.8985,0.7995,0.6313,0.4091,0.3898,0.3174,0.2073,0.1674,0.0937,0.0048,0.0642,0.1094,0.1433,0.1639,0.173,0.1676,0.1174,0.056,0.0,0.0,0.0,0.0,0.0,0.0,0.0,0.0,0.0,0.0,0.0,0.0,0.0,0.0,0.0,0.0,0.0,0.1535,0.2982,0.2982,0.2202,0.1202,0.0196,0.0,0.0,0.0,0.0,-0.1034,-0.4042,-0.5006,-0.5395,-0.5395,-0.5395,-0.5395,-0.5395,-0.5395,-0.5395,-0.5395,-0.5395,-0.6892,-1.0396,-0.8415,-0.8188,-1.0498,-1.0593,-1.0593,-1.0593,-1.0593,-1.2174,-1.541,-1.541,-1.541,-1.541,-1.541,-1.4255,0.0,0.0,0.0,0.8086,0.7864,0.7736,1.0077,1.0244,1.0056,1.0568,1.1161,1.1789,1.2498,1.2678,1.3192,1.4771,1.5419,1.5852,1.6184,1.6504,1.6583,1.62,1.7087,1.7558,1.7109,1.7987,1.8689,1.8957,1.9172,1.9297,1.9297,1.9109,1.8896,1.8623,1.7838,1.691,1.5842,1.437,1.2423,1.0039,0.9024,0.7409,0.5303,0.4713,0.3818,0.2719,0.2719,0.2372,0.18,0.121,0.1365,0.1958,0.1437,0.166,0.2091,0.0615,0.0028,0.0,0.0,0.0,0.0,0.0,0.0,0.0,0.0,0.0,0.0,0.0,0.0,0.0,0.0,0.0,0.0,0.0,0.0,0.0,0.0,0.2287,0.3511,0.056,0.0,0.0,0.0,0.0,-0.104,-0.4067,-0.5016,-0.5395,-0.5395,-0.5395,-0.5395,-0.5395,-0.5395,-0.5395,-0.5395,-0.5491,-0.699,-1.0396,-1.0498,-1.046,-1.046,-1.0555,-1.0593,-1.0593,-1.0593,-1.2174,-1.541,-1.541,-1.541,-1.541,-1.541,-1.541,0.5195,0.0,0.0,0.0,0.0,0.0,0.8523,0.9305,0.9943,1.0081,1.0557,1.1017,1.1215,1.1849,1.2562,1.3248,1.3918,1.4388,1.4492,1.4789,1.5023,1.5114,1.5764,1.624,1.6295,1.7346,1.8056,1.8139,1.8867,1.9297,1.9297,1.9261,1.918,1.9105,1.8331,1.7473,1.6605,1.4936,1.3119,1.1151,1.0184,0.8379,0.5871,0.57,0.4808,0.3328,0.2898,0.2851,0.3047,0.2452,0.2131,0.2034,0.2317,0.3018,0.368,0.2148,0.0923,0.0,0.0,0.0,0.0,0.0,0.0,0.0,0.0,0.0,0.0,0.0,0.0,0.0,0.0,0.0,0.0,0.0,0.0,0.0,0.0,0.0643,0.1006,0.0168,0.0,0.0,0.0,0.0,-0.1185,-0.4633,-0.5286,-0.5395,-0.5395,-0.5395,-0.5395,-0.5395,-0.5395,-0.5395,-0.5395,-0.7702,-0.9582,-1.053,-0.8221,-0.6826,-0.6826,-0.9256,-1.0593,-1.0593,-1.0593,-1.2174,-1.541,-1.541,-1.541,-1.541,-1.541,-1.541,0.0,0.0,0.0,0.6276,0.0,0.0,0.8023,0.8656,0.9169,0.9491,0.9993,1.0409,1.0557,1.1238,1.1829,1.1935,1.2507,1.3127,1.3714,1.4099,1.4233,1.4093,1.4876,1.5373,1.5218,1.6326,1.7082,1.7173,1.8033,1.8727,1.9156,1.9251,1.9297,1.9297,1.8654,1.7942,1.7164,1.5591,1.3818,1.1842,1.0704,0.8859,0.6464,0.5983,0.5094,0.3899,0.3322,0.3126,0.3192,0.2854,0.2582,0.2369,0.2238,0.2625,0.3098,0.1774,0.0727,0.0,0.0,0.0,0.0,0.0,0.0,0.0,0.0,0.0,0.0,0.0,0.0,0.0,0.0,0.0,0.0,0.0,0.0,0.0,0.0,0.0,0.0,0.0,0.0,0.0,0.0,0.0,-0.1244,-0.4858,-0.5395,-0.5395,-0.5395,-0.5395,-0.5395,-0.5395,-0.5395,-0.5395,-0.5395,-0.7246,-0.8447,-0.8447,-0.6535,-0.5395,-0.5395,-0.8737,-1.1233,-1.2565,-1.3812,-1.5368,-1.7224,-1.5987,-1.541,-1.541,-1.541,-1.541,0.0,0.0,0.0,0.0,0.6647,0.0,0.7946,0.8072,0.8008,0.8697,0.9229,0.9692,1.0052,1.0585,1.0912,1.0692,1.1157,1.202,1.3296,1.3773,1.3725,1.3104,1.4111,1.463,1.4047,1.5107,1.5924,1.612,1.6984,1.7896,1.8796,1.9087,1.9227,1.9227,1.8744,1.8138,1.7401,1.6097,1.4365,1.2205,1.0838,0.9099,0.705,0.5979,0.5082,0.4369,0.3902,0.3347,0.2785,0.2652,0.2642,0.2581,0.1566,0.1239,0.1225,0.0328,0.0,0.0,0.0,0.0,0.0,0.0,0.0,0.0,0.0,0.0,0.0,0.0,0.0,0.0,0.0,0.0,0.0,0.0,0.0,0.0,0.0,0.0,0.0,0.0,0.0,0.0,0.0,0.0,-0.1244,-0.4858,-0.5395,-0.5395,-0.5395,-0.5395,-0.5395,-0.5395,-0.5395,-0.5395,-0.5395,-0.5752,-0.598,-0.598,-0.598,-0.598,-0.598,-0.8962,-1.2112,-1.5352,-1.829,-1.9798,-1.9798,-1.7169,-1.5882,-1.5882,-1.5546,-1.541,0.0,0.0,0.0,0.6181,0.662,0.0,0.6264,0.676,0.7304,0.7194,0.7418,0.7792,0.8297,0.9002,0.9429,0.9178,0.9987,1.0845,1.1386,1.1704,1.1907,1.199,1.2458,1.289,1.319,1.4164,1.4908,1.5154,1.6614,1.7586,1.7781,1.8378,1.8744,1.8744,1.818,1.7496,1.6698,1.5627,1.4178,1.2342,1.1267,0.9654,0.7631,0.696,0.5845,0.4387,0.4282,0.3939,0.335,0.2388,0.1705,0.1266,0.1055,0.0676,0.0273,0.0078,0.0,0.0,0.0,0.0,0.0,0.0,0.0,0.0,0.0,0.0,0.0,0.0,0.0,0.0,0.0,0.0,0.0,0.0,0.0,0.0,0.0,0.0,0.0,0.0,0.0,0.0,0.0,0.0,-0.1244,-0.4858,-0.5395,-0.5395,-0.5395,-0.5395,-0.5395,-0.5395,-0.5395,-0.5395,-0.5395,-0.7962,-0.9582,-0.9582,-0.9582,-0.9582,-0.9582,-1.0231,-1.2112,-1.5352,-1.829,-1.9798,-1.9798,-1.9228,-1.8941,-1.8874,-1.6507,-1.541,0.6787,0.657,0.6453,0.6699,0.6827,0.0,0.0,0.6784,0.7194,0.7579,0.7564,0.7722,0.8418,0.9071,0.9363,0.8963,0.9826,1.0418,1.0041,1.0643,1.1193,1.1468,1.1762,1.2113,1.2559,1.3302,1.396,1.4457,1.5392,1.6218,1.6819,1.7324,1.7756,1.8097,1.7681,1.7055,1.6258,1.5184,1.3891,1.2378,1.0868,0.9485,0.8208,0.6792,0.5679,0.4826,0.4246,0.3678,0.3081,0.2164,0.1451,0.0873,0.056,0.0257,0.0,0.0,0.0,0.0,0.0,0.0,0.0,0.0,0.0,0.0,0.0,0.0,0.0,0.0,0.0,0.0,0.0,0.1118,0.187,0.0364,0.0,0.0,0.0,0.0,0.0,0.0,0.0,0.0,0.0,0.0,-0.1244,-0.4858,-0.5395,-0.5395,-0.5395,-0.5395,-0.5395,-0.5395,-0.5395,-0.5395,-0.5395,-0.699,-0.8737,-1.0491,-1.0593,-1.0593,-1.0593,-1.2143,-1.3747,-1.5381,-1.829,-1.9798,-1.9798,-1.9798,-1.9798,-1.9721,-1.6778,-1.541,0.7549,0.7197,0.7028,0.7559,0.7301,0.6956,0.0,0.0,0.0,0.8032,0.796,0.7992,0.8703,0.9214,0.9342,0.8805,0.9604,0.994,0.8867,0.9767,1.0656,1.0931,1.1362,1.1747,1.2071,1.2489,1.3024,1.3765,1.3916,1.4453,1.5567,1.6081,1.6557,1.7025,1.6942,1.6463,1.5552,1.4559,1.3421,1.2105,1.0272,0.9164,0.8635,0.6467,0.5416,0.5243,0.4206,0.3413,0.281,0.2095,0.1518,0.1006,0.0292,0.0,0.0,0.0,0.0,0.0,0.0,0.0,0.0,0.0,0.0,0.0,0.0,0.0,0.0,0.0,0.0,0.014,0.0727,0.2676,0.3735,0.0727,0.0,0.0,0.0,0.0,0.0,0.0,0.0,0.0,0.0,-0.0572,-0.2047,-0.4957,-0.5395,-0.5395,-0.5395,-0.5395,-0.5395,-0.5395,-0.5395,-0.5395,-0.5395,-0.6013,-0.7605,-1.0428,-1.0593,-1.0593,-1.0593,-1.3687,-1.541,-1.541,-1.7747,-1.8953,-1.8953,-1.8953,-1.8953,-1.89,-1.6507,-1.541,0.8762,0.875,0.8538,0.7861,0.8207,0.832,0.6852,0.0,0.7439,0.679,0.0,0.7394,0.7507,0.0,0.0,0.7412,0.8234,0.8549,0.7473,0.8479,0.9424,0.9748,1.0709,1.1446,1.1721,1.176,1.2033,1.2723,1.2575,1.2762,1.3498,1.4742,1.5311,1.5039,1.5523,1.5169,1.3877,1.345,1.2547,1.1129,0.9963,0.9164,0.8635,0.6888,0.5809,0.526,0.4587,0.4005,0.3398,0.2275,0.1762,0.1585,0.0448,0.0,0.0,0.0,0.0,0.0,0.0,0.0,0.0,0.0,0.0,0.0,0.0,0.0,0.0,0.0,0.0,0.0616,0.3289,0.4236,0.3735,0.0727,0.0,0.0,0.0,0.0,0.0,0.0,0.0,0.0,0.0,-0.2648,-0.4924,-0.5329,-0.5395,-0.5395,-0.5395,-0.5395,-0.5395,-0.5395,-0.5395,-0.5395,-0.5395,-0.8221,-1.0168,-1.0561,-1.0593,-1.0593,-1.0593,-1.3687,-1.541,-1.541,-1.5748,-1.5911,-1.5911,-1.5911,-1.5911,-1.5872,-1.5546,-1.541,0.9052,0.9162,0.9211,0.8607,0.8724,0.875,0.7788,0.7451,0.7388,0.7529,0.0,0.0,0.0,0.0,0.0,0.0,0.8048,0.796,0.7215,0.7853,0.8565,0.9028,0.9508,1.0098,1.0866,1.0782,1.1002,1.1797,1.1268,1.1366,1.2396,1.3293,1.3885,1.4097,1.4392,1.4158,1.333,1.264,1.1841,1.0981,0.964,0.8881,0.8635,0.6972,0.5873,0.526,0.467,0.4092,0.3534,0.2677,0.2317,0.2208,0.1119,0.0401,0.0,0.0,0.0,0.0,0.0,0.0,0.0,0.0,0.0,0.0,0.0,0.0,0.0,0.0,0.1257,0.2899,0.4181,0.4491,0.4181,0.2899,0.1285,0.0,0.0,0.0,0.0,0.0,0.0,-0.0673,-0.2781,-0.4386,-0.5395,-0.5395,-0.5395,-0.5395,-0.5395,-0.5395,-0.5395,-0.5395,-0.5395,-0.621,-0.8253,-0.9748,-1.0593,-1.0593,-1.0593,-1.1445,-1.3317,-1.4678,-1.541,-1.541,-1.541,-1.541,-1.541,-1.541,-1.541,-1.541,-1.541,-1.541,0.9183,0.9352,0.9476,0.9106,0.9004,0.8857,0.832,0.79,0.7734,0.8115,0.7871,0.0,0.0,0.0,0.0,0.0,0.0,0.7531,0.677,0.7192,0.7746,0.8216,0.852,0.9056,0.9978,0.9735,0.9902,1.0859,1.0013,1.0051,1.1426,1.1939,1.2468,1.3093,1.3306,1.319,1.2746,1.1775,1.1041,1.0571,0.9151,0.848,0.8439,0.6894,0.5873,0.526,0.467,0.4092,0.3556,0.2943,0.2696,0.2605,0.1587,0.08,0.0226,0.0049,0.0,0.0,0.0,0.0,0.0,0.0,0.0,0.0,0.0,0.0,0.0,0.0,0.2176,0.4491,0.4491,0.4491,0.4491,0.4491,0.2952,0.121,0.0199,0.0,0.0,0.0,0.0,-0.1143,-0.4791,-0.5395,-0.5395,-0.5395,-0.5395,-0.5395,-0.5395,-0.5395,-0.5395,-0.5395,-0.5395,-0.6437,-0.8967,-0.916,-0.9582,-1.053,-1.0593,-1.1655,-1.3986,-1.4923,-1.541,-1.541,-1.541,-1.541,-1.541,-1.541,-1.541,-1.541,-1.541,-1.541,0.0,0.0,0.0,0.9087,0.0,0.0,0.0,0.8353,0.8711,0.788,0.8673,0.926,0.0,0.0,0.0,0.0,0.0,0.0,0.0,0.6242,0.6838,0.7121,0.8073,0.884,0.9201,0.8642,0.8757,0.9953,0.882,0.8768,1.0356,1.0703,1.11,1.1648,1.2106,1.219,1.1847,1.0769,1.0011,0.9538,0.8439,0.7919,0.7891,0.6732,0.5873,0.526,0.467,0.4092,0.3556,0.2943,0.2696,0.2605,0.1587,0.106,0.0806,0.0227,0.0,0.0,0.0,0.0,0.0,0.0,0.0,0.0,0.0,0.0,0.0,0.0,0.2176,0.4491,0.4491,0.4491,0.4491,0.4491,0.4877,0.4268,0.0773,0.0,0.0,0.0,0.0,-0.1143,-0.4791,-0.5395,-0.5395,-0.5395,-0.5395,-0.5395,-0.5395,-0.5395,-0.5395,-0.5395,-0.5395,-0.5462,-0.5557,-0.5557,-0.7022,-1.0396,-1.0593,-1.0656,-1.0744,-1.3747,-1.541,-1.541,-1.541,-1.541,-1.541,-1.541,-1.541,-1.541,-1.541,-1.541,0.0,0.0,0.9508,0.9003,0.0,0.0,0.0,0.0,0.0,0.7885,0.8503,0.9009,0.0,0.0,0.0,0.0,0.0,0.0,0.0,0.6074,0.6206,0.6301,0.7212,0.7887,0.8002,0.7685,0.7897,0.8927,0.8096,0.0,0.973,0.9937,1.0346,1.1108,1.1075,1.0954,1.0731,1.0079,0.9489,0.8958,0.8234,0.7899,0.787,0.7091,0.6209,0.5281,0.5087,0.4465,0.3578,0.3376,0.3306,0.3274,0.3072,0.2665,0.2035,0.0554,0.0,0.0,0.0,0.0,0.0,0.0,0.0,0.0,0.0,0.0,0.0,0.0,0.0727,0.1981,0.3987,0.4491,0.4491,0.4491,0.4952,0.442,0.0774,0.0,0.0,0.0,0.0,-0.1143,-0.4791,-0.5395,-0.5395,-0.5395,-0.5395,-0.5395,-0.5395,-0.5395,-0.5395,-0.5395,-0.5395,-0.5395,-0.5395,-0.7507,-0.9358,-1.053,-1.0593,-1.0593,-1.0593,-1.1655,-1.3235,-1.5352,-1.541,-1.541,-1.541,-1.541,-1.541,-1.541,-1.541,-1.541,0.8034,0.8709,0.0,0.8898,0.9111,0.0,0.8551,0.0,0.8967,0.0,0.0,0.0,0.0,0.0,0.0,0.0,0.0,0.0,0.0,0.5777,0.5754,0.5754,0.6474,0.7008,0.7073,0.6841,0.7128,0.8247,0.757,0.7823,0.0,0.927,0.9686,1.0859,1.0377,1.0147,1.0196,0.954,0.8938,0.8398,0.7842,0.7489,0.728,0.6901,0.6081,0.4978,0.4978,0.4465,0.3604,0.3604,0.3604,0.3621,0.3825,0.3492,0.2745,0.1526,0.062,0.0,0.0,0.0,0.0,0.0,0.0,0.0196,0.1285,0.0838,0.0,0.0,0.0,0.0448,0.2399,0.3707,0.4545,0.476,0.5112,0.4755,0.2415,0.0908,0.0,0.0,0.0,-0.1143,-0.4791,-0.5395,-0.5395,-0.5395,-0.5395,-0.5395,-0.5395,-0.5395,-0.5395,-0.5395,-0.5395,-0.5918,-0.7149,-0.8188,-0.9294,-1.0523,-1.0593,-1.0593,-1.0593,-1.0593,-1.1562,-1.3657,-1.3687,-1.4264,-1.541,-1.541,-1.4805,-1.3717,-1.4864,-1.4805]},{"header":{"parameterUnit":"m.s-1","parameterCategory":1,"la1":30.6,"la2":29.2853,"lo1":-89.7004,"lo2":-87.6739,"dy":0.0162,"dx":0.0183,"nx":112,"ny":82,"refTime":"2025-11-04T12:00:00:Z","depth":0,"parameterNumber":3,"parameterNumberName":"V-component_of_WINDS"},"data":[0.0,0.0,0.0,0.0,0.0,0.0,0.0,0.0,0.0,0.0,0.0,0.0,0.0,0.0,0.0,0.0,0.0,0.0,0.0,0.0,0.0,0.0,0.0,0.0,0.0,0.0,0.0,0.0,0.0,0.0,0.0,0.0,0.0,0.0,0.0,0.0,0.0,0.0,0.0,0.0,0.0,0.0,0.0,0.0,0.0,0.0,0.0,0.0,0.0,0.0,0.0,0.0,0.0,0.0,0.0,0.0,0.0,0.0,0.0,0.0,0.0,0.0,0.0,0.0,0.0,0.0,0.0,0.0,0.0,0.0,0.0,0.0,0.0,0.0,0.0,0.0,0.0,0.0,0.0,0.0,0.0,0.0,0.0,0.0,0.0,0.0,0.0,0.0,0.0,0.0,0.2771,0.3232,0.3888,0.4436,0.4785,0.503,0.5176,0.5224,0.0,0.0,0.0,0.0,0.0,0.0,0.0,0.0,0.0,0.0,0.0,0.0,0.0,0.0,0.0,0.0,0.0,0.0,0.0,0.0,0.0,0.0,0.0,0.0,0.0,0.0,0.0,0.0,0.0,0.0,0.0,0.0,0.0,0.0,0.0,0.0,0.0,0.0,0.0,0.0,0.0,0.0,0.0,0.0,0.0,0.0,0.0,0.0,0.0,0.0,0.0,0.0,0.0,0.0,0.0,0.0,0.0,0.0,0.0,0.0,0.0,0.0,0.0,0.0,0.0,0.0,0.0,0.0,0.0,0.0,0.0,0.0,0.0,0.0,0.0,0.0,0.0,0.0,0.0,0.0,0.0,0.0,0.0,0.0,0.0,0.0,0.0,0.0,0.0,0.0,0.0,0.0,0.0,0.0,0.0,0.0,0.0,0.0,0.0,0.0,0.0,0.0,0.0,0.0,0.2989,0.4018,0.423,0.4587,0.532,0.5416,0.5535,0.5763,0.0,0.0,0.0,0.0,0.0,0.0,0.0,0.0,0.0,0.0,0.0,0.0,0.0,0.0,0.0,0.0,0.0,0.0,0.0,0.0,0.0,0.0,0.0,0.0,0.0,0.0,0.0,0.0,0.0,0.0,0.0,0.0,0.0,0.0,0.0,0.0,0.0,0.0,0.0,0.0,0.0,0.0,0.0,0.0,0.0,0.0,0.0,0.0,0.0,0.0,0.0,0.0,0.0,0.0,0.0,0.0,0.0,0.0,0.0,0.0,0.0,0.0,0.0,0.0,0.0,0.0,0.0,0.0,0.0,0.0,0.0,0.0,0.0,0.0,0.0,0.0,0.0,0.0,0.0,0.0,0.0,0.0,0.0,0.0,0.0,0.0,0.0,0.0,0.0,0.0,0.0,0.0,0.0,0.0,0.0,0.0,0.0,0.0,0.0,0.0,0.0,0.0,0.0,0.2998,0.3401,0.4216,0.4426,0.4726,0.5243,0.5416,0.5605,0.5883,0.497,0.0,0.0,0.0,0.0,0.0,0.0,0.0,0.0,0.0,0.0,0.0,0.0,0.0,0.0,0.0,0.0,0.0,0.0,0.0,0.0,0.0,0.0,0.0,0.0,0.0,0.0,0.0,0.0,0.0,0.0,0.0,0.0,0.0,0.0,0.0,0.0,0.0,0.0,0.0,0.0,0.0,0.0,0.0,0.0,0.0,0.0,0.0,0.0,0.0,0.0,0.0,0.0,0.0,0.0,0.0,0.0,0.0,0.0,0.0,0.0,0.0,0.0,0.0,0.0,0.0,0.0,0.0,0.0,0.0,0.0,0.0,0.0,0.0,0.0,0.0,0.0,0.0,0.0,0.0,0.0,0.0,0.0,0.0,0.0,0.0,0.0,0.0,0.0,0.0,0.0,0.0,0.0,0.0,0.0,0.0,0.0,0.0,0.0,0.0,0.0,0.0,0.0,0.334,0.378,0.425,0.4537,0.4834,0.5166,0.5444,0.5708,0.5954,0.5162,0.0,0.0,0.0,0.0,0.0,0.0,0.0,0.0,0.0,0.0,0.0,0.0,0.0,0.0,0.0,0.0,0.0,0.0,0.0,0.0,0.0,0.0,0.0,0.0,0.0,0.0,0.0,0.0,0.0,0.0,0.0,0.0,0.0,0.0,0.0,0.0,0.0,0.0,0.0,0.0,0.0,0.0,0.0,0.0,0.0,0.0,0.0,0.0,0.0,0.0,0.0,0.0,0.0,0.0,0.0,0.0,0.0,0.0,0.0,0.0,0.0,0.0,0.0,0.0,0.0,0.0,0.0,0.0,0.0,0.0,0.0,0.0,0.0,0.0,0.0,0.0,0.0,0.0,0.0,0.0,0.0,0.0,0.0,0.0,0.0,0.0,0.0,0.0,0.0,0.0,0.0,0.0,0.0,0.0,0.0,0.0,0.0,0.0,0.0,0.0,0.0,0.0,0.3353,0.3984,0.4264,0.4537,0.4912,0.5435,0.5717,0.5964,0.6174,0.5423,0.0,0.0,0.0,0.0,0.0,0.0,0.0,0.0,0.0,0.0,0.0,0.0,0.0,0.0,0.0,0.0,0.0,0.0,0.0,0.0,0.0,0.0,0.0,0.0,0.0,0.0,0.0,0.0,0.0,0.0,0.0,0.0,0.0,0.0,0.0,0.0,0.0,0.0,0.0,0.0,0.0,0.0,0.0,0.0,0.0,0.0,0.0,0.0,0.0,0.0,0.0,0.0,0.0,0.0,0.0,0.0,0.0,0.0,0.0,0.0,0.0,0.0,0.0,0.0,0.0,0.0,0.0,0.0,0.0,0.0,0.0,0.0,0.0,0.0,0.0,0.0,0.0,0.0,0.0,0.0,0.0,0.0,0.0,0.0,0.0,0.0,0.0,0.0,0.0,0.0,0.0,0.0,0.0,0.0,0.0,0.0,0.0,0.0,0.0,0.0,0.0,0.0,0.3594,0.4067,0.4501,0.4785,0.503,0.5233,0.565,0.5927,0.6007,0.0,0.0,0.0,0.0,0.0,0.0,0.0,0.0,0.0,0.0,0.0,0.0,0.0,0.0,0.0,0.0,0.0,0.0,0.0,0.0,0.0,0.0,0.0,0.0,0.0,0.0,0.0,0.0,0.0,0.0,0.0,0.0,0.0,0.0,0.0,0.0,0.0,0.0,0.0,0.0,0.0,0.0,0.0,0.0,0.0,0.0,0.0,0.0,0.0,0.0,0.0,0.0,0.0,0.0,0.0,0.0,0.0,0.0,0.0,0.0,0.0,0.0,0.0,0.0,0.0,0.0,0.0,0.0,0.0,0.0,0.0,0.0,0.0,0.0,0.0,0.0,0.0,0.0,0.0,0.0,0.0,0.0,0.0,0.0,0.0,0.0,0.0,0.0,0.0,0.0,0.0,0.0,0.0,0.0,0.0,0.0,0.0,0.0,0.0,0.0,0.0,0.0,0.3406,0.3878,0.4297,0.4659,0.4942,0.5098,0.5098,0.5594,0.5902,0.5902,0.0,0.0,0.0,0.0,0.0,0.0,0.0,0.0,0.0,0.0,0.0,0.0,0.0,0.0,0.0,0.0,0.0,0.0,0.0,0.0,0.0,0.0,0.0,0.0,0.0,0.0,0.0,0.0,0.0,0.0,0.0,0.0,0.0,0.0,0.0,0.0,0.0,0.0,0.0,0.0,0.0,0.0,0.0,0.0,0.0,0.0,0.0,0.0,0.0,0.0,0.0,0.0,0.0,0.0,0.0,0.0,0.0,0.0,0.0,0.0,0.0,0.0,0.0,0.0,0.0,0.0,0.0,0.0,0.0,0.0,0.0,0.0,0.0,0.0,0.0,0.0,0.0,0.0,0.0,0.0,0.0,0.0,0.0,0.0,0.0,0.0,0.0,0.0,0.0,0.0,0.0,0.0,0.0,0.0,0.0,0.0,0.0,0.0,0.0,0.0,0.0,0.0,0.3462,0.4207,0.4696,0.4696,0.4942,0.5098,0.5098,0.5594,0.5902,0.0,0.0,0.0,0.0,0.0,0.0,0.0,0.0,0.0,0.0,0.0,0.0,0.0,0.0,0.0,0.0,0.0,0.0,0.0,0.0,0.0,0.0,0.0,0.0,0.0,0.0,0.0,0.0,0.0,0.0,0.0,0.0,0.0,0.0,0.0,0.0,0.0,0.0,0.0,0.0,0.0,0.0,0.0,0.0,0.0,0.0,0.0,0.0,0.0,0.0,0.0,0.0,0.0,0.0,0.0,0.0,0.0,0.0,0.0,0.0,0.0,0.0,0.0,0.0,0.0,0.0,0.0,0.0,0.0,0.0,0.0,0.0,0.0,0.0,0.0,0.0,0.0,0.0,0.0,0.0,0.0,0.0,0.0,0.0,0.0,0.0,0.0,0.0,0.0,0.0,0.0,0.0,0.0,0.0,0.0,0.0,0.0,0.0,0.0,0.0,0.0,0.0,0.0,0.3969,0.4436,0.4765,0.4961,0.5049,0.5098,0.5098,0.5594,0.5902,0.5902,0.0,0.0,0.0,0.0,0.0,0.0,0.0,0.0,0.0,0.0,0.0,0.0,0.0,0.0,0.0,0.0,0.0,0.0,0.0,0.0,0.0,0.0,0.0,0.0,0.0,0.0,0.0,0.0,0.0,0.0,0.0,0.0,0.0,0.0,0.0,0.0,0.0,0.0,0.0,0.0,0.0,0.0,0.0,0.0,0.0,0.0,0.0,0.0,0.0,0.0,0.0,0.0,0.0,0.0,0.0,0.0,0.0,0.0,0.0,0.0,0.0,0.0,0.0,0.0,0.0,0.0,0.0,0.0,0.0,0.0,0.0,0.0,0.0,0.0,0.0,0.0,0.0,0.0,0.0,0.0,0.0,0.0,0.0,0.0,0.0,0.0,0.0,0.0,0.0,0.0,0.0,0.0,0.0,0.0,0.0,0.0,0.0,0.0,0.0,0.0,0.0,0.0,0.4205,0.4626,0.4922,0.5078,0.5204,0.5262,0.5262,0.5723,0.5926,0.5717,0.0,0.0,0.0,0.0,0.0,0.0,0.0,0.0,0.0,0.0,0.0,0.0,0.0,0.0,0.0,0.0,0.0,0.0,0.0,0.0,0.0,0.0,0.0,0.0,0.0,0.0,0.0,0.0,0.0,0.0,0.0,0.0,0.0,0.0,0.0,0.0,0.0,0.0,0.0,0.0,0.0,0.0,0.0,0.0,0.0,0.0,0.0,0.0,0.0,0.0,0.0,0.0,0.0,0.0,0.0,0.0,0.0,0.0,0.0,0.0,0.0,0.0,0.0,0.0,0.0,0.0,0.0,0.0,0.0,0.0,0.0,0.0,0.0,0.0,0.0,0.0,0.0,0.0,0.0,0.0,0.0,0.0,0.0,0.0,0.0,0.0,0.0,0.0,0.0,0.0,0.0,0.0,0.0,0.0,0.0,0.0,0.0,0.0,0.0,0.0,0.0,0.0,0.4225,0.4765,0.5098,0.5098,0.532,0.5473,0.5502,0.5916,0.5965,0.5505,0.0,0.0,0.0,0.0,0.0,0.0,0.0,0.0,0.0,0.0,0.0,0.0,0.0,0.0,0.0,0.0,0.0,0.0,0.0,0.0,0.0,0.0,0.0,0.0,0.0,0.0,0.0,0.0,0.0,0.0,0.0,0.0,0.0,0.0,0.0,0.0,0.0,0.0,0.0,0.0,0.0,0.0,0.0,0.0,0.0,0.0,0.0,0.0,0.0,0.0,0.0,0.0,0.0,0.0,0.0,0.0,0.0,0.0,0.0,0.0,0.235,0.3014,0.0,0.0,0.0,0.0,0.0,0.0,0.0,0.0,0.0,0.0,0.0,0.0,0.0,0.0,0.0,0.0,0.0,0.0,0.0,0.0,0.0,0.0,0.0,0.0,0.0,0.0,0.0,0.0,0.0,0.0,0.0,0.0,0.0,0.0,0.0,0.0,0.0,0.0,0.0,0.0,0.4244,0.4765,0.5098,0.5098,0.5146,0.5272,0.5483,0.578,0.5979,0.6029,0.5384,0.0,0.0,0.0,0.0,0.0,0.0,0.0,0.0,0.0,0.0,0.0,0.0,0.0,0.0,0.0,0.0,0.0,0.0,0.0,0.0,0.0,0.0,0.0,0.0,0.0,0.0,0.0,0.0,0.0,0.0,0.0,0.0,0.0,0.0,0.0,0.0,0.0,0.0,0.0,0.0,0.0,0.0,0.0,0.0,0.0,0.0,0.0,0.0,0.0,0.0,0.0,0.0,0.0,0.0,0.0,0.0,0.0,0.0,0.0,0.3113,0.3495,0.0,0.0,0.0,0.0,0.0,0.0,0.0,0.0,0.0,0.0,0.0,0.0,0.0,0.0,0.0,0.0,0.0,0.0,0.0,0.0,0.0,0.0,0.0,0.0,0.0,0.0,0.0,0.0,0.0,0.0,0.0,0.0,0.0,0.0,0.0,0.0,0.0,0.0,0.0,0.0,0.4448,0.4853,0.5098,0.5098,0.5329,0.5538,0.568,0.6029,0.617,0.6015,0.5623,0.0,0.0,0.0,0.0,0.0,0.0,0.0,0.0,0.0,0.0,0.0,0.0,0.0,0.0,0.0,0.0,0.0,0.0,0.0,0.0,0.0,0.0,0.0,0.0,0.0,0.0,0.0,0.0,0.0,0.0,0.0,0.0,0.0,0.0,0.0,0.0,0.0,0.0,0.0,0.0,0.0,0.0,0.0,0.0,0.0,0.0,0.0,0.0,0.0,0.0,0.0,0.0,0.0,0.4282,0.3811,0.3811,0.3811,0.3811,0.3811,0.3811,0.3811,0.3791,0.3592,0.0,0.0,0.0,0.0,0.0,0.0,0.0,0.0,0.0,0.0,0.0,0.0,0.0,0.0,0.0,0.0,0.0,0.0,0.0,0.0,0.0,0.0,0.0,0.0,0.6513,0.6199,0.51,0.0,0.0,0.0,0.0,0.0,0.0,0.0,0.0,0.0,0.0,0.0,0.4851,0.5095,0.5264,0.5362,0.5731,0.5954,0.5957,0.6304,0.6365,0.5963,0.5858,0.5424,0.0,0.0,0.0,0.0,0.0,0.0,0.0,0.0,0.0,0.0,0.0,0.0,0.0,0.0,0.0,0.0,0.0,0.0,0.0,0.0,0.0,0.0,0.0,0.0,0.0,0.0,0.0,0.0,0.0,0.0,0.0,0.0,0.2686,0.3214,0.0,0.0,0.0,0.0,0.0,0.0,0.0,0.0,0.0,0.0,0.0,0.0,0.0,0.1803,0.1803,0.3819,0.5001,0.5293,0.5139,0.5065,0.5065,0.5065,0.5065,0.5065,0.5065,0.0,0.4985,0.3936,0.0,0.0,0.0,0.0,0.0,0.0,0.0,0.0,0.0,0.0,0.0,0.0,0.0,0.0,0.0,0.0,0.0,0.0,0.0,0.0,0.0,0.0,0.6552,0.6855,0.6917,0.6956,0.7057,0.598,0.4864,0.4456,0.3956,0.3547,0.0,0.0,0.0,0.0,0.0,0.0,0.5631,0.5727,0.5908,0.6438,0.6296,0.6163,0.6156,0.6218,0.6317,0.649,0.6064,0.5938,0.6261,0.5493,0.0,0.0,0.0,0.0,0.0,0.0,0.0,0.0,0.0,0.0,0.0,0.0,0.0,0.0,0.0,0.0,0.0,0.0,0.0,0.0,0.0,0.0,0.0,0.0,0.0,0.0,0.0,0.0,0.0,0.231,0.2736,0.3119,0.3363,0.33,0.0,0.0,0.0,0.0,0.0,0.0,0.0,0.0,0.0,0.3752,0.3769,0.3769,0.3769,0.4784,0.4804,0.3849,0.4826,0.5293,0.5293,0.5293,0.5293,0.5293,0.5293,0.5293,0.5253,0.4723,0.4109,0.3495,0.0,0.0,0.0,0.0,0.3495,0.3599,0.4269,0.4864,0.5293,0.5293,0.0,0.0,0.0,0.0,0.0,0.0,0.0,0.7418,0.0,0.0,0.7541,0.8326,0.852,0.8649,0.9088,0.8144,0.6906,0.5875,0.5471,0.5058,0.4302,0.453,0.0,0.0,0.0,0.5994,0.6706,0.6771,0.6859,0.7123,0.7155,0.7034,0.6737,0.6802,0.6803,0.6615,0.6382,0.6219,0.6144,0.5988,0.572,0.0,0.0,0.0,0.0,0.0,0.0,0.0,0.0,0.0,0.0,0.0,0.0,0.0,0.0,0.0,0.0,0.0,0.0,0.0,0.0,0.0,0.0,0.0,0.0,0.0,0.0,0.0,0.0,0.2497,0.2888,0.3037,0.3409,0.3612,0.0,0.0,0.0,0.0,0.0,0.0,0.5246,0.4449,0.4375,0.5266,0.5293,0.5293,0.5293,0.5293,0.4644,0.338,0.4676,0.5293,0.5293,0.5293,0.5293,0.5293,0.5293,0.5293,0.5293,0.5293,0.4763,0.3963,0.3963,0.3963,0.3963,0.3963,0.3963,0.4089,0.4992,0.5494,0.5695,0.5394,0.5293,0.5293,0.5293,0.0,0.0,0.0,0.0,0.8665,0.8665,0.8374,0.8348,0.9414,0.9756,1.0028,1.0779,1.0279,0.9199,0.7539,0.7052,0.6585,0.5584,0.5832,0.0,0.6169,0.6585,0.7131,0.7738,0.7726,0.7772,0.8013,0.8126,0.8039,0.7668,0.7768,0.7613,0.7036,0.6958,0.6668,0.6112,0.6419,0.6219,0.5425,0.0,0.0,0.0,0.0,0.0,0.0,0.0,0.0,0.0,0.0,0.0,0.0,0.0,0.0,0.0,0.0,0.0,0.0,0.0,0.0,0.0,0.0,0.0,0.0,0.0,0.0,0.0,0.0,0.0,0.3469,0.3825,0.0,0.0,0.0,0.0,0.3495,0.4562,0.5233,0.5293,0.5239,0.5233,0.5293,0.5293,0.5293,0.5293,0.5293,0.5261,0.5166,0.5261,0.5293,0.5293,0.5293,0.5293,0.5293,0.5293,0.5293,0.5293,0.5293,0.526,0.5206,0.5206,0.5206,0.5206,0.5206,0.5206,0.5213,0.5273,0.6005,0.6727,0.5655,0.5293,0.5293,0.5293,0.5253,0.0,0.0,0.7622,0.7763,0.7763,0.8026,0.8509,0.9392,0.9901,1.0525,1.1821,1.1816,1.1028,0.923,0.8121,0.744,0.7372,0.0,0.7406,0.7406,0.744,0.7749,0.8538,0.8353,0.85,0.9398,0.9163,0.8985,0.9085,0.9102,0.8818,0.8166,0.7937,0.7539,0.6873,0.6685,0.6574,0.6524,0.5513,0.0,0.0,0.0,0.0,0.0,0.0,0.0,0.0,0.0,0.0,0.0,0.0,0.0,0.0,0.0,0.0,0.0,0.0,0.0,0.0,0.0,0.0,0.0,0.0,0.0,0.0,0.0,0.0,0.4017,0.4202,0.0,0.4089,0.4076,0.4236,0.4629,0.5059,0.5293,0.5293,0.5293,0.5293,0.5293,0.5293,0.5293,0.5293,0.5293,0.5293,0.5293,0.5293,0.5293,0.534,0.6367,0.6837,0.6837,0.6837,0.6837,0.6837,0.6837,0.6229,0.5511,0.7668,0.8513,0.8513,0.8513,0.7624,0.64,0.64,0.6653,0.6933,0.6533,0.64,0.64,0.64,0.7389,0.8631,0.9206,0.8558,0.7695,0.7695,0.8415,0.9282,0.9899,1.0481,1.1246,1.2461,1.251,1.2273,1.2076,1.1034,0.9991,0.9292,0.9324,0.9314,0.8966,0.9028,0.935,1.0026,1.0008,1.0069,1.0404,1.0307,1.0071,0.9744,0.971,0.9282,0.8271,0.813,0.7794,0.7123,0.6903,0.6791,0.6791,0.6087,0.5704,0.0,0.0,0.0,0.0,0.0,0.0,0.0,0.0,0.0,0.0,0.0,0.0,0.0,0.0,0.0,0.0,0.0,0.0,0.0,0.0,0.0,0.0,0.0,0.0,0.0,0.3591,0.3958,0.4356,0.4576,0.4623,0.4422,0.4583,0.4878,0.5266,0.5293,0.5293,0.5293,0.5293,0.5293,0.5293,0.5293,0.5293,0.5293,0.5293,0.5293,0.5293,0.5293,0.5293,0.534,0.6413,0.719,0.7695,0.7695,0.7695,0.7695,0.7695,0.7071,0.6332,0.8546,0.9424,0.9492,1.0087,0.8656,0.6433,0.6433,0.6673,0.7,0.7,0.7509,0.8121,0.8121,0.9142,1.0185,0.959,0.8772,0.8062,0.799,0.8757,0.9682,1.0286,1.1034,1.1923,1.3128,1.3439,1.3614,1.3998,1.2995,1.1854,1.1135,1.1156,1.1161,1.0801,1.0689,1.0789,1.1182,1.1033,1.0932,1.1024,1.1036,1.0925,1.062,1.0613,1.0085,0.8851,0.8694,0.8245,0.7368,0.7112,0.7004,0.7004,0.648,0.6118,0.5929,0.0,0.0,0.0,0.0,0.0,0.0,0.0,0.0,0.0,0.0,0.0,0.0,0.0,0.0,0.0,0.0,0.0,0.0,0.0,0.0,0.0,0.0,0.0,0.3366,0.4186,0.4708,0.4462,0.4945,0.5072,0.4489,0.4965,0.5293,0.5293,0.5293,0.5277,0.5214,0.5261,0.5293,0.5293,0.5293,0.5293,0.5293,0.5293,0.5293,0.5293,0.5293,0.5293,0.5293,0.5293,0.6183,0.7695,0.7695,0.7695,0.7695,0.7695,0.7695,0.7695,0.7695,0.7695,0.79,0.959,0.814,0.5293,0.5293,0.6019,0.6946,0.7009,0.8464,1.0224,1.0224,1.0224,0.9853,0.8178,0.8223,0.872,0.8586,0.8962,0.9609,1.0466,1.1429,1.2506,1.3771,1.4558,1.4979,1.4804,1.3719,1.2829,1.2829,1.2829,1.2829,1.2829,1.2326,0.0,1.1964,1.1371,1.1052,1.1313,1.1333,1.1457,1.1779,1.1801,1.1272,1.0007,0.9672,0.8955,0.77,0.7399,0.7254,0.7262,0.6736,0.6188,0.5659,0.0,0.0,0.0,0.0,0.0,0.0,0.0,0.0,0.0,0.0,0.0,0.0,0.0,0.0,0.0,0.0,0.0,0.0,0.0,0.0,0.0,0.428,0.4709,0.4435,0.4627,0.4854,0.5038,0.5199,0.5233,0.5072,0.5199,0.5293,0.5293,0.5293,0.474,0.3478,0.4612,0.5293,0.5293,0.5293,0.5293,0.5293,0.5293,0.5293,0.5293,0.5293,0.5293,0.5293,0.5293,0.6183,0.7695,0.7695,0.7695,0.7695,0.7695,0.7695,0.7695,0.7695,0.7695,0.7754,0.8236,0.7098,0.5293,0.5293,0.5507,0.5958,0.7132,0.7911,0.8412,0.8412,0.8412,0.8314,0.7832,0.7846,0.8227,0.9262,0.9396,0.9394,0.9927,1.0676,1.1533,1.2567,1.3123,1.3564,1.3993,1.3786,1.3537,1.3537,1.3537,1.3537,1.3537,1.339,1.3287,1.3287,1.2687,1.2311,1.2378,1.1952,1.1779,1.2081,1.2086,1.1598,1.0419,1.0132,0.9613,0.8728,0.8513,0.8499,0.8652,0.7984,0.7389,0.0,0.0,0.0,0.0,0.0,0.0,0.0,0.0,0.0,0.0,0.0,0.0,0.0,0.0,0.0,0.0,0.0,0.0,0.0,0.0,0.0,0.0,0.5332,0.5552,0.5293,0.5122,0.509,0.5273,0.5293,0.5293,0.5293,0.5293,0.5293,0.5293,0.5293,0.4858,0.3849,0.4746,0.5293,0.5293,0.5293,0.5293,0.5293,0.5967,0.5967,0.5316,0.5983,0.5952,0.5293,0.5293,0.6183,0.7695,0.7695,0.7695,0.7695,0.7695,0.8139,0.0,0.0,0.0,0.0,0.0,0.7116,0.6306,0.6306,0.6306,0.6459,0.7392,0.7695,0.7832,0.8568,0.9353,0.9997,0.9997,0.9348,0.8816,0.9686,1.0106,1.0298,1.0174,1.103,1.2019,1.2424,1.2882,1.3241,1.3361,1.3376,0.0,1.3376,1.3615,1.3797,1.3797,1.3797,1.3797,1.3797,1.3451,1.3223,1.3223,1.2867,1.2637,1.2622,1.2623,0.0,0.0,0.0,1.0468,0.9766,0.9656,0.0,0.0,0.0,0.0,0.0,0.0,0.0,0.0,0.7225,0.7412,0.0,0.0,0.0,0.0,0.0,0.0,0.0,0.0,0.0,0.0,0.0,0.0,0.0,0.0,0.0,0.0,0.6412,0.6037,0.5851,0.5522,0.5293,0.5293,0.5293,0.5293,0.5293,0.5293,0.5293,0.5293,0.5293,0.5293,0.5293,0.5293,0.0,0.0,0.0,0.5293,0.5293,0.6897,0.6981,0.5585,0.7026,0.6942,0.5577,0.5782,0.6641,0.7987,0.7987,0.7987,0.7987,0.7987,0.8916,1.0136,0.849,0.8857,1.0117,0.8558,0.7987,0.7987,0.7987,0.0,0.0,0.7987,0.7987,0.8332,1.0091,1.1836,1.3198,1.3198,1.1798,1.027,1.027,1.1241,1.198,1.1153,1.2164,1.3215,1.2865,1.3268,1.3496,1.2819,1.2696,1.2696,1.273,1.329,1.3745,1.3795,1.3835,1.3835,1.381,1.3722,1.3703,1.3728,0.0,0.0,1.3324,1.331,1.2874,1.1859,1.1705,1.1366,1.0784,1.0759,1.0767,1.0791,1.071,1.0661,1.0661,1.0661,1.0694,1.0695,0.8933,0.8788,0.0,0.0,0.0,0.0,0.0,0.0,0.0,0.0,0.0,0.0,0.0,0.0,0.0,0.0,0.0,0.628,0.6173,0.5944,0.5475,0.534,0.5293,0.5293,0.5293,0.5293,0.5293,0.5293,0.5293,0.5293,0.5293,0.5293,0.5293,0.5293,0.5293,0.5293,0.5293,0.5293,0.5293,0.6897,0.7539,0.7235,0.7549,0.0,0.728,0.8688,0.9497,0.9785,0.9785,0.9785,0.9785,0.9785,1.0009,1.0205,0.916,0.9385,1.0263,0.9931,0.9785,0.9785,0.9785,0.9785,0.9785,0.9785,0.9785,1.0148,1.2064,1.2908,0.0,1.3198,1.2885,1.2559,1.2559,1.3282,1.3868,1.3304,1.3238,1.3215,1.2865,1.2894,1.2804,1.2119,1.1984,1.2061,1.2275,1.2875,1.3428,1.3745,1.3979,1.4053,1.3835,1.3331,1.3093,1.3287,1.2829,1.2885,1.385,1.3923,1.3686,1.3092,1.2298,1.1819,1.1727,1.1687,1.1752,1.1968,1.133,1.1004,1.1004,1.1004,1.1241,1.163,1.0559,1.0208,0.0,0.0,0.0,0.0,0.0,0.0,0.0,0.0,0.0,0.0,0.0,0.677,0.6677,0.0,0.6976,0.6916,0.6669,0.6412,0.6137,0.5641,0.5293,0.5293,0.5293,0.5293,0.5293,0.5293,0.5293,0.5293,0.5293,0.5293,0.5293,0.5293,0.5293,0.5293,0.5293,0.5695,0.6489,0.8173,0.9004,0.9004,0.9004,0.9004,0.9033,0.9911,1.0303,1.0303,1.0303,1.0303,1.0322,1.0649,1.0802,1.0769,1.0508,1.0356,1.0303,1.0303,1.0621,1.1048,1.1048,1.1048,1.1048,1.1048,1.1375,1.1927,1.2908,1.3198,1.3198,1.3198,1.3198,1.3198,1.3198,1.3852,1.442,1.4109,1.4183,1.4215,1.3864,1.3805,1.3591,1.2888,1.2748,1.2671,1.2439,1.2786,1.3114,1.3197,1.3591,1.3797,1.3526,1.3617,1.3698,1.3698,1.3513,1.3579,1.4009,1.3877,1.3646,1.3405,1.2933,1.2673,1.2706,1.2673,1.2706,1.2846,1.2457,1.2254,1.2254,1.2254,1.2385,1.2632,1.2207,1.1926,0.0,0.0,0.0,0.0,0.0,0.0,0.0,0.7641,0.7934,0.8144,0.7956,0.7686,0.7533,0.7347,0.7292,0.7506,0.727,0.6999,0.6841,0.6083,0.5475,0.5325,0.5293,0.5293,0.5293,0.5293,0.5435,0.5742,0.5617,0.5538,0.5538,0.569,0.5785,0.5785,0.594,0.6721,0.8192,0.959,1.0303,1.0303,1.0303,1.0303,1.0303,1.0303,1.0303,1.0322,1.0505,1.0582,1.064,1.1169,1.1412,1.1431,1.1689,1.1311,1.0582,1.0525,1.101,1.1737,1.1993,1.2066,1.2066,1.2066,1.2579,1.3198,1.3198,1.3198,1.3198,1.3198,1.3198,1.3198,1.3198,1.3885,1.4554,1.4451,1.4966,1.538,1.4981,1.4947,1.4771,1.4047,1.3908,1.3752,1.3203,1.3172,1.3062,1.2655,1.3101,1.3367,1.3042,1.3673,1.4074,1.391,1.4081,1.4186,1.4097,1.3804,1.3608,1.3608,1.3481,1.3396,1.3396,1.3396,1.3396,1.3396,1.3396,1.3396,1.3396,1.3396,1.3396,1.3396,1.3396,1.3269,0.8097,0.8271,0.8445,0.8346,0.8375,0.8761,0.0,0.9918,0.9678,0.9882,0.9611,0.9114,0.8322,0.7881,0.7497,0.705,0.7338,0.7353,0.6639,0.6442,0.6098,0.5388,0.5293,0.5293,0.5293,0.5293,0.5897,0.7333,0.6768,0.6366,0.6366,0.7099,0.7531,0.7531,0.8213,0.9044,0.999,1.0205,1.0303,1.0303,1.0303,1.0303,1.0303,1.0303,1.0303,1.0341,1.1236,1.1627,1.1645,1.1719,1.1737,1.1756,1.1792,1.1719,1.1608,1.13,1.1263,1.1523,1.265,1.303,1.303,1.303,1.3112,1.3198,1.3198,1.3198,1.3198,1.3198,1.3198,1.3198,1.3198,1.4019,1.4847,1.484,1.5532,1.6004,1.5386,1.5486,1.5489,1.4815,1.468,1.4729,1.4882,1.44,1.3664,1.2745,1.2862,1.2879,1.2386,1.2396,1.2556,1.2762,1.2812,1.3252,1.4344,1.4401,1.4385,1.4385,1.376,1.3396,1.3396,1.3396,1.3396,1.3396,1.3396,1.3396,1.3396,1.3396,1.3396,1.3396,1.3396,1.3379,0.913,0.9171,0.9192,0.9555,0.9756,1.0008,1.0572,1.0312,0.9951,0.9863,0.9496,0.8935,0.81,0.7812,0.7622,0.7397,0.7554,0.7593,0.7249,0.639,0.6393,0.8016,0.731,0.652,0.6052,0.6006,0.6275,0.6948,0.7594,0.7752,0.7287,0.7887,0.8263,0.8263,0.8594,0.9261,1.0293,1.0303,1.0303,1.0303,1.0303,1.0303,1.0303,1.0303,1.0924,1.2018,1.2425,1.2378,1.2031,1.2156,1.2348,1.256,1.2591,1.2766,1.2911,1.1934,1.1763,1.2072,1.2615,1.2978,1.3198,1.3198,1.3198,1.3198,1.3198,1.3198,1.3198,1.3198,1.3198,1.3284,1.3632,1.431,1.4969,1.5242,1.5962,1.6567,1.6477,1.6729,1.6747,1.6038,1.5916,1.5804,1.5486,1.5178,1.483,1.4416,1.3707,1.3103,1.2703,1.2797,1.2935,1.306,1.3069,1.3281,1.381,1.3853,1.3853,1.3853,1.3574,1.3396,1.3396,1.3396,1.3396,1.3396,1.3396,1.3396,1.3396,1.3396,1.3396,1.3396,1.3396,1.3438,0.9502,0.9647,0.9896,1.0452,1.0831,1.1047,1.0974,1.0602,1.0147,0.9697,0.9256,0.8704,0.7862,0.7695,0.7695,0.7695,0.7695,0.7695,0.7695,0.6701,0.7041,0.9954,0.9189,0.8064,0.7156,0.68,0.6744,0.7059,0.8057,0.8513,0.8142,0.861,0.8876,0.8876,0.9004,0.9469,1.0293,1.0303,1.0303,1.0303,1.0582,1.0706,1.0717,1.0981,1.1872,1.3198,1.3198,1.3057,1.2839,1.2876,1.3123,1.3491,1.3539,1.3769,1.3954,1.2921,1.2596,1.2685,1.2685,1.3,1.3391,1.3391,1.3476,1.3531,1.3425,1.3391,1.3374,1.325,1.3198,1.3323,1.3901,1.4422,1.4938,1.5476,1.6208,1.6892,1.7236,1.7561,1.7631,1.7111,1.6993,1.6841,1.6306,1.6035,1.591,1.591,1.4826,1.3908,1.3644,1.3607,1.3522,1.3311,1.3354,1.3396,1.3396,1.3396,1.3396,1.3396,1.3396,1.3396,1.3396,1.3396,1.3396,1.3396,1.3396,1.3396,1.3396,1.3396,1.3396,1.3396,1.3438,1.3509,0.8869,0.9622,1.0737,1.1004,1.1524,1.1884,1.1625,1.1265,1.0714,0.978,0.9331,0.8806,0.7876,0.7695,0.7695,0.7695,0.7695,0.7695,0.7695,0.7652,0.8296,1.0097,1.0254,0.9775,0.8649,0.7528,0.7345,0.8445,0.8103,0.8173,0.8914,0.9359,0.9565,0.9565,1.001,1.0264,1.0303,1.0303,1.0303,1.0322,1.1292,1.1756,1.1792,1.2703,1.3146,1.3198,1.3198,1.3682,1.4406,1.4019,1.4084,1.447,1.4454,1.447,1.4485,1.4438,1.3888,1.3181,1.3181,1.348,1.3885,1.3885,1.4133,1.439,1.4,1.3885,1.3785,1.3323,1.3198,1.3306,1.3785,1.4214,1.4693,1.5433,1.6208,1.6892,1.7236,1.7561,1.7783,1.7766,1.7766,1.7749,1.7732,1.7145,1.6665,1.6665,1.6028,1.5449,1.5178,1.4519,1.3809,1.3088,1.3234,1.3396,1.3396,1.3396,1.3396,1.3396,1.3396,1.3396,1.3396,1.3396,1.3396,1.3396,1.3396,1.3396,1.3396,1.3396,1.3396,1.3396,1.3524,1.3601,1.0535,1.1424,1.2045,1.1866,1.2257,1.2483,1.1756,1.1216,1.0712,1.0192,0.9622,0.8926,0.7896,0.7695,0.7695,0.7695,0.7695,0.7695,0.7695,0.7695,0.8595,1.1012,1.0042,0.9219,0.9316,0.8466,0.8051,0.8437,0.8547,0.8839,0.9359,1.0128,1.0528,1.0528,1.1039,1.1292,1.1292,1.1292,1.1292,1.1311,1.1825,1.2294,1.2738,1.3047,1.3198,1.3198,1.3198,1.3374,1.3698,1.431,1.4643,1.4752,1.4564,1.4658,1.486,1.4596,1.431,1.4052,1.4052,1.4165,1.4294,1.4294,1.439,1.447,1.4342,1.4294,1.4262,1.41,1.4052,1.4165,1.4596,1.4799,1.5105,1.5879,1.643,1.6892,1.7236,1.7561,1.78,1.78,1.78,1.78,1.78,1.758,1.7422,1.7422,1.639,1.5566,1.5486,1.5241,1.4989,1.4754,1.4813,1.4648,1.4174,1.4141,1.3921,1.343,1.3396,1.3396,1.3396,1.3396,1.3396,1.3396,1.3396,1.3396,1.3396,1.3396,1.3396,1.3396,1.3532,1.3661,1.1582,1.224,1.2537,1.2345,1.2478,1.2434,1.1637,1.1161,1.0712,1.0095,0.9673,0.9066,0.7921,0.7695,0.7695,0.7695,0.7695,0.7802,0.8129,0.8118,0.8977,1.1329,1.0362,0.9607,0.9915,0.9445,0.8974,0.8646,0.8994,0.9485,1.0065,1.0675,1.1094,1.1282,1.1627,1.1792,1.1792,1.1792,1.1884,1.2048,1.2223,1.2626,1.3198,1.3198,1.3198,1.3198,1.3198,1.3547,1.4165,1.458,1.503,1.5448,1.5652,1.5639,1.5566,1.5795,1.5638,1.5205,1.4681,1.4596,1.4705,1.4705,1.483,1.4922,1.4768,1.4705,1.4674,1.4549,1.4598,1.4772,1.5167,1.5389,1.5694,1.647,1.6825,1.7064,1.742,1.7658,1.78,1.78,1.78,1.78,1.78,1.78,1.78,1.78,1.6988,1.6289,1.6028,1.5994,1.5893,1.5629,1.5595,1.5409,1.4926,1.4892,1.4699,1.4217,1.3946,1.3794,1.3794,1.354,1.3396,1.3396,1.3396,1.3396,1.3396,1.3454,1.347,1.3478,1.3701,1.404,1.1973,1.213,1.2321,1.2444,1.2232,1.1858,1.132,1.1071,1.0657,0.9646,0.9494,0.9185,0.796,0.771,0.77,0.77,0.769,0.7997,0.8867,0.8868,0.9428,1.1147,1.1186,1.09,1.052,1.0474,1.0085,0.9165,0.944,1.0036,1.095,1.1065,1.1345,1.1847,1.1909,1.1945,1.1945,1.1945,1.2162,1.2603,1.2603,1.2808,1.3198,1.3198,1.325,1.3323,1.3323,1.4262,1.5741,1.4907,1.536,1.668,1.7574,1.7333,1.659,1.794,1.7731,1.659,1.5189,1.493,1.5235,1.5266,1.5566,1.5845,1.5417,1.5312,1.5206,1.4794,1.4892,1.5227,1.5562,1.5929,1.6407,1.7118,1.732,1.7415,1.7749,1.7833,1.7845,1.7845,1.7833,1.7822,1.78,1.78,1.78,1.78,1.78,1.7557,1.6841,1.6766,1.6485,1.5781,1.5714,1.5697,1.5663,1.5663,1.5629,1.5595,1.4943,1.4554,1.4554,1.3879,1.3523,1.3532,1.3532,1.354,1.3557,1.3685,1.3736,1.3744,1.4142,1.4738,1.3176,1.3353,1.3214,1.2522,1.2145,1.1803,1.1309,1.0672,1.0127,0.9888,0.9396,0.885,0.8392,0.7971,0.7678,0.7632,0.7665,0.7944,0.8613,0.8582,0.9356,1.1682,1.1147,1.0807,1.1381,1.1441,1.1204,1.0605,1.0344,1.0428,1.0979,1.1985,1.2629,1.2763,1.3453,1.3799,1.3799,1.3799,1.3878,1.3989,1.3989,1.3706,1.3198,1.3198,1.3917,1.5134,1.5134,1.5389,1.5784,1.5566,1.6898,1.905,1.8588,1.8377,1.8369,1.8706,1.8477,1.7915,1.7532,1.7239,1.7095,1.744,1.7654,1.7775,1.7948,1.8005,1.7866,1.7221,1.7094,1.7068,1.6606,1.6575,1.6757,1.7195,1.7452,1.7693,1.8029,1.8249,1.84,1.84,1.8229,1.8018,1.7816,1.78,1.78,1.78,1.78,1.7732,1.7529,1.7523,1.7456,1.7259,1.7242,1.7016,1.6468,1.6417,1.618,1.5629,1.5426,1.5325,1.5325,1.5138,1.5132,1.5323,1.5349,1.5436,1.5646,1.5677,1.5701,1.5683,1.5889,1.6173,1.378,1.3797,1.3521,1.2358,1.2082,1.1856,1.1043,1.0761,1.047,0.9679,0.9141,0.8702,0.8336,0.8056,0.7856,0.7785,0.7882,0.8223,0.8933,0.8808,0.9379,1.1435,1.1273,1.1193,1.174,1.1983,1.1915,1.1441,1.1164,1.1202,1.1641,1.2571,1.3209,1.3437,1.4122,1.4501,1.4501,1.4501,1.4501,1.4501,1.4501,1.4246,1.3752,1.3374,1.4149,1.5858,1.6997,1.7946,1.8626,1.8232,1.8977,2.0326,2.0267,1.9811,1.9297,1.9919,1.9704,1.9137,1.9436,1.9374,1.9057,1.8563,1.8408,1.8483,1.8877,1.9006,1.8909,1.8497,1.8257,1.8036,1.774,1.7547,1.7492,1.7793,1.7988,1.8146,1.8323,1.8489,1.8595,1.8595,1.8381,1.8146,1.8003,1.7872,1.78,1.78,1.78,1.7828,1.796,1.7982,1.7982,1.7982,1.8072,1.7983,1.7572,1.7425,1.7182,1.6771,1.6439,1.625,1.625,1.6064,1.601,1.6159,1.6185,1.6253,1.6393,1.6455,1.6494,1.6494,1.675,1.7117,1.3976,1.3797,1.3513,1.2358,1.2173,1.2005,1.0897,1.1066,1.0967,0.9247,0.8772,0.8487,0.7921,0.7908,0.7965,0.7915,0.8136,0.8584,0.9396,0.9266,0.9567,1.087,1.1489,1.1855,1.1966,1.2354,1.2443,1.209,1.2072,1.2234,1.2555,1.3068,1.364,1.42,1.4613,1.4801,1.4801,1.4801,1.4801,1.4801,1.4769,1.4721,1.4643,1.3885,1.4456,1.6188,1.845,2.0458,2.2077,2.1447,2.1106,2.1092,2.1958,2.1317,2.0022,2.124,2.1053,2.0297,2.0878,2.1039,2.0767,1.931,1.884,1.8975,1.938,1.9533,1.9542,1.943,1.9078,1.8759,1.8907,1.8594,1.831,1.8537,1.8641,1.8642,1.8642,1.867,1.8688,1.8669,1.8469,1.828,1.8208,1.8014,1.7845,1.7811,1.7833,1.7938,1.8166,1.8198,1.8208,1.8249,1.846,1.8595,1.8595,1.8391,1.8249,1.8249,1.7654,1.729,1.729,1.6914,1.6713,1.6746,1.6754,1.677,1.6785,1.6938,1.7002,1.7009,1.7374,1.7923,1.3976,1.3797,1.3737,1.3498,1.2861,1.2223,1.1952,1.102,0.9963,0.9084,0.8412,0.7743,0.6982,0.7117,0.7369,0.7414,0.7921,0.8469,0.8958,0.9626,1.031,1.101,1.1838,1.2519,1.2913,1.303,1.3207,1.3522,1.3539,1.3378,1.3017,1.4114,1.5106,1.5852,1.6227,1.6403,1.6403,1.6403,1.6403,1.6403,1.6117,1.5839,1.558,1.5418,1.6097,1.74,1.7848,1.9258,2.126,2.1842,2.2065,2.2073,2.2229,2.2099,2.1841,2.2093,2.1816,2.1342,2.1458,2.1275,2.1007,2.1046,2.1229,2.1541,2.1941,2.2249,2.2333,2.1733,2.1038,2.0335,1.9773,1.9082,1.8537,1.8585,1.877,1.8931,1.8931,1.9049,1.9132,1.8948,1.8896,1.8725,1.828,1.8156,1.8068,1.7816,1.7992,1.8146,1.8187,1.8198,1.828,1.8508,1.8566,1.8595,1.8595,1.8556,1.8528,1.8528,1.8414,1.8343,1.8343,1.8267,1.8315,1.8535,1.8562,1.8636,1.8791,1.8996,1.908,1.9087,1.9257,1.9471,1.4014,1.4049,1.4244,1.3887,1.3443,1.2802,1.172,1.0893,0.9992,0.8647,0.8019,0.7529,0.7006,0.7238,0.7509,0.7518,0.7867,0.8321,0.8827,0.9313,0.9906,1.0651,1.1561,1.2318,1.2791,1.3047,1.3391,1.3868,1.4084,1.4103,1.3851,1.4805,1.5651,1.6287,1.6633,1.6802,1.6802,1.6802,1.6802,1.6802,1.6633,1.6301,1.5799,1.5799,1.6741,1.8376,1.8454,1.9703,2.1691,2.1855,2.2092,2.2296,2.2296,2.2296,2.2296,2.2296,2.2149,2.1957,2.1957,2.184,2.1706,2.1899,2.2037,2.218,2.2574,2.2935,2.313,2.2769,2.2199,2.1534,2.0867,2.0181,1.959,1.9211,1.914,1.9158,1.9158,1.9305,1.9435,1.9331,1.9204,1.903,1.8753,1.855,1.8361,1.8239,1.833,1.846,1.8595,1.8631,1.8678,1.8789,1.8904,1.8964,1.8964,1.886,1.8807,1.8807,1.8807,1.8807,1.8807,1.8913,1.9064,1.9308,1.9315,1.9394,1.9553,1.9657,1.9688,1.9713,1.9841,1.9948,1.393,1.4272,1.4749,1.4216,1.394,1.3294,1.1319,1.0738,1.009,0.8266,0.7739,0.7522,0.7248,0.745,0.7649,0.7594,0.7812,0.8154,0.858,0.909,0.9673,1.0338,1.1404,1.2246,1.2615,1.2978,1.3425,1.4,1.4566,1.4892,1.4892,1.5563,1.615,1.6588,1.6876,1.7039,1.7101,1.7039,1.7018,1.7018,1.6942,1.663,1.6122,1.6053,1.7099,1.8979,1.9084,2.0287,2.212,2.1748,2.1884,2.2296,2.2296,2.2296,2.2296,2.2296,2.2296,2.2296,2.2296,2.2296,2.2296,2.2296,2.2323,2.238,2.2703,2.3093,2.3426,2.3475,2.3038,2.2492,2.2039,2.1369,2.0586,1.9796,1.9495,1.939,1.9365,1.9509,1.9649,1.9649,1.946,1.9295,1.9205,1.8945,1.8698,1.8614,1.8659,1.8762,1.9017,1.9084,1.9134,1.9164,1.9251,1.9297,1.9297,1.9158,1.9086,1.9135,1.9135,1.9142,1.9164,1.9316,1.9469,1.9649,1.9649,1.9701,1.979,1.9824,1.9841,1.9847,2.0007,2.0069,1.3578,1.4196,1.5064,1.4991,1.4392,1.3337,1.1569,1.0556,0.9576,0.8184,0.7739,0.7522,0.7248,0.7222,0.7247,0.7248,0.7666,0.7953,0.7831,0.955,1.0747,1.0519,1.202,1.3094,1.3129,1.3163,1.3547,1.4374,1.5492,1.6119,1.6119,1.6783,1.7271,1.7569,1.7659,1.7839,1.8065,1.7822,1.7721,1.7692,1.7392,1.7224,1.7146,1.6853,1.75,1.8908,1.8927,1.998,2.1658,2.1628,2.1884,2.2296,2.2296,2.2296,2.2296,2.2296,2.2296,2.2296,2.2296,2.2296,2.2296,2.2296,2.2673,2.3117,2.3141,2.3599,2.4152,2.4329,2.3814,2.3236,2.3291,2.2198,2.0822,1.9823,1.9682,1.9726,1.9603,1.9688,1.9786,1.9786,1.9755,1.9632,1.9258,1.9159,1.9018,1.8643,1.8807,1.9025,1.9154,1.9398,1.9584,1.9707,1.9476,1.9297,1.9297,1.9282,1.9342,1.9527,1.9541,1.9597,1.9719,1.9737,1.9755,1.9786,1.9786,1.9797,1.979,1.9908,1.9974,1.9993,2.0188,2.0277,1.3416,1.3825,1.4393,1.4958,1.4255,1.3111,1.1845,1.0708,0.9524,0.8184,0.7841,0.7717,0.7485,0.7313,0.714,0.6988,0.7035,0.7047,0.693,0.8125,0.9283,0.9992,1.1179,1.2267,1.3121,1.3198,1.3564,1.4438,1.5808,1.6667,1.6821,1.729,1.7659,1.7937,1.8163,1.833,1.844,1.833,1.8198,1.8046,1.7904,1.7743,1.7528,1.7243,1.8087,1.9782,1.9636,2.0698,2.2556,2.2556,2.2552,2.2537,2.2537,2.2436,2.2296,2.2296,2.2296,2.2296,2.2296,2.2296,2.2296,2.2296,2.2567,2.2935,2.3141,2.3751,2.4401,2.4478,2.444,2.4275,2.3856,2.2913,2.1956,2.1514,2.1348,2.1293,2.1242,2.136,2.1325,2.0807,2.0706,2.0484,1.9792,1.9555,1.939,1.9232,1.9188,1.9243,1.9419,1.953,1.9643,1.9792,1.9676,1.96,1.96,1.96,1.9644,1.9726,1.9713,1.9744,1.9809,1.979,1.9836,1.9927,1.9927,1.9987,2.0098,2.0148,2.0188,2.0169,2.0249,2.0304,1.2999,1.3426,1.3931,1.4578,1.3969,1.2891,1.1705,1.0643,0.9524,0.8184,0.7899,0.7841,0.7642,0.7379,0.7105,0.0,0.6752,0.6682,0.6617,0.7474,0.8583,0.9856,1.0791,1.1806,1.3067,1.3323,1.3702,1.4438,1.5821,1.6824,1.7289,1.7725,1.808,1.8352,1.8529,1.865,1.8725,1.8632,1.8508,1.832,1.832,1.8184,1.796,1.8025,1.895,2.0551,2.0593,2.1597,0.0,2.32,2.3057,2.2848,2.2746,2.2573,2.2398,2.2321,2.2296,2.2296,2.2296,2.2296,2.2296,2.2296,2.2473,2.2772,2.3105,2.3736,2.4388,2.454,2.4896,2.5038,2.4227,2.3578,2.3056,2.2719,2.2536,2.2447,2.2399,2.2522,2.2483,2.1861,2.1747,2.1546,2.0881,2.0563,2.0411,2.0399,2.0228,2.02,2.0451,2.0264,2.0251,2.0657,2.0459,2.0175,1.9839,2.0041,2.0083,1.9877,1.9858,1.9899,1.9955,1.996,1.9987,2.0097,2.0083,2.0156,2.0308,2.03,2.0295,2.0295,2.0324,2.0331,1.2153,1.3046,1.3904,1.3917,1.3545,1.2748,1.1001,1.0239,0.9524,0.8184,0.7899,0.7841,0.7642,0.7379,0.7105,0.6843,0.7023,0.7172,0.7111,0.8251,0.9425,1.0378,1.126,1.2161,1.3113,1.3615,1.4052,1.447,1.5548,1.6617,1.7552,1.8233,1.8715,1.8975,1.8743,1.8734,1.8984,1.8734,1.8595,1.8612,1.8612,1.8585,1.862,1.9403,2.0175,2.0934,2.1735,2.2503,0.0,2.32,2.32,2.3153,2.2835,2.2708,2.2656,2.2402,2.2296,2.2296,2.2296,2.2296,2.2296,2.2296,2.2473,2.2772,2.3105,2.3592,2.4118,2.4643,2.5125,2.5316,2.4503,2.4239,2.3924,2.2944,2.2752,2.2762,2.2625,2.2695,2.2793,2.2793,2.2774,2.2742,2.2601,2.2418,2.2262,2.2281,2.211,2.2116,2.2522,2.1825,2.166,2.2664,2.2,2.1024,1.9894,2.0587,2.0789,2.0036,2.0007,2.0097,2.0281,2.0285,2.0304,2.0308,2.0308,2.0308,2.0308,2.0305,2.0307,2.0291,2.0361,2.0408,1.0781,1.1001,1.1231,1.1561,1.1284,1.0745,1.0021,0.952,0.8972,0.8079,0.7899,0.7885,0.7827,0.7471,0.7369,0.7882,0.7526,0.7281,0.7539,0.8419,0.9432,1.0511,1.2254,1.3341,1.3223,1.3615,1.4068,1.447,1.5563,1.6533,1.7289,1.8132,1.8789,1.918,1.9123,1.9123,1.9188,1.9123,1.9007,1.8861,1.8861,1.8861,1.8896,1.9526,2.0429,2.1543,2.2167,2.2981,2.3886,2.3886,2.3753,2.3533,2.3426,2.3105,2.2682,2.2612,2.245,2.2296,2.2296,2.2296,2.2296,2.2296,2.2363,2.2531,2.3038,2.3663,2.4359,2.5071,2.5398,2.5442,2.5247,2.5166,2.5055,2.4631,2.4567,2.4555,2.4457,2.4476,2.4351,2.3798,2.3687,2.3481,2.2848,2.2614,2.2508,2.2513,2.2325,2.23,2.2577,2.2369,2.2359,2.2765,2.3086,2.2886,2.1929,2.2096,2.1919,2.1088,2.1031,2.0813,2.0327,2.0308,2.0308,2.0308,2.0308,2.0308,2.0308,2.0308,2.0316,2.0363,2.0435,2.0474,0.9889,1.0005,1.0084,1.0386,1.0172,0.9792,0.9363,0.9087,0.871,0.8034,0.7899,0.7878,0.7797,0.7463,0.7321,0.7729,0.745,0.7305,0.7606,0.8435,0.9521,1.0962,1.2663,1.3587,1.3231,1.3615,1.4068,1.447,1.5563,1.653,1.7313,1.8142,1.8825,1.9282,1.9297,1.9297,1.9297,1.9297,1.9246,1.9109,1.9109,1.9109,1.9155,2.0111,2.1007,2.184,2.2802,2.3569,0.0,2.419,2.4084,2.3858,2.3599,2.3265,2.286,2.2625,2.2436,2.2296,2.2296,2.2296,2.2296,2.2296,2.2457,2.2747,2.3327,2.3962,2.4616,2.5275,2.549,2.5524,2.5573,2.5572,2.5551,2.5495,2.5459,2.5411,2.5346,2.5359,2.522,2.4686,2.4617,2.4455,2.389,2.3655,2.3557,2.3609,2.3456,2.34,2.3626,2.3386,2.3355,2.3747,2.3983,2.4024,2.3778,2.3471,2.2913,2.2043,2.1985,2.1773,2.1254,2.1235,2.1235,2.1235,2.1235,2.1259,2.1285,2.1324,2.1397,2.1456,2.1472,2.1496,0.0,0.9821,1.004,0.9977,0.984,0.9549,0.8917,0.8785,0.0,0.7997,0.787,0.7812,0.772,0.7446,0.718,0.6953,0.7187,0.7445,0.7585,0.8499,0.9824,1.1627,1.26,1.3141,1.3196,1.3615,1.4068,1.447,1.5563,1.6591,1.7485,1.8213,1.8789,1.9243,1.9282,1.9297,1.9297,1.9297,1.9297,1.9297,1.9312,1.9312,1.9352,2.1058,2.1774,2.1794,2.3474,2.4171,2.4116,2.4171,2.419,2.4141,2.3522,2.3265,2.3153,2.2571,2.2349,2.2338,2.231,2.2296,2.231,2.2307,2.2734,2.3322,2.3842,2.4367,2.4862,2.5269,2.5418,2.5493,2.5572,2.5554,2.5511,2.5594,2.5554,2.5501,2.5421,2.5459,2.5485,2.5418,2.5443,2.5463,2.5424,2.5258,2.5168,2.5298,2.5159,2.5132,2.5387,2.4742,2.4574,2.5327,2.4745,2.4571,2.5255,2.463,2.3817,2.2951,2.2893,2.2855,2.2797,2.2797,2.2802,2.281,2.2819,2.284,2.29,2.3036,2.3137,2.3203,2.3125,2.3144,0.84,0.0,0.8443,0.7823,0.7748,0.7786,0.0,0.76,0.7611,0.7657,0.7508,0.7613,0.8443,0.809,0.8184,0.9784,0.9655,0.9411,0.9595,1.0225,1.1082,1.2141,1.2857,1.3246,1.3196,1.3615,1.4068,1.447,1.5563,1.6433,1.6953,1.8013,1.8651,1.8771,1.9105,1.9297,1.9297,1.9297,1.9297,1.9297,1.9464,1.9456,1.936,2.1132,2.1541,2.0933,2.3217,2.3859,2.3318,2.3951,2.419,2.418,2.4026,2.3806,2.3533,2.3135,2.2832,2.259,2.2374,2.2296,2.2335,2.2537,2.3051,2.3624,2.3919,2.4262,2.4659,2.5065,2.5189,2.5252,2.5536,2.5595,2.5572,2.5599,2.5595,2.5558,2.5484,2.545,2.5431,2.5479,2.545,2.5431,2.5477,2.5432,2.542,2.5459,2.5405,2.5405,2.546,2.5313,2.5274,2.5468,2.5313,2.5243,2.5372,2.5152,2.4678,2.386,2.3783,2.349,2.2836,2.2797,2.282,2.2888,2.2937,2.2998,2.3046,2.3081,2.3137,2.3203,2.3125,2.3144,0.799,0.8141,0.817,0.7748,0.774,0.7847,0.7847,0.7669,0.7561,0.7709,0.7546,0.7619,0.8392,0.8331,0.8605,0.9968,1.0124,1.0216,1.0567,1.1052,1.1629,1.2315,1.2696,1.2974,1.3179,1.3785,1.4262,1.4485,1.5721,1.6622,1.6966,1.7885,1.8528,1.878,1.9034,1.9214,1.9297,1.9297,1.9297,1.9297,1.9402,1.9413,1.936,2.0697,2.1013,2.0603,2.2336,2.3052,2.3024,2.3465,2.3878,2.418,2.4026,2.3865,2.366,2.3317,2.2996,2.2669,2.2523,2.2473,2.2541,2.2822,2.3288,2.3777,2.4109,2.4372,2.458,2.494,2.5053,2.5125,2.5474,2.5554,2.5566,2.5633,2.5657,2.5632,2.5559,2.5543,2.5541,2.5549,2.5543,2.5541,2.5549,2.5549,2.5541,2.5496,2.5491,2.55,2.5547,2.5549,2.5549,2.5549,2.5549,2.5526,2.5453,2.5404,2.5182,2.4732,2.4676,2.4463,2.4066,2.4003,2.4029,2.41,2.4168,2.4202,2.4258,2.4288,2.4314,2.4355,2.4316,2.4316,0.8048,0.8388,0.8654,0.8418,0.855,0.8712,0.8602,0.8331,0.8101,0.8086,0.7917,0.7884,0.8299,0.861,0.8924,0.9292,0.99,1.0504,1.1044,1.1419,1.1799,1.2249,1.236,1.2619,1.3149,1.4,1.4501,1.4501,1.5934,1.6898,1.7125,1.7809,1.841,1.8852,1.8958,1.9086,1.9243,1.9282,1.9297,1.9297,1.9327,1.9342,1.9379,2.0173,2.0559,2.0588,2.1564,0.0,2.3006,2.3134,2.3584,2.417,2.3896,2.3785,2.3742,2.3403,2.3069,2.2759,2.2673,2.2712,2.2822,2.3105,2.3482,2.3911,2.4364,2.4528,2.4615,2.4898,2.5004,2.5075,2.5414,2.5491,2.552,2.5661,2.5703,2.5683,2.5632,2.5658,2.5662,2.5611,2.5658,2.5662,2.5611,2.5628,2.5599,2.5545,2.5537,2.5552,2.5605,2.5628,2.5628,2.5628,2.5628,2.5595,2.5529,2.5524,2.5484,2.5438,2.5375,2.5376,2.5506,2.5462,2.5465,2.5505,2.5572,2.5628,2.5628,2.5662,2.5703,2.5703,2.5703,2.5683,0.8728,0.9293,0.9369,0.8071,0.8567,0.9218,0.8649,0.8762,0.8982,0.8926,0.8711,0.875,0.9497,0.9666,0.9877,1.0451,1.0681,1.1006,1.1582,1.1741,1.1796,1.1867,1.2235,1.2663,1.3146,1.4,1.4501,1.4501,1.5934,1.6828,1.6863,1.771,1.8239,1.832,1.8761,1.9009,1.9043,1.9204,1.9297,1.9297,1.9478,1.9548,1.9585,2.0384,2.0749,2.0834,0.0,2.2896,2.3043,2.3731,2.408,2.419,2.4151,2.4113,2.4084,2.3753,2.3403,2.3045,2.2531,2.2695,2.3129,2.3177,2.3726,2.4391,2.4478,2.4615,2.4785,2.4955,2.5004,2.5075,2.5414,2.5491,2.552,2.5661,2.5703,2.5703,2.5683,2.5658,2.5633,2.5682,2.5657,2.5633,2.5682,2.5683,2.5683,2.5662,2.5662,2.5662,2.5683,2.5683,2.5683,2.5683,2.5683,2.566,2.5597,2.5575,2.5572,2.5566,2.5515,2.5488,2.5491,2.5549,2.5567,2.5573,2.5658,2.5683,2.5683,2.5683,2.5703,2.5703,2.5703,2.5662,0.8349,0.8819,0.9078,0.8594,0.9609,1.0653,1.0348,1.045,1.0593,1.0567,1.0207,1.0089,1.0753,1.0842,1.1101,1.196,1.1884,1.1815,1.212,1.1923,1.1858,1.2136,1.2372,1.2685,1.3146,1.3785,1.4262,1.4485,1.5721,1.656,1.6789,1.7555,1.8057,1.8198,1.8576,1.8843,1.901,1.9206,1.9297,1.9297,1.9387,1.9499,1.9608,1.9863,2.0094,2.032,0.0,2.2054,2.2528,2.3367,2.3906,2.419,2.419,2.419,2.4161,2.3816,2.3599,2.3369,2.273,2.2928,2.3459,2.3388,2.388,2.4526,2.4723,2.4824,2.4943,2.5099,2.5088,2.5075,2.5414,2.5491,2.552,2.5661,2.5703,2.5703,2.5703,2.5682,2.5661,2.5683,2.5682,2.5661,2.5683,2.5703,2.5703,2.5703,2.5703,2.5703,2.5703,2.5703,2.5703,2.5703,2.5661,2.5658,2.5659,2.563,2.5575,2.5551,2.5594,2.5597,2.5556,2.5629,2.5659,2.5659,2.5683,2.5703,2.5703,2.5703,2.5683,2.5657,2.5657,2.5606,0.8094,0.835,0.8698,0.9157,1.0242,1.1308,1.1793,1.1811,1.1814,1.2089,1.1779,1.1524,1.1775,1.1711,1.19,1.2731,1.2535,1.2226,1.2166,1.1993,1.1998,1.2293,1.2437,1.2685,1.3146,1.3518,1.394,1.4454,1.5477,1.6276,1.6776,1.7361,1.7816,1.811,1.843,1.8706,1.8905,1.9164,1.9297,1.9297,1.9342,1.9467,1.963,1.9502,1.9685,2.0151,2.0646,2.139,2.2325,2.3007,2.3652,2.419,2.419,2.4228,2.4238,2.3883,2.3762,2.3678,2.3028,2.3247,2.3744,2.3653,2.4072,2.4674,2.493,2.5004,2.504,2.5234,2.5157,2.5064,2.5389,2.5498,2.5537,2.5658,2.5684,2.5683,2.5703,2.5683,2.5683,2.5703,2.5703,2.5703,2.5703,2.5703,2.5703,2.5703,2.5703,2.5703,2.5703,2.5703,2.5703,2.5703,2.5659,2.5637,2.5703,2.5658,2.5602,2.5552,2.5637,2.5682,2.5632,2.5662,2.5703,2.5703,2.5703,2.5683,2.5682,2.5682,2.5615,2.5515,2.5515,2.544,0.8664,0.8666,0.8654,0.9316,0.9428,0.9875,1.1754,1.1835,1.1837,1.2958,1.3153,1.2931,1.2274,1.1908,1.1736,1.1866,1.1881,1.1678,1.1169,1.1888,1.2293,1.1913,1.2228,1.2685,1.3146,1.3174,1.3541,1.4424,1.5212,1.5972,1.6763,1.7138,1.7502,1.7822,1.833,1.8604,1.8641,1.9091,1.9297,1.9297,1.9492,1.965,1.9792,1.9761,2.0252,2.1083,2.1028,2.1793,2.3116,2.318,2.3599,2.419,2.419,2.4321,2.4434,2.41,2.3969,2.3901,2.3356,2.3527,2.3969,2.3969,2.4425,2.4974,2.4979,2.5004,2.504,2.5234,2.5157,2.5061,2.5336,2.5456,2.5526,2.5597,2.5605,2.5611,2.5683,2.5658,2.5632,2.5683,2.5703,2.5703,2.5703,2.5703,2.5703,2.5703,2.5703,2.5703,2.5703,2.5703,2.5703,2.5703,2.5703,2.5683,2.5703,2.5703,2.5683,2.5683,2.5683,2.5703,2.5683,2.5703,2.5703,2.5703,2.5703,2.5662,2.5604,2.5604,2.5487,2.5233,2.5233,2.5087,0.8207,0.8695,0.9208,0.9542,0.9848,1.0482,1.2029,1.2831,1.3469,1.4256,1.4226,1.3811,1.2968,1.2718,1.2641,1.2679,1.2174,1.1829,1.1927,1.1726,1.1634,1.1774,1.1957,1.2138,1.23,1.2561,1.2973,1.3591,1.4624,1.5461,1.6028,1.6853,1.7356,1.7491,1.8055,1.843,1.8595,1.8948,1.9246,1.9492,1.9555,1.9669,1.979,1.979,2.0107,2.0665,2.1026,2.1794,2.2803,2.3201,2.3858,2.4567,2.4567,2.4615,2.4678,2.4543,2.4492,2.4433,2.4036,2.4154,2.4474,2.4391,2.466,2.5022,2.5152,2.5198,2.5208,2.5274,2.5253,2.522,2.5364,2.545,2.5526,2.5573,2.5605,2.5604,2.5633,2.5594,2.5549,2.5566,2.5605,2.5636,2.5636,2.5662,2.5703,2.5703,2.5703,2.5703,2.5703,2.5703,2.5703,2.5703,2.5703,2.5661,2.5573,2.5658,2.5703,2.5703,2.5703,2.5703,2.5703,2.5703,2.5703,2.5703,2.566,2.5632,2.5602,2.5427,2.5273,2.5131,2.5014,2.491,0.8222,0.8851,0.9571,0.988,1.0347,1.1054,1.2299,1.3143,1.3884,1.4721,1.4596,1.4084,1.3302,1.3203,1.3112,1.282,1.221,1.1847,1.2,1.142,1.1151,1.1486,1.1553,1.1608,1.1774,1.2084,1.2508,1.306,1.4183,1.5064,1.5577,1.6475,1.7073,1.728,1.7788,1.8232,1.8595,1.8878,1.9198,1.9589,1.9649,1.9726,1.9869,1.9931,2.0084,2.0323,2.0784,2.1559,2.2544,2.3007,2.3824,2.4804,2.4849,2.485,2.485,2.485,2.485,2.4823,2.4557,2.4637,2.485,2.4768,2.4886,2.5111,2.5259,2.5259,2.5219,2.5274,2.5248,2.52,2.5337,2.5411,2.5495,2.5554,2.5565,2.5573,2.5603,2.5551,2.5491,2.5491,2.5543,2.5588,2.5599,2.5636,2.5682,2.5703,2.5703,2.5703,2.5703,2.5703,2.5703,2.5703,2.5703,2.5661,2.5566,2.5657,2.5703,2.5703,2.5703,2.5703,2.5703,2.5703,2.5683,2.5662,2.5611,2.557,2.5539,2.5286,2.5109,2.499,2.4822,2.4698,0.8905,0.9198,0.9672,1.034,1.0774,1.1332,1.2536,1.2511,1.2646,1.4175,1.4165,1.3726,1.3209,1.3152,1.289,1.1957,1.1811,1.1608,1.1075,1.1,1.0989,1.0989,1.0989,1.1207,1.1737,1.1792,1.2157,1.3026,1.3966,1.4818,1.5548,1.6033,1.6604,1.7268,1.7551,1.7992,1.8585,1.8852,1.9198,1.9596,1.9732,1.9874,2.0012,2.0205,2.0308,2.0308,2.0308,2.1138,2.2498,2.2517,2.3423,2.4825,2.4943,2.501,2.501,2.501,2.501,2.4986,2.4849,2.4891,2.501,2.501,2.5146,2.5308,2.5308,2.5157,2.504,2.5234,2.5118,2.4968,2.5224,2.5346,2.5415,2.5476,2.5504,2.5527,2.5588,2.5551,2.5491,2.5508,2.5508,2.5529,2.5594,2.5601,2.561,2.5683,2.5703,2.5703,2.5703,2.5703,2.5703,2.5703,2.5703,2.5703,2.5703,2.5703,2.5703,2.5703,2.5703,2.5703,2.5703,2.5703,2.5662,2.5602,2.5601,2.5537,2.5398,2.5195,2.4998,2.4797,2.4665,2.4454,0.8905,0.9645,1.051,1.0951,1.2134,1.3135,1.2971,1.3095,1.3413,1.3955,1.3719,1.3361,1.3195,1.3203,1.3112,1.2826,1.2228,1.1737,1.1579,1.0943,1.0505,1.0505,1.0505,1.0582,1.0725,1.1386,1.1909,1.2175,1.362,1.4598,1.4818,1.5766,1.6501,1.6926,1.7256,1.7804,1.8585,1.8688,1.9053,1.9738,1.9786,1.9874,2.0012,2.0205,2.0308,2.0308,2.0308,2.121,2.2791,2.3981,2.4667,2.4968,2.5141,2.5214,2.5214,2.5214,2.5214,2.5208,2.5165,2.5176,2.5214,2.5214,2.5259,2.5308,2.5308,2.5259,2.5219,2.5279,2.5248,2.5203,2.5274,2.5317,2.5359,2.5463,2.5504,2.5526,2.5598,2.5559,2.5473,2.5379,2.5359,2.5376,2.5453,2.5531,2.5611,2.5621,2.568,2.5703,2.5703,2.5703,2.5703,2.5703,2.5703,2.5703,2.5703,2.5703,2.5703,2.5703,2.5703,2.5703,2.5703,2.5703,2.566,2.5608,2.5541,2.5412,2.5195,2.4983,2.4783,2.4575,2.4401,2.4284,0.9908,1.0812,1.1776,1.2508,1.3546,1.4241,1.3727,1.3548,1.3526,1.3604,1.3408,1.3198,1.3198,1.3198,1.3198,1.3198,1.2407,1.1792,1.1792,1.0935,1.0303,1.0303,1.0303,1.0303,1.0303,1.1217,1.1792,1.1792,1.3331,1.4262,1.4262,1.5256,1.5978,1.6318,1.6834,1.7464,1.8228,1.8481,1.896,1.9644,1.9742,1.9901,2.012,2.0241,2.0308,2.035,2.1035,2.1918,2.2971,2.4645,2.525,2.5141,2.5259,2.5308,2.5308,2.5308,2.5308,2.5308,2.5308,2.5308,2.5308,2.5308,2.5308,2.5308,2.5308,2.5308,2.5308,2.5308,2.5308,2.5308,2.5308,2.5308,2.5327,2.5406,2.5451,2.5521,2.5617,2.5608,2.5517,2.5345,2.5308,2.5313,2.535,2.5427,2.5522,2.5621,2.5661,2.5703,2.5703,2.5703,2.5703,2.5703,2.5703,2.5703,2.5703,2.5703,2.5659,2.5549,2.5543,2.5543,2.5543,2.5597,2.5599,2.5564,2.5415,2.5247,2.5012,2.5111,2.5105,2.4971,2.4874,2.4942,1.1386,1.2205,1.3029,1.4376,1.4697,1.4641,1.4488,1.3802,1.3198,1.3198,1.3198,1.3198,1.3198,1.3198,1.3198,1.3198,1.2455,1.1847,1.1811,1.0973,1.0341,1.0303,1.0303,1.0303,1.0303,1.118,1.1756,1.1792,1.3054,1.3855,1.3901,1.4658,1.5256,1.5591,1.636,1.7073,1.7693,1.8268,1.8822,1.9389,1.9669,1.9976,2.0277,2.0285,2.0292,2.0408,2.2159,2.2904,2.3047,2.4716,2.5379,2.5322,2.5322,2.5322,2.5322,2.5308,2.5303,2.5303,2.5288,2.5308,2.5308,2.5308,2.5308,2.5308,2.5308,2.5308,2.5308,2.5308,2.5308,2.5308,2.5308,2.5308,2.5308,2.5308,2.5395,2.5509,2.5662,2.5703,2.5632,2.5376,2.5317,2.5308,2.5308,2.5308,2.5387,2.566,2.5703,2.5703,2.5703,2.5703,2.5703,2.5703,2.5703,2.5703,2.5703,2.5682,2.5556,2.5317,2.5308,2.5308,2.5308,2.5411,2.5473,2.5473,2.5365,2.5201,2.5011,2.5552,2.58,2.5792,2.5795,2.6117,1.0807,1.1495,1.2343,1.369,1.3907,1.3815,1.3982,1.3598,1.3198,1.3198,1.3198,1.3198,1.3198,1.3198,1.3198,1.3198,1.272,1.221,1.1847,1.1244,1.0706,1.0341,1.0303,1.0303,1.0303,1.084,1.1356,1.1774,1.2718,1.3453,1.3871,1.4658,1.5256,1.5591,1.613,1.6818,1.7693,1.8049,1.8564,1.9247,1.9613,1.989,2.0069,2.0233,2.0292,2.0405,2.2194,2.298,2.3113,2.4788,2.5477,2.5462,2.5462,2.5462,2.5456,2.5398,2.5387,2.5375,2.5322,2.5308,2.5308,2.5308,2.5308,2.5308,2.5308,2.5308,2.5308,2.5308,2.5308,2.5308,2.5308,2.5308,2.5308,2.5308,2.5312,2.5417,2.5657,2.5703,2.5683,2.5631,2.5444,2.5308,2.5308,2.5308,2.5387,2.566,2.5703,2.5703,2.5703,2.5703,2.5703,2.5703,2.5703,2.5703,2.5703,2.5513,2.5359,2.5293,2.5308,2.5308,2.5308,2.5321,2.5348,2.5348,2.627,2.6484,2.592,2.6402,2.6561,2.6391,2.5991,2.6319,1.0937,1.1775,1.2623,1.4052,1.397,1.3559,1.385,1.3531,1.3198,1.3198,1.3198,1.3198,1.3198,1.3198,1.3198,1.3198,1.2615,1.2084,1.1829,1.1142,1.0572,1.0322,1.0303,1.0303,1.0303,1.0725,1.1113,1.1394,1.2289,1.2933,1.3216,1.4054,1.4693,1.5048,1.565,1.6383,1.7259,1.7687,1.829,1.9012,1.942,1.9803,2.0152,2.0258,2.0332,2.0465,2.1838,2.2638,2.3101,2.4369,2.5101,2.5453,2.5453,2.5477,2.5506,2.5465,2.5421,2.5391,2.5363,2.5321,2.5308,2.5308,2.5308,2.5308,2.5308,2.5308,2.5308,2.5308,2.5308,2.5308,2.5308,2.5308,2.5308,2.5308,2.5308,2.5339,2.5485,2.5605,2.5703,2.5703,2.549,2.5308,2.5308,2.5308,2.5387,2.566,2.5703,2.5703,2.5703,2.5703,2.5703,2.5703,2.5703,2.5703,2.5703,2.5456,2.5308,2.5308,2.5308,2.6038,2.7673,2.5818,2.4773,2.4773,2.5433,2.6349,2.7552,2.7261,2.7087,2.6987,2.7226,2.7629,1.0857,1.195,1.2965,1.4342,1.4089,1.3517,1.362,1.3416,1.3198,1.3198,1.3198,1.3198,1.3198,1.3198,1.3198,1.3198,1.2478,1.1884,1.1811,1.0992,1.04,1.0322,1.0303,1.0264,1.0176,1.0592,1.0867,1.0857,1.1715,1.2282,1.2372,1.3255,1.3924,1.4251,1.5064,1.589,1.6696,1.7313,1.8007,1.876,1.9231,1.9763,2.0325,2.032,2.037,2.0521,2.1413,2.2264,2.3085,2.3885,2.4687,2.5424,2.5421,2.5465,2.5512,2.5513,2.549,2.5425,2.5427,2.5379,2.5327,2.5317,2.5308,2.5293,2.5321,2.5322,2.5308,2.5308,2.5308,2.5308,2.5308,2.5308,2.5308,2.5308,2.5308,2.5308,2.5308,2.5479,2.5637,2.5683,2.549,2.5308,2.5308,2.5308,2.5383,2.5599,2.5662,2.5703,2.5703,2.5703,2.5703,2.5703,2.566,2.5633,2.5633,2.5961,2.6173,2.6173,2.6173,2.7374,3.006,2.6867,2.5034,2.5034,2.5034,2.6337,2.9005,2.8106,2.7684,2.7703,2.8583,2.9005,0.922,1.0582,1.211,1.2841,1.3258,1.3332,1.275,1.291,1.3198,1.3198,1.3198,1.3198,1.3198,1.3198,1.3198,1.3198,1.2738,1.2264,1.1866,1.1282,1.0764,1.0341,1.0303,1.0118,0.9657,1.0079,1.038,1.0321,1.0866,1.1412,1.1866,1.2735,1.3226,1.3281,1.4509,1.5535,1.6273,1.6938,1.7719,1.8643,1.9395,1.9969,2.0387,2.0394,2.0406,2.0466,2.1406,2.2291,2.3143,2.3956,2.4764,2.549,2.5544,2.5575,2.5581,2.5593,2.5572,2.5558,2.5507,2.5476,2.5444,2.5336,2.5308,2.5331,2.5441,2.5395,2.5308,2.5308,2.5308,2.5308,2.5308,2.5308,2.5308,2.5308,2.5308,2.5308,2.5308,2.5321,2.5415,2.5659,2.549,2.5308,2.5308,2.5308,2.5313,2.5357,2.5551,2.5703,2.5703,2.5703,2.5703,2.5703,2.5498,2.5346,2.5346,2.8037,2.9712,2.9712,2.9712,2.9572,2.9209,2.8644,2.8363,2.8363,2.8363,2.8565,2.9005,2.8858,2.8785,2.8785,2.8932,2.9005,0.9686,1.0593,1.1468,1.2452,1.2595,1.2479,1.2412,1.2588,1.2852,1.3135,1.3408,1.3514,1.325,1.3198,1.3198,1.3198,1.2597,1.2029,1.1829,1.1124,1.0534,1.0322,1.0303,1.0205,0.9981,0.9883,0.9834,0.9815,0.9992,1.033,1.0874,1.152,1.213,1.2693,1.3532,1.4551,1.5738,1.6341,1.7367,1.8826,1.9532,2.0031,2.0342,2.0425,2.0468,2.0486,2.0936,2.1858,2.307,2.3465,2.4386,2.5558,2.5595,2.5611,2.5661,2.5663,2.5631,2.5606,2.557,2.548,2.5385,2.5313,2.5308,2.5308,2.5375,2.5453,2.5529,2.5529,2.5529,2.5495,2.5339,2.5308,2.5308,2.5308,2.5308,2.5308,2.5308,2.5308,2.5391,2.5657,2.549,2.5308,2.5308,2.5308,2.5308,2.5308,2.5533,2.5703,2.5703,2.5703,2.5703,2.5703,2.5462,2.6077,2.8,2.9538,3.0404,3.0404,3.0404,2.9985,2.9033,2.9005,2.9005,2.9005,2.9005,2.857,2.7701,2.7701,2.817,2.9005,2.9005,2.9005,0.9922,1.038,1.0654,1.1812,1.197,1.1898,1.2154,1.2458,1.2794,1.3185,1.3693,1.3917,1.3459,1.3374,1.334,1.3215,1.2508,1.1938,1.1811,1.1048,1.0428,1.0322,1.0303,1.0196,0.9922,0.9657,0.9379,0.9119,0.9173,0.9394,0.9797,1.0387,1.0991,1.1619,1.2477,1.3559,1.4907,1.6026,1.7373,1.8963,1.9513,1.9944,2.0247,2.0387,2.0459,2.0478,2.0544,2.1508,2.304,2.3059,2.4064,2.5588,2.5598,2.5632,2.5681,2.5683,2.5679,2.564,2.564,2.5539,2.5406,2.5406,2.537,2.5313,2.5372,2.5543,2.5703,2.5703,2.5703,2.5658,2.5456,2.5406,2.5379,2.5317,2.5308,2.5308,2.5308,2.5346,2.5462,2.566,2.5541,2.5406,2.5406,2.5352,2.5308,2.5308,2.5474,2.5599,2.5599,2.5599,2.593,2.6802,2.6718,2.7635,3.0173,3.0188,3.0142,3.0373,3.0404,2.9985,2.9033,2.9005,2.9005,2.9005,2.9005,2.8438,2.7284,2.6889,2.7284,2.8425,2.8815,2.9005,0.8864,0.9188,0.9411,1.0304,1.1344,1.2102,1.1799,1.2621,1.3453,1.348,1.4008,1.4342,1.395,1.3868,1.3719,1.3267,1.2785,1.2312,1.1866,1.1319,1.0791,1.0351,1.0303,0.9902,0.8878,0.9219,0.9079,0.8057,0.8459,0.8756,0.8777,0.9718,1.0031,0.9564,1.1425,1.2802,1.3597,1.6282,1.8021,1.8819,1.922,1.9679,2.0119,2.0247,2.0344,2.041,2.0479,2.1482,2.3095,2.3021,2.3997,2.5503,2.5588,2.5595,2.5611,2.5681,2.5703,2.5683,2.5683,2.5683,2.5683,2.5683,2.5513,2.5357,2.5602,2.5683,2.5703,2.5703,2.5703,2.5703,2.5683,2.5683,2.5627,2.5359,2.5308,2.5308,2.5308,2.5506,2.5683,2.5703,2.5683,2.5683,2.5683,2.5474,2.5308,2.5308,2.5308,2.5327,2.5327,2.5327,2.6559,2.9809,3.0133,3.0212,3.0385,2.9588,2.9437,3.0343,3.0404,2.9985,2.9033,2.9005,2.9005,2.9005,2.9005,2.8952,2.8881,2.7407,2.6741,2.6857,2.8316,2.9005,0.9107,0.9203,0.9232,0.976,1.076,1.1651,1.1686,1.2692,1.3603,1.3529,1.424,1.4626,1.379,1.3781,1.3752,1.3284,1.282,1.2443,1.2264,1.1542,1.0943,1.0772,1.0186,0.9637,0.9259,0.8756,0.8316,0.794,0.771,0.7773,0.8172,0.8525,0.88,0.8933,0.9954,1.1449,1.3485,1.6038,1.7708,1.8485,1.9021,1.9557,2.0108,2.0141,2.0261,2.0399,2.0462,2.1171,2.2266,2.2243,2.3222,2.4726,2.4757,2.5107,2.5601,2.5631,2.5658,2.5703,2.5703,2.5703,2.5703,2.5703,2.5634,2.5567,2.5662,2.5703,2.5703,2.5703,2.5703,2.5703,2.5703,2.5703,2.5682,2.5588,2.5437,2.5308,2.5308,2.5517,2.5703,2.5703,2.5703,2.5703,2.5703,2.5629,2.5506,2.5336,2.7173,2.8577,2.8577,2.8577,2.9038,3.0269,3.0404,3.0404,3.0404,3.0099,2.979,2.9514,3.0078,2.9985,2.9033,2.9005,2.9005,2.9005,2.9005,2.8502,2.7527,2.6971,2.6691,2.6708,2.727,2.8057,0.9084,0.9069,0.9148,0.9917,1.0328,1.0831,1.1838,1.258,1.3089,1.3234,1.4012,1.4371,1.3398,1.3391,1.347,1.3446,1.3035,1.2685,1.2526,1.1781,1.1143,1.0846,1.0185,0.9641,0.9289,0.8609,0.8098,0.7912,0.7342,0.7168,0.7579,0.7787,0.8139,0.8675,0.9279,1.0704,1.3004,1.5248,1.691,1.8021,1.8609,1.9286,1.9996,2.0054,2.0182,2.0363,2.042,2.0936,2.1777,2.1787,2.2786,2.4294,2.4202,2.4744,2.557,2.5618,2.5658,2.5703,2.5703,2.5703,2.5703,2.5703,2.5703,2.5703,2.5703,2.5703,2.5703,2.5703,2.5703,2.5703,2.5703,2.5703,2.5703,2.5703,2.5559,2.5431,2.5431,2.5491,2.5597,2.5683,2.5703,2.5703,2.5703,2.5703,2.5604,2.5344,2.8212,3.0404,3.0404,3.0404,3.0404,3.0404,3.0404,3.0404,3.0404,3.0404,3.0,2.9055,2.9588,2.9652,2.904,2.9005,2.9005,2.9005,2.9005,2.825,2.6691,2.6691,2.6691,2.6691,2.6691,2.7238,0.0,0.0,0.0,1.0634,1.0066,0.9769,1.217,1.2235,1.1984,1.2651,1.3301,1.3561,1.2829,1.2706,1.2964,1.3744,1.3462,1.298,1.2531,1.2074,1.1424,1.052,1.0318,0.9858,0.8883,0.87,0.8443,0.7925,0.7335,0.7,0.7,0.7551,0.8118,0.8635,0.951,1.0643,1.2047,1.3938,1.5723,1.7388,1.8001,1.8808,1.979,1.9919,2.0109,2.0307,2.0307,2.0822,2.1664,2.1724,2.2732,2.4198,2.3922,2.4514,2.55,2.5637,2.5703,2.5703,2.5703,2.5703,2.5703,2.5703,2.5703,2.5703,2.5703,2.5703,2.5703,2.5703,2.5703,2.5703,2.5703,2.5703,2.5703,2.5703,2.5703,2.5703,2.5703,2.5503,2.5383,2.5658,2.5703,2.5703,2.5703,2.5781,2.576,2.5498,2.8269,3.0404,3.0404,3.0404,3.0404,3.0404,3.0404,3.0404,3.0404,3.0367,2.9977,2.9055,2.904,2.9033,2.9033,2.8998,2.9005,2.9005,2.9005,2.825,2.6691,2.6691,2.6691,2.6691,2.6691,2.6691,0.8863,0.0,0.0,0.0,0.0,0.0,1.069,1.1338,1.185,1.204,1.2609,1.3014,1.2817,1.2931,1.3065,1.3047,1.2477,1.1993,1.1867,1.1399,1.089,1.0388,0.9637,0.8933,0.8415,0.7905,0.7548,0.7398,0.7148,0.7,0.7,0.7154,0.7314,0.7454,0.8842,1.0088,1.1148,1.336,1.5225,1.6767,1.7507,1.8439,1.9507,1.9557,1.9836,2.0295,2.0302,2.0447,2.0695,2.0715,2.1398,2.2408,2.2282,2.3518,2.5379,2.5515,2.5628,2.5703,2.5703,2.5703,2.5703,2.5703,2.5703,2.5703,2.5703,2.5703,2.5703,2.5703,2.5703,2.5703,2.5703,2.5703,2.5703,2.5703,2.5703,2.5703,2.5703,2.5636,2.5605,2.5683,2.5703,2.5703,2.5703,2.7793,2.9351,2.9047,2.9788,3.0404,3.0404,3.0404,3.0404,3.0404,3.0404,3.0404,3.0404,2.9782,2.9272,2.9028,2.9643,3.0015,3.0015,2.9357,2.9005,2.9005,2.9005,2.825,2.6691,2.6691,2.6691,2.6691,2.6691,2.6691,0.0,0.0,0.0,0.9757,0.0,0.0,1.0362,1.0809,1.1147,1.1336,1.191,1.2351,1.2199,1.2536,1.263,1.204,1.1817,1.1691,1.161,1.114,1.0677,1.0309,0.9546,0.892,0.8522,0.7963,0.7539,0.7378,0.74,0.7401,0.7377,0.7126,0.7,0.7,0.8379,0.9565,1.0492,1.2682,1.4593,1.6262,1.7171,1.8214,1.9318,1.9493,1.9784,2.0174,2.0257,2.0308,2.0297,2.0308,2.0837,2.1628,2.1289,2.2602,2.4788,2.5368,2.5634,2.5703,2.5703,2.5703,2.5703,2.5703,2.5703,2.5703,2.5703,2.5703,2.5703,2.5703,2.5703,2.5703,2.5703,2.5703,2.5703,2.5703,2.5703,2.5703,2.5703,2.5703,2.5703,2.5703,2.5703,2.6152,2.7617,2.9551,3.0795,3.0455,3.0404,3.0404,3.0404,3.0404,3.0404,3.0404,3.0404,3.0404,3.0404,2.9896,2.9579,2.9579,3.0099,3.0404,3.0404,2.9495,2.87,2.8057,2.718,2.6286,2.5416,2.6281,2.6691,2.6691,2.6691,2.6691,0.0,0.0,0.0,0.0,1.0285,0.0,1.0569,1.0473,1.025,1.0574,1.1097,1.1423,1.1213,1.1705,1.183,1.088,1.1353,1.1761,1.1558,1.1079,1.0603,1.0192,0.9812,0.9388,0.8885,0.8439,0.8026,0.7624,0.7852,0.7968,0.7906,0.7447,0.7189,0.7189,0.8272,0.9317,1.025,1.213,1.4055,1.5942,1.6971,1.8051,1.9175,1.9556,1.9828,2.0017,2.0193,2.0272,2.0298,2.0316,2.077,2.1407,2.0761,2.182,2.3875,2.5076,2.5586,2.5703,2.5703,2.5703,2.5703,2.5703,2.5703,2.5703,2.5703,2.5703,2.5703,2.5703,2.5703,2.5703,2.5703,2.5703,2.5703,2.5703,2.5703,2.5703,2.5703,2.5703,2.5703,2.5703,2.5703,2.668,2.9785,3.0644,3.0795,3.0455,3.0404,3.0404,3.0404,3.0404,3.0404,3.0404,3.0404,3.0404,3.0404,3.0299,3.0235,3.0235,3.0235,3.0235,3.0235,2.9427,2.8277,2.6725,2.4661,2.3595,2.3595,2.5454,2.6367,2.6367,2.659,2.6691,0.0,0.0,0.0,1.039,1.0856,0.0,0.9509,0.9858,1.0336,0.9789,0.9645,0.9774,1.0246,1.0752,1.0799,0.9842,1.0663,1.1329,1.1068,1.0702,1.0328,0.9928,0.9624,0.9173,0.8484,0.824,0.7948,0.7556,0.7813,0.7991,0.7986,0.823,0.837,0.837,0.9363,1.0357,1.1289,1.2854,1.4491,1.6157,1.6901,1.7827,1.8888,1.9187,1.9576,1.9993,2.0036,2.0146,2.0292,2.0368,2.0515,2.0703,2.0559,2.1376,2.2752,2.3906,2.4902,2.5703,2.5703,2.5703,2.5703,2.5703,2.5703,2.5703,2.5703,2.5703,2.5703,2.5703,2.5703,2.5703,2.5703,2.5703,2.5703,2.5703,2.5703,2.5703,2.5703,2.5703,2.5703,2.5703,2.5703,2.5918,2.6602,2.9043,3.0795,3.0455,3.0404,3.0404,3.0404,3.0404,3.0404,3.0404,3.0404,3.0404,3.0404,2.9713,2.9272,2.9272,2.9272,2.9272,2.9272,2.9093,2.8277,2.6725,2.4661,2.3595,2.3595,2.4012,2.4189,2.4266,2.5911,2.6691,1.1936,1.1408,1.1204,1.1603,1.1619,0.0,0.0,1.0522,1.0767,1.1002,1.0269,0.9929,1.0995,1.1252,1.1036,1.022,1.1204,1.1776,1.0958,1.0736,1.0506,1.0146,0.9804,0.94,0.8896,0.8454,0.8203,0.82,0.8077,0.8308,0.9014,0.9019,0.912,0.9396,1.0157,1.0997,1.1948,1.3345,1.4767,1.6204,1.7183,1.8028,1.8708,1.9247,1.9645,1.9912,2.0083,2.0215,2.0314,2.0374,2.0437,2.0509,2.0539,2.1444,2.2812,2.3359,2.4453,2.5703,2.5703,2.5703,2.5703,2.5703,2.5703,2.5703,2.5703,2.5703,2.5703,2.5703,2.5703,2.5703,2.5703,2.5601,2.5537,2.5661,2.5703,2.5703,2.5703,2.707,2.8281,2.8281,2.8281,2.8281,2.8281,2.9746,3.0795,3.0455,3.0404,3.0404,3.0404,3.0404,3.0404,3.0404,3.0404,3.0404,3.0404,2.9977,2.9495,2.9021,2.9005,2.9005,2.9005,2.8264,2.7497,2.6708,2.4661,2.3595,2.3595,2.3595,2.3595,2.3659,2.5713,2.6691,1.3142,1.2466,1.2203,1.3159,1.2677,1.1928,0.0,0.0,0.0,1.225,1.1211,1.0534,1.1734,1.1688,1.1257,1.0587,1.1599,1.2005,1.0662,1.0706,1.075,1.0442,1.0119,0.9792,0.9516,0.8724,0.8418,0.8854,0.8465,0.8749,0.9989,0.983,0.9949,1.0458,1.1028,1.1797,1.2792,1.3968,1.5169,1.6433,1.7569,1.8281,1.8623,1.9399,1.978,1.9826,2.0112,2.0261,2.0314,2.0361,2.0432,2.0483,2.0564,2.168,2.3184,2.3008,2.4102,2.5703,2.5703,2.5703,2.5703,2.5703,2.5703,2.5703,2.5703,2.5703,2.5703,2.5703,2.5703,2.5683,2.5634,2.5465,2.5371,2.5634,2.5703,2.5703,2.5703,2.8437,3.0898,3.0898,3.0898,3.0898,3.0898,3.0854,3.0713,3.0439,3.0404,3.0404,3.0404,3.0404,3.0404,3.0404,3.0404,3.0404,3.0404,3.0228,2.9807,2.9044,2.9005,2.9005,2.9005,2.7527,2.6691,2.6691,2.5054,2.4204,2.4204,2.4204,2.4204,2.4246,2.5911,2.6691,1.5486,1.5155,1.4826,1.3684,1.4251,1.4411,1.1808,0.0,1.2755,1.1528,0.0,1.0511,1.0671,0.0,0.0,0.9402,1.0421,1.0819,0.9479,1.0172,1.0699,1.0431,1.0364,1.0171,0.9792,0.8702,0.8251,0.8764,0.8908,0.9251,0.9897,1.0711,1.1355,1.1776,1.2486,1.3421,1.4591,1.5169,1.6024,1.7179,1.7791,1.8281,1.8623,1.9316,1.9688,1.9802,1.9968,2.0133,2.0304,2.0362,2.0393,2.0427,2.0542,2.168,2.3125,2.2598,2.3809,2.5703,2.5703,2.5703,2.5703,2.5703,2.5703,2.5703,2.5703,2.5703,2.5703,2.5703,2.5703,2.5657,2.5413,2.5312,2.5371,2.5634,2.5703,2.5703,2.5703,2.8437,3.0898,3.0898,3.0898,3.0898,3.0898,3.0647,3.0444,3.0416,3.0404,3.0404,3.0404,3.0404,3.0404,3.0404,3.0404,3.0404,3.0404,2.9643,2.9115,2.9017,2.9005,2.9005,2.9005,2.7527,2.6691,2.6691,2.647,2.635,2.635,2.635,2.635,2.6351,2.659,2.6691,1.5838,1.591,1.5994,1.4945,1.5148,1.5155,1.3455,1.2906,1.2829,1.3041,0.0,0.0,0.0,0.0,0.0,0.0,1.0095,1.0189,0.9234,0.985,1.0253,0.9874,0.9824,0.973,0.953,0.927,0.9252,0.9639,0.9603,0.9967,1.0895,1.1709,1.2366,1.2861,1.3747,1.4565,1.5301,1.5926,1.66,1.732,1.8035,1.8463,1.8623,1.9286,1.9669,1.9802,1.9929,2.0115,2.03,2.0332,2.0337,2.0369,2.0497,2.1617,2.3066,2.2519,2.373,2.5703,2.5703,2.5703,2.5703,2.5703,2.5703,2.5703,2.5703,2.5703,2.5703,2.5703,2.5594,2.5441,2.5321,2.5308,2.5321,2.5441,2.5593,2.625,2.8281,2.9863,3.0898,3.0898,3.0898,3.0832,3.0636,3.0487,3.0404,3.0404,3.0404,3.0404,3.0404,3.0404,3.0404,3.0404,3.0404,3.0188,2.9634,2.9238,2.9005,2.9005,2.9005,2.8596,2.7686,2.7034,2.6691,2.6691,2.6691,2.6691,2.6691,2.6691,2.6691,2.6691,2.6691,2.6691,1.6482,1.67,1.6877,1.5852,1.5595,1.5341,1.4411,1.3684,1.3396,1.4056,1.3067,0.0,0.0,0.0,0.0,0.0,0.0,0.9903,0.9107,0.9523,0.976,0.9369,0.9359,0.9337,0.9203,0.9319,0.9625,1.0149,1.0013,1.0386,1.1527,1.2282,1.2939,1.3558,1.4457,1.5241,1.5916,1.6623,1.7166,1.755,1.8353,1.8715,1.8734,1.9335,1.9669,1.9802,1.9929,2.0115,2.0296,2.0296,2.031,2.0302,2.0446,2.1567,2.3046,2.2656,2.3867,2.5703,2.5703,2.5703,2.5703,2.5703,2.5703,2.5703,2.5703,2.5703,2.5703,2.5703,2.5513,2.5308,2.5308,2.5308,2.5308,2.5308,2.6162,2.7708,3.0331,3.0898,3.0898,3.0898,3.0898,3.0799,3.0465,3.0404,3.0404,3.0404,3.0404,3.0404,3.0404,3.0404,3.0404,3.0404,3.0404,3.0121,2.9446,2.9387,2.9272,2.9028,2.9005,2.8489,2.7376,2.6922,2.6691,2.6691,2.6691,2.6691,2.6691,2.6691,2.6691,2.6691,2.6691,2.6691,0.0,0.0,0.0,1.602,0.0,0.0,0.0,1.4505,1.5088,1.3718,1.4293,1.4641,0.0,0.0,0.0,0.0,0.0,0.0,0.0,0.9124,0.9348,0.9135,0.9286,0.9275,0.8944,0.8455,0.8644,0.9823,0.9904,1.0311,1.1253,1.2124,1.2968,1.3759,1.4395,1.536,1.6763,1.7361,1.7831,1.8177,1.8734,1.9002,1.8992,1.9413,1.9669,1.9802,1.9929,2.0115,2.0296,2.0296,2.031,2.0302,2.0446,2.1575,2.3091,2.3085,2.4199,2.5703,2.5703,2.5703,2.5703,2.5703,2.5703,2.5703,2.5703,2.5703,2.5703,2.5703,2.5513,2.5308,2.5308,2.5308,2.5308,2.5308,2.7838,3.0366,3.0811,3.0898,3.0898,3.0898,3.0898,3.0799,3.0465,3.0404,3.0404,3.0404,3.0404,3.0404,3.0404,3.0404,3.0404,3.0404,3.0404,3.0392,3.0355,3.0355,2.9969,2.9055,2.9005,2.8982,2.8929,2.7497,2.6691,2.6691,2.6691,2.6691,2.6691,2.6691,2.6691,2.6691,2.6691,2.6691,0.0,0.0,1.944,1.7156,0.0,0.0,0.0,0.0,0.0,1.3692,1.4508,1.4957,0.0,0.0,0.0,0.0,0.0,0.0,0.0,0.9026,0.872,0.8652,0.8887,0.9033,0.8906,0.8821,0.9308,1.0663,1.0479,0.0,1.2795,1.3128,1.3823,1.5081,1.5491,1.6241,1.7384,1.7815,1.818,1.8469,1.8825,1.901,1.9001,1.9285,1.9545,1.9796,1.9847,2.0036,2.0292,2.0307,2.0299,2.0383,2.1185,2.2105,2.2976,2.3079,2.4199,2.5703,2.5703,2.5703,2.5703,2.5703,2.5703,2.5703,2.5703,2.5703,2.5703,2.5703,2.5634,2.5529,2.5352,2.5308,2.5308,2.5308,2.7904,3.0482,3.083,3.0898,3.0898,3.0898,3.0898,3.0799,3.0465,3.0404,3.0404,3.0404,3.0404,3.0404,3.0404,3.0404,3.0404,3.0404,3.0404,3.0404,3.0404,2.9832,2.9345,2.9028,2.9005,2.9005,2.9005,2.8489,2.7747,2.6725,2.6691,2.6691,2.6691,2.6691,2.6691,2.6691,2.6691,2.6691,1.8869,1.9447,0.0,1.7606,1.7409,0.0,1.4999,0.0,1.5571,0.0,0.0,0.0,0.0,0.0,0.0,0.0,0.0,0.0,0.0,0.8917,0.8511,0.8511,0.8572,0.8751,0.9073,0.8956,0.9546,1.1221,1.0912,1.1544,0.0,1.3489,1.4127,1.5762,1.5827,1.6437,1.7704,1.8132,1.8479,1.8752,1.8991,1.9134,1.9214,1.9353,1.9585,1.9874,1.9874,2.0036,2.0308,2.0308,2.0308,2.0404,2.1558,2.2366,2.2981,2.3681,2.4699,2.5703,2.5703,2.5703,2.5703,2.5703,2.5703,2.5683,2.5593,2.5611,2.5703,2.5703,2.5703,2.566,2.5493,2.5375,2.5615,2.6827,2.8808,3.0451,3.0686,3.0826,3.0898,3.0898,3.0898,3.0799,3.0465,3.0404,3.0404,3.0404,3.0404,3.0404,3.0404,3.0404,3.0404,3.0404,3.0404,3.0267,2.992,2.9652,2.9365,2.901,2.9005,2.9005,2.9005,2.9005,2.8527,2.7542,2.7527,2.7255,2.6691,2.6691,2.6987,2.7512,2.6954,2.6987]}]]